<?xml version="1.0" encoding="UTF-8" standalone="no" ?>
<gpx xmlns="http://www.topografix.com/GPX/1/1" xmlns:xsi="http://www.w3.org/2001/XMLSchema-instance" xsi:schemaLocation="http://www.topografix.com/GPX/1/1 http://www.topografix.com/GPX/1/1/gpx.xsd" version="1.1" creator="VisuGPX - https://www.visugpx.com">
  <metadata>
    <name>4 - Usanges - Fau de Peyre</name>
    <desc><![CDATA[Aubrac 2013 - réalisé]]></desc>
  </metadata>
  <trk>
    <name><![CDATA[24 juil. 2013 09:11:04]]></name>
    <cmt><![CDATA[24 juil. 2013 09:11:04]]></cmt>
    <trkseg>
      <trkpt lat="44.64011" lon="3.15506">
        <ele>1248.3</ele>
        <time>2013-07-24T07:11:11Z</time>
      </trkpt>
      <trkpt lat="44.64028" lon="3.15516">
        <ele>1237</ele>
        <time>2013-07-24T07:11:14Z</time>
      </trkpt>
      <trkpt lat="44.64023" lon="3.15503">
        <ele>1246</ele>
        <time>2013-07-24T07:11:24Z</time>
      </trkpt>
      <trkpt lat="44.64017" lon="3.15495">
        <ele>1253</ele>
        <time>2013-07-24T07:11:31Z</time>
      </trkpt>
      <trkpt lat="44.64016" lon="3.15487">
        <ele>1257</ele>
        <time>2013-07-24T07:11:37Z</time>
      </trkpt>
      <trkpt lat="44.64013" lon="3.15481">
        <ele>1258</ele>
        <time>2013-07-24T07:11:43Z</time>
      </trkpt>
      <trkpt lat="44.64008" lon="3.15469">
        <ele>1258</ele>
        <time>2013-07-24T07:11:56Z</time>
      </trkpt>
      <trkpt lat="44.64008" lon="3.15461">
        <ele>1258</ele>
        <time>2013-07-24T07:12:01Z</time>
      </trkpt>
      <trkpt lat="44.64011" lon="3.15455">
        <ele>1256</ele>
        <time>2013-07-24T07:12:05Z</time>
      </trkpt>
      <trkpt lat="44.64013" lon="3.15449">
        <ele>1257</ele>
        <time>2013-07-24T07:12:10Z</time>
      </trkpt>
      <trkpt lat="44.64016" lon="3.15443">
        <ele>1257</ele>
        <time>2013-07-24T07:12:14Z</time>
      </trkpt>
      <trkpt lat="44.64021" lon="3.15439">
        <ele>1257</ele>
        <time>2013-07-24T07:12:18Z</time>
      </trkpt>
      <trkpt lat="44.64025" lon="3.15436">
        <ele>1260</ele>
        <time>2013-07-24T07:12:24Z</time>
      </trkpt>
      <trkpt lat="44.6403" lon="3.15434">
        <ele>1261</ele>
        <time>2013-07-24T07:12:28Z</time>
      </trkpt>
      <trkpt lat="44.64035" lon="3.15432">
        <ele>1261</ele>
        <time>2013-07-24T07:12:32Z</time>
      </trkpt>
      <trkpt lat="44.64039" lon="3.15428">
        <ele>1261</ele>
        <time>2013-07-24T07:12:37Z</time>
      </trkpt>
      <trkpt lat="44.64042" lon="3.15422">
        <ele>1262</ele>
        <time>2013-07-24T07:12:41Z</time>
      </trkpt>
      <trkpt lat="44.64043" lon="3.15415">
        <ele>1263</ele>
        <time>2013-07-24T07:12:45Z</time>
      </trkpt>
      <trkpt lat="44.64044" lon="3.15408">
        <ele>1265</ele>
        <time>2013-07-24T07:12:49Z</time>
      </trkpt>
      <trkpt lat="44.64044" lon="3.15401">
        <ele>1266</ele>
        <time>2013-07-24T07:12:53Z</time>
      </trkpt>
      <trkpt lat="44.64044" lon="3.15395">
        <ele>1267</ele>
        <time>2013-07-24T07:12:57Z</time>
      </trkpt>
      <trkpt lat="44.64044" lon="3.15387">
        <ele>1267</ele>
        <time>2013-07-24T07:13:02Z</time>
      </trkpt>
      <trkpt lat="44.64044" lon="3.1538">
        <ele>1266</ele>
        <time>2013-07-24T07:13:07Z</time>
      </trkpt>
      <trkpt lat="44.64046" lon="3.15374">
        <ele>1266</ele>
        <time>2013-07-24T07:13:13Z</time>
      </trkpt>
      <trkpt lat="44.64046" lon="3.15368">
        <ele>1269</ele>
        <time>2013-07-24T07:13:21Z</time>
      </trkpt>
      <trkpt lat="44.64047" lon="3.15361">
        <ele>1270</ele>
        <time>2013-07-24T07:13:27Z</time>
      </trkpt>
      <trkpt lat="44.6405" lon="3.15357">
        <ele>1267</ele>
        <time>2013-07-24T07:13:44Z</time>
      </trkpt>
      <trkpt lat="44.64054" lon="3.15352">
        <ele>1267</ele>
        <time>2013-07-24T07:13:48Z</time>
      </trkpt>
      <trkpt lat="44.64057" lon="3.15346">
        <ele>1267</ele>
        <time>2013-07-24T07:13:53Z</time>
      </trkpt>
      <trkpt lat="44.64061" lon="3.15341">
        <ele>1268</ele>
        <time>2013-07-24T07:13:57Z</time>
      </trkpt>
      <trkpt lat="44.64064" lon="3.15336">
        <ele>1268</ele>
        <time>2013-07-24T07:14:01Z</time>
      </trkpt>
      <trkpt lat="44.64068" lon="3.15332">
        <ele>1268</ele>
        <time>2013-07-24T07:14:05Z</time>
      </trkpt>
      <trkpt lat="44.64072" lon="3.15327">
        <ele>1268</ele>
        <time>2013-07-24T07:14:09Z</time>
      </trkpt>
      <trkpt lat="44.64076" lon="3.15323">
        <ele>1268</ele>
        <time>2013-07-24T07:14:13Z</time>
      </trkpt>
      <trkpt lat="44.6408" lon="3.15319">
        <ele>1269</ele>
        <time>2013-07-24T07:14:17Z</time>
      </trkpt>
      <trkpt lat="44.64089" lon="3.15313">
        <ele>1270</ele>
        <time>2013-07-24T07:14:27Z</time>
      </trkpt>
      <trkpt lat="44.64094" lon="3.1531">
        <ele>1271</ele>
        <time>2013-07-24T07:14:31Z</time>
      </trkpt>
      <trkpt lat="44.64099" lon="3.15309">
        <ele>1271</ele>
        <time>2013-07-24T07:14:34Z</time>
      </trkpt>
      <trkpt lat="44.64104" lon="3.15308">
        <ele>1272</ele>
        <time>2013-07-24T07:14:38Z</time>
      </trkpt>
      <trkpt lat="44.6411" lon="3.15307">
        <ele>1273</ele>
        <time>2013-07-24T07:14:43Z</time>
      </trkpt>
      <trkpt lat="44.64114" lon="3.15305">
        <ele>1272</ele>
        <time>2013-07-24T07:14:47Z</time>
      </trkpt>
      <trkpt lat="44.64119" lon="3.15303">
        <ele>1272</ele>
        <time>2013-07-24T07:14:50Z</time>
      </trkpt>
      <trkpt lat="44.64128" lon="3.15298">
        <ele>1272</ele>
        <time>2013-07-24T07:14:58Z</time>
      </trkpt>
      <trkpt lat="44.64137" lon="3.15292">
        <ele>1272</ele>
        <time>2013-07-24T07:15:06Z</time>
      </trkpt>
      <trkpt lat="44.64144" lon="3.1529">
        <ele>1273</ele>
        <time>2013-07-24T07:15:10Z</time>
      </trkpt>
      <trkpt lat="44.64148" lon="3.15288">
        <ele>1273</ele>
        <time>2013-07-24T07:15:15Z</time>
      </trkpt>
      <trkpt lat="44.64153" lon="3.15286">
        <ele>1273</ele>
        <time>2013-07-24T07:15:20Z</time>
      </trkpt>
      <trkpt lat="44.64158" lon="3.15284">
        <ele>1272</ele>
        <time>2013-07-24T07:15:25Z</time>
      </trkpt>
      <trkpt lat="44.64163" lon="3.15282">
        <ele>1271</ele>
        <time>2013-07-24T07:15:30Z</time>
      </trkpt>
      <trkpt lat="44.64168" lon="3.15281">
        <ele>1270</ele>
        <time>2013-07-24T07:15:35Z</time>
      </trkpt>
      <trkpt lat="44.64173" lon="3.15278">
        <ele>1270</ele>
        <time>2013-07-24T07:15:39Z</time>
      </trkpt>
      <trkpt lat="44.64178" lon="3.15276">
        <ele>1270</ele>
        <time>2013-07-24T07:15:43Z</time>
      </trkpt>
      <trkpt lat="44.64183" lon="3.15274">
        <ele>1269</ele>
        <time>2013-07-24T07:15:47Z</time>
      </trkpt>
      <trkpt lat="44.64187" lon="3.15272">
        <ele>1269</ele>
        <time>2013-07-24T07:15:51Z</time>
      </trkpt>
      <trkpt lat="44.64192" lon="3.1527">
        <ele>1270</ele>
        <time>2013-07-24T07:15:55Z</time>
      </trkpt>
      <trkpt lat="44.64197" lon="3.15267">
        <ele>1269</ele>
        <time>2013-07-24T07:16:00Z</time>
      </trkpt>
      <trkpt lat="44.64202" lon="3.15264">
        <ele>1268</ele>
        <time>2013-07-24T07:16:03Z</time>
      </trkpt>
      <trkpt lat="44.64207" lon="3.15263">
        <ele>1267</ele>
        <time>2013-07-24T07:16:07Z</time>
      </trkpt>
      <trkpt lat="44.64212" lon="3.15261">
        <ele>1267</ele>
        <time>2013-07-24T07:16:11Z</time>
      </trkpt>
      <trkpt lat="44.64216" lon="3.1526">
        <ele>1267</ele>
        <time>2013-07-24T07:16:14Z</time>
      </trkpt>
      <trkpt lat="44.64221" lon="3.15258">
        <ele>1267</ele>
        <time>2013-07-24T07:16:18Z</time>
      </trkpt>
      <trkpt lat="44.64226" lon="3.15257">
        <ele>1266</ele>
        <time>2013-07-24T07:16:23Z</time>
      </trkpt>
      <trkpt lat="44.64231" lon="3.15257">
        <ele>1266</ele>
        <time>2013-07-24T07:16:27Z</time>
      </trkpt>
      <trkpt lat="44.64236" lon="3.15258">
        <ele>1266</ele>
        <time>2013-07-24T07:16:32Z</time>
      </trkpt>
      <trkpt lat="44.64241" lon="3.15257">
        <ele>1265</ele>
        <time>2013-07-24T07:16:37Z</time>
      </trkpt>
      <trkpt lat="44.64246" lon="3.15256">
        <ele>1265</ele>
        <time>2013-07-24T07:16:41Z</time>
      </trkpt>
      <trkpt lat="44.64251" lon="3.15254">
        <ele>1265</ele>
        <time>2013-07-24T07:16:45Z</time>
      </trkpt>
      <trkpt lat="44.64255" lon="3.15253">
        <ele>1265</ele>
        <time>2013-07-24T07:16:50Z</time>
      </trkpt>
      <trkpt lat="44.6426" lon="3.15251">
        <ele>1266</ele>
        <time>2013-07-24T07:16:55Z</time>
      </trkpt>
      <trkpt lat="44.64266" lon="3.15251">
        <ele>1266</ele>
        <time>2013-07-24T07:17:00Z</time>
      </trkpt>
      <trkpt lat="44.64272" lon="3.1525">
        <ele>1268</ele>
        <time>2013-07-24T07:17:04Z</time>
      </trkpt>
      <trkpt lat="44.64277" lon="3.15248">
        <ele>1270</ele>
        <time>2013-07-24T07:17:11Z</time>
      </trkpt>
      <trkpt lat="44.64281" lon="3.15246">
        <ele>1270</ele>
        <time>2013-07-24T07:17:14Z</time>
      </trkpt>
      <trkpt lat="44.64286" lon="3.15243">
        <ele>1270</ele>
        <time>2013-07-24T07:17:20Z</time>
      </trkpt>
      <trkpt lat="44.64291" lon="3.1524">
        <ele>1270</ele>
        <time>2013-07-24T07:17:25Z</time>
      </trkpt>
      <trkpt lat="44.64296" lon="3.15239">
        <ele>1270</ele>
        <time>2013-07-24T07:17:29Z</time>
      </trkpt>
      <trkpt lat="44.64301" lon="3.15236">
        <ele>1269</ele>
        <time>2013-07-24T07:17:33Z</time>
      </trkpt>
      <trkpt lat="44.64305" lon="3.15234">
        <ele>1267</ele>
        <time>2013-07-24T07:17:36Z</time>
      </trkpt>
      <trkpt lat="44.6431" lon="3.15231">
        <ele>1266</ele>
        <time>2013-07-24T07:17:40Z</time>
      </trkpt>
      <trkpt lat="44.64314" lon="3.15229">
        <ele>1265</ele>
        <time>2013-07-24T07:17:44Z</time>
      </trkpt>
      <trkpt lat="44.64318" lon="3.15226">
        <ele>1264</ele>
        <time>2013-07-24T07:17:47Z</time>
      </trkpt>
      <trkpt lat="44.64323" lon="3.15222">
        <ele>1264</ele>
        <time>2013-07-24T07:17:51Z</time>
      </trkpt>
      <trkpt lat="44.64327" lon="3.1522">
        <ele>1265</ele>
        <time>2013-07-24T07:17:55Z</time>
      </trkpt>
      <trkpt lat="44.64332" lon="3.15217">
        <ele>1265</ele>
        <time>2013-07-24T07:17:59Z</time>
      </trkpt>
      <trkpt lat="44.64336" lon="3.15213">
        <ele>1266</ele>
        <time>2013-07-24T07:18:03Z</time>
      </trkpt>
      <trkpt lat="44.64341" lon="3.15211">
        <ele>1266</ele>
        <time>2013-07-24T07:18:08Z</time>
      </trkpt>
      <trkpt lat="44.64345" lon="3.15208">
        <ele>1265</ele>
        <time>2013-07-24T07:18:12Z</time>
      </trkpt>
      <trkpt lat="44.6435" lon="3.15206">
        <ele>1264</ele>
        <time>2013-07-24T07:18:16Z</time>
      </trkpt>
      <trkpt lat="44.64354" lon="3.15203">
        <ele>1263</ele>
        <time>2013-07-24T07:18:20Z</time>
      </trkpt>
      <trkpt lat="44.64359" lon="3.15201">
        <ele>1262</ele>
        <time>2013-07-24T07:18:24Z</time>
      </trkpt>
      <trkpt lat="44.64364" lon="3.15199">
        <ele>1263</ele>
        <time>2013-07-24T07:18:27Z</time>
      </trkpt>
      <trkpt lat="44.64369" lon="3.15198">
        <ele>1262</ele>
        <time>2013-07-24T07:18:31Z</time>
      </trkpt>
      <trkpt lat="44.64374" lon="3.15195">
        <ele>1262</ele>
        <time>2013-07-24T07:18:35Z</time>
      </trkpt>
      <trkpt lat="44.64379" lon="3.15192">
        <ele>1262</ele>
        <time>2013-07-24T07:18:39Z</time>
      </trkpt>
      <trkpt lat="44.64383" lon="3.1519">
        <ele>1262</ele>
        <time>2013-07-24T07:18:44Z</time>
      </trkpt>
      <trkpt lat="44.64388" lon="3.15185">
        <ele>1262</ele>
        <time>2013-07-24T07:18:49Z</time>
      </trkpt>
      <trkpt lat="44.64393" lon="3.15182">
        <ele>1262</ele>
        <time>2013-07-24T07:18:53Z</time>
      </trkpt>
      <trkpt lat="44.64396" lon="3.15181">
        <ele>1263</ele>
        <time>2013-07-24T07:19:00Z</time>
      </trkpt>
      <trkpt lat="44.644" lon="3.15177">
        <ele>1262</ele>
        <time>2013-07-24T07:19:42Z</time>
      </trkpt>
      <trkpt lat="44.64405" lon="3.15174">
        <ele>1262</ele>
        <time>2013-07-24T07:19:49Z</time>
      </trkpt>
      <trkpt lat="44.64409" lon="3.15171">
        <ele>1261</ele>
        <time>2013-07-24T07:19:52Z</time>
      </trkpt>
      <trkpt lat="44.64414" lon="3.15169">
        <ele>1259</ele>
        <time>2013-07-24T07:19:57Z</time>
      </trkpt>
      <trkpt lat="44.64419" lon="3.15167">
        <ele>1259</ele>
        <time>2013-07-24T07:20:01Z</time>
      </trkpt>
      <trkpt lat="44.64423" lon="3.15164">
        <ele>1258</ele>
        <time>2013-07-24T07:20:06Z</time>
      </trkpt>
      <trkpt lat="44.64428" lon="3.15162">
        <ele>1257</ele>
        <time>2013-07-24T07:20:10Z</time>
      </trkpt>
      <trkpt lat="44.64433" lon="3.1516">
        <ele>1257</ele>
        <time>2013-07-24T07:20:15Z</time>
      </trkpt>
      <trkpt lat="44.64438" lon="3.15156">
        <ele>1259</ele>
        <time>2013-07-24T07:20:20Z</time>
      </trkpt>
      <trkpt lat="44.64444" lon="3.15152">
        <ele>1260</ele>
        <time>2013-07-24T07:20:27Z</time>
      </trkpt>
      <trkpt lat="44.64449" lon="3.15149">
        <ele>1259</ele>
        <time>2013-07-24T07:20:33Z</time>
      </trkpt>
      <trkpt lat="44.64454" lon="3.15147">
        <ele>1259</ele>
        <time>2013-07-24T07:20:40Z</time>
      </trkpt>
      <trkpt lat="44.64458" lon="3.15145">
        <ele>1259</ele>
        <time>2013-07-24T07:20:45Z</time>
      </trkpt>
      <trkpt lat="44.64463" lon="3.15142">
        <ele>1258</ele>
        <time>2013-07-24T07:20:50Z</time>
      </trkpt>
      <trkpt lat="44.64468" lon="3.15139">
        <ele>1258</ele>
        <time>2013-07-24T07:20:55Z</time>
      </trkpt>
      <trkpt lat="44.64472" lon="3.15136">
        <ele>1258</ele>
        <time>2013-07-24T07:20:59Z</time>
      </trkpt>
      <trkpt lat="44.64477" lon="3.15133">
        <ele>1257</ele>
        <time>2013-07-24T07:21:03Z</time>
      </trkpt>
      <trkpt lat="44.64482" lon="3.1513">
        <ele>1257</ele>
        <time>2013-07-24T07:21:08Z</time>
      </trkpt>
      <trkpt lat="44.64487" lon="3.15128">
        <ele>1258</ele>
        <time>2013-07-24T07:21:12Z</time>
      </trkpt>
      <trkpt lat="44.64491" lon="3.15126">
        <ele>1258</ele>
        <time>2013-07-24T07:21:16Z</time>
      </trkpt>
      <trkpt lat="44.64496" lon="3.15123">
        <ele>1258</ele>
        <time>2013-07-24T07:21:21Z</time>
      </trkpt>
      <trkpt lat="44.64501" lon="3.15122">
        <ele>1258</ele>
        <time>2013-07-24T07:21:26Z</time>
      </trkpt>
      <trkpt lat="44.64507" lon="3.1512">
        <ele>1258</ele>
        <time>2013-07-24T07:21:30Z</time>
      </trkpt>
      <trkpt lat="44.64512" lon="3.15118">
        <ele>1259</ele>
        <time>2013-07-24T07:21:34Z</time>
      </trkpt>
      <trkpt lat="44.64516" lon="3.15116">
        <ele>1259</ele>
        <time>2013-07-24T07:21:38Z</time>
      </trkpt>
      <trkpt lat="44.64521" lon="3.15115">
        <ele>1259</ele>
        <time>2013-07-24T07:21:42Z</time>
      </trkpt>
      <trkpt lat="44.64526" lon="3.15114">
        <ele>1258</ele>
        <time>2013-07-24T07:21:46Z</time>
      </trkpt>
      <trkpt lat="44.64531" lon="3.15112">
        <ele>1258</ele>
        <time>2013-07-24T07:21:50Z</time>
      </trkpt>
      <trkpt lat="44.64536" lon="3.1511">
        <ele>1257</ele>
        <time>2013-07-24T07:21:55Z</time>
      </trkpt>
      <trkpt lat="44.64542" lon="3.15108">
        <ele>1257</ele>
        <time>2013-07-24T07:22:00Z</time>
      </trkpt>
      <trkpt lat="44.64546" lon="3.15106">
        <ele>1256</ele>
        <time>2013-07-24T07:22:06Z</time>
      </trkpt>
      <trkpt lat="44.64551" lon="3.15105">
        <ele>1256</ele>
        <time>2013-07-24T07:22:10Z</time>
      </trkpt>
      <trkpt lat="44.64558" lon="3.15104">
        <ele>1254</ele>
        <time>2013-07-24T07:22:15Z</time>
      </trkpt>
      <trkpt lat="44.64564" lon="3.15103">
        <ele>1253</ele>
        <time>2013-07-24T07:22:19Z</time>
      </trkpt>
      <trkpt lat="44.64569" lon="3.15102">
        <ele>1254</ele>
        <time>2013-07-24T07:22:23Z</time>
      </trkpt>
      <trkpt lat="44.64575" lon="3.151">
        <ele>1254</ele>
        <time>2013-07-24T07:22:27Z</time>
      </trkpt>
      <trkpt lat="44.64579" lon="3.15099">
        <ele>1254</ele>
        <time>2013-07-24T07:22:31Z</time>
      </trkpt>
      <trkpt lat="44.64584" lon="3.15096">
        <ele>1253</ele>
        <time>2013-07-24T07:22:36Z</time>
      </trkpt>
      <trkpt lat="44.64589" lon="3.15095">
        <ele>1252</ele>
        <time>2013-07-24T07:22:40Z</time>
      </trkpt>
      <trkpt lat="44.64593" lon="3.15091">
        <ele>1250</ele>
        <time>2013-07-24T07:22:44Z</time>
      </trkpt>
      <trkpt lat="44.64598" lon="3.15089">
        <ele>1249</ele>
        <time>2013-07-24T07:22:54Z</time>
      </trkpt>
      <trkpt lat="44.64603" lon="3.15087">
        <ele>1248</ele>
        <time>2013-07-24T07:22:58Z</time>
      </trkpt>
      <trkpt lat="44.64608" lon="3.15085">
        <ele>1248</ele>
        <time>2013-07-24T07:23:02Z</time>
      </trkpt>
      <trkpt lat="44.64613" lon="3.15083">
        <ele>1249</ele>
        <time>2013-07-24T07:23:06Z</time>
      </trkpt>
      <trkpt lat="44.64618" lon="3.1508">
        <ele>1250</ele>
        <time>2013-07-24T07:23:11Z</time>
      </trkpt>
      <trkpt lat="44.64622" lon="3.15078">
        <ele>1251</ele>
        <time>2013-07-24T07:23:15Z</time>
      </trkpt>
      <trkpt lat="44.64628" lon="3.15075">
        <ele>1250</ele>
        <time>2013-07-24T07:23:20Z</time>
      </trkpt>
      <trkpt lat="44.64633" lon="3.15073">
        <ele>1250</ele>
        <time>2013-07-24T07:23:24Z</time>
      </trkpt>
      <trkpt lat="44.64638" lon="3.15072">
        <ele>1250</ele>
        <time>2013-07-24T07:23:28Z</time>
      </trkpt>
      <trkpt lat="44.64643" lon="3.15071">
        <ele>1250</ele>
        <time>2013-07-24T07:23:31Z</time>
      </trkpt>
      <trkpt lat="44.64648" lon="3.15068">
        <ele>1249</ele>
        <time>2013-07-24T07:23:35Z</time>
      </trkpt>
      <trkpt lat="44.64653" lon="3.15066">
        <ele>1249</ele>
        <time>2013-07-24T07:23:39Z</time>
      </trkpt>
      <trkpt lat="44.64658" lon="3.15065">
        <ele>1249</ele>
        <time>2013-07-24T07:23:42Z</time>
      </trkpt>
      <trkpt lat="44.64663" lon="3.15064">
        <ele>1249</ele>
        <time>2013-07-24T07:23:46Z</time>
      </trkpt>
      <trkpt lat="44.64669" lon="3.15062">
        <ele>1247</ele>
        <time>2013-07-24T07:23:50Z</time>
      </trkpt>
      <trkpt lat="44.64674" lon="3.15061">
        <ele>1246</ele>
        <time>2013-07-24T07:23:54Z</time>
      </trkpt>
      <trkpt lat="44.64679" lon="3.15061">
        <ele>1247</ele>
        <time>2013-07-24T07:23:58Z</time>
      </trkpt>
      <trkpt lat="44.64684" lon="3.15062">
        <ele>1248</ele>
        <time>2013-07-24T07:24:02Z</time>
      </trkpt>
      <trkpt lat="44.64689" lon="3.15063">
        <ele>1249</ele>
        <time>2013-07-24T07:24:08Z</time>
      </trkpt>
      <trkpt lat="44.64697" lon="3.15066">
        <ele>1248</ele>
        <time>2013-07-24T07:24:15Z</time>
      </trkpt>
      <trkpt lat="44.64703" lon="3.15067">
        <ele>1248</ele>
        <time>2013-07-24T07:24:19Z</time>
      </trkpt>
      <trkpt lat="44.64708" lon="3.15069">
        <ele>1248</ele>
        <time>2013-07-24T07:24:25Z</time>
      </trkpt>
      <trkpt lat="44.64713" lon="3.1507">
        <ele>1248</ele>
        <time>2013-07-24T07:24:29Z</time>
      </trkpt>
      <trkpt lat="44.64717" lon="3.1507">
        <ele>1248</ele>
        <time>2013-07-24T07:24:33Z</time>
      </trkpt>
      <trkpt lat="44.64723" lon="3.15071">
        <ele>1248</ele>
        <time>2013-07-24T07:24:37Z</time>
      </trkpt>
      <trkpt lat="44.64728" lon="3.15072">
        <ele>1247</ele>
        <time>2013-07-24T07:24:41Z</time>
      </trkpt>
      <trkpt lat="44.64732" lon="3.15073">
        <ele>1247</ele>
        <time>2013-07-24T07:24:45Z</time>
      </trkpt>
      <trkpt lat="44.64738" lon="3.15074">
        <ele>1246</ele>
        <time>2013-07-24T07:24:50Z</time>
      </trkpt>
      <trkpt lat="44.64743" lon="3.15075">
        <ele>1246</ele>
        <time>2013-07-24T07:24:54Z</time>
      </trkpt>
      <trkpt lat="44.64747" lon="3.15076">
        <ele>1245</ele>
        <time>2013-07-24T07:24:58Z</time>
      </trkpt>
      <trkpt lat="44.64753" lon="3.15077">
        <ele>1245</ele>
        <time>2013-07-24T07:25:02Z</time>
      </trkpt>
      <trkpt lat="44.64759" lon="3.15078">
        <ele>1245</ele>
        <time>2013-07-24T07:25:07Z</time>
      </trkpt>
      <trkpt lat="44.64764" lon="3.15081">
        <ele>1246</ele>
        <time>2013-07-24T07:25:11Z</time>
      </trkpt>
      <trkpt lat="44.64769" lon="3.15083">
        <ele>1246</ele>
        <time>2013-07-24T07:25:15Z</time>
      </trkpt>
      <trkpt lat="44.64774" lon="3.15085">
        <ele>1247</ele>
        <time>2013-07-24T07:25:19Z</time>
      </trkpt>
      <trkpt lat="44.64779" lon="3.15087">
        <ele>1247</ele>
        <time>2013-07-24T07:25:23Z</time>
      </trkpt>
      <trkpt lat="44.64784" lon="3.15088">
        <ele>1248</ele>
        <time>2013-07-24T07:25:27Z</time>
      </trkpt>
      <trkpt lat="44.64789" lon="3.1509">
        <ele>1247</ele>
        <time>2013-07-24T07:25:32Z</time>
      </trkpt>
      <trkpt lat="44.64794" lon="3.15093">
        <ele>1247</ele>
        <time>2013-07-24T07:25:38Z</time>
      </trkpt>
      <trkpt lat="44.64799" lon="3.15096">
        <ele>1246</ele>
        <time>2013-07-24T07:25:43Z</time>
      </trkpt>
      <trkpt lat="44.64804" lon="3.15098">
        <ele>1246</ele>
        <time>2013-07-24T07:25:47Z</time>
      </trkpt>
      <trkpt lat="44.64808" lon="3.151">
        <ele>1246</ele>
        <time>2013-07-24T07:25:51Z</time>
      </trkpt>
      <trkpt lat="44.64813" lon="3.15103">
        <ele>1246</ele>
        <time>2013-07-24T07:25:56Z</time>
      </trkpt>
      <trkpt lat="44.64817" lon="3.15105">
        <ele>1246</ele>
        <time>2013-07-24T07:26:01Z</time>
      </trkpt>
      <trkpt lat="44.64823" lon="3.15108">
        <ele>1247</ele>
        <time>2013-07-24T07:26:06Z</time>
      </trkpt>
      <trkpt lat="44.64832" lon="3.15111">
        <ele>1247</ele>
        <time>2013-07-24T07:26:16Z</time>
      </trkpt>
      <trkpt lat="44.64841" lon="3.15115">
        <ele>1248</ele>
        <time>2013-07-24T07:26:24Z</time>
      </trkpt>
      <trkpt lat="44.6485" lon="3.15119">
        <ele>1247</ele>
        <time>2013-07-24T07:26:31Z</time>
      </trkpt>
      <trkpt lat="44.64856" lon="3.1512">
        <ele>1247</ele>
        <time>2013-07-24T07:26:35Z</time>
      </trkpt>
      <trkpt lat="44.64861" lon="3.15122">
        <ele>1247</ele>
        <time>2013-07-24T07:26:40Z</time>
      </trkpt>
      <trkpt lat="44.64866" lon="3.15123">
        <ele>1245</ele>
        <time>2013-07-24T07:26:45Z</time>
      </trkpt>
      <trkpt lat="44.64872" lon="3.15124">
        <ele>1243</ele>
        <time>2013-07-24T07:26:50Z</time>
      </trkpt>
      <trkpt lat="44.64876" lon="3.15125">
        <ele>1243</ele>
        <time>2013-07-24T07:26:55Z</time>
      </trkpt>
      <trkpt lat="44.64881" lon="3.15127">
        <ele>1243</ele>
        <time>2013-07-24T07:27:00Z</time>
      </trkpt>
      <trkpt lat="44.64886" lon="3.15128">
        <ele>1243</ele>
        <time>2013-07-24T07:27:04Z</time>
      </trkpt>
      <trkpt lat="44.64891" lon="3.15128">
        <ele>1244</ele>
        <time>2013-07-24T07:27:08Z</time>
      </trkpt>
      <trkpt lat="44.64896" lon="3.15127">
        <ele>1244</ele>
        <time>2013-07-24T07:27:12Z</time>
      </trkpt>
      <trkpt lat="44.64901" lon="3.15128">
        <ele>1245</ele>
        <time>2013-07-24T07:27:16Z</time>
      </trkpt>
      <trkpt lat="44.64906" lon="3.15128">
        <ele>1245</ele>
        <time>2013-07-24T07:27:20Z</time>
      </trkpt>
      <trkpt lat="44.64911" lon="3.15127">
        <ele>1245</ele>
        <time>2013-07-24T07:27:25Z</time>
      </trkpt>
      <trkpt lat="44.6492" lon="3.15128">
        <ele>1245</ele>
        <time>2013-07-24T07:27:46Z</time>
      </trkpt>
      <trkpt lat="44.64926" lon="3.15127">
        <ele>1245</ele>
        <time>2013-07-24T07:27:51Z</time>
      </trkpt>
      <trkpt lat="44.64931" lon="3.15127">
        <ele>1245</ele>
        <time>2013-07-24T07:27:55Z</time>
      </trkpt>
      <trkpt lat="44.64936" lon="3.15126">
        <ele>1244</ele>
        <time>2013-07-24T07:27:59Z</time>
      </trkpt>
      <trkpt lat="44.64942" lon="3.15125">
        <ele>1244</ele>
        <time>2013-07-24T07:28:04Z</time>
      </trkpt>
      <trkpt lat="44.64948" lon="3.15124">
        <ele>1244</ele>
        <time>2013-07-24T07:28:08Z</time>
      </trkpt>
      <trkpt lat="44.64954" lon="3.15123">
        <ele>1243</ele>
        <time>2013-07-24T07:28:12Z</time>
      </trkpt>
      <trkpt lat="44.64958" lon="3.15121">
        <ele>1243</ele>
        <time>2013-07-24T07:28:16Z</time>
      </trkpt>
      <trkpt lat="44.64964" lon="3.1512">
        <ele>1241</ele>
        <time>2013-07-24T07:28:21Z</time>
      </trkpt>
      <trkpt lat="44.64968" lon="3.15118">
        <ele>1240</ele>
        <time>2013-07-24T07:28:26Z</time>
      </trkpt>
      <trkpt lat="44.64973" lon="3.15117">
        <ele>1240</ele>
        <time>2013-07-24T07:28:30Z</time>
      </trkpt>
      <trkpt lat="44.64978" lon="3.15117">
        <ele>1240</ele>
        <time>2013-07-24T07:28:34Z</time>
      </trkpt>
      <trkpt lat="44.64982" lon="3.15119">
        <ele>1239</ele>
        <time>2013-07-24T07:28:38Z</time>
      </trkpt>
      <trkpt lat="44.64986" lon="3.15122">
        <ele>1239</ele>
        <time>2013-07-24T07:28:42Z</time>
      </trkpt>
      <trkpt lat="44.64992" lon="3.15123">
        <ele>1238</ele>
        <time>2013-07-24T07:28:47Z</time>
      </trkpt>
      <trkpt lat="44.64998" lon="3.15127">
        <ele>1238</ele>
        <time>2013-07-24T07:28:53Z</time>
      </trkpt>
      <trkpt lat="44.65002" lon="3.15131">
        <ele>1238</ele>
        <time>2013-07-24T07:28:58Z</time>
      </trkpt>
      <trkpt lat="44.65006" lon="3.15134">
        <ele>1237</ele>
        <time>2013-07-24T07:29:03Z</time>
      </trkpt>
      <trkpt lat="44.65011" lon="3.15137">
        <ele>1237</ele>
        <time>2013-07-24T07:29:07Z</time>
      </trkpt>
      <trkpt lat="44.65015" lon="3.15141">
        <ele>1236</ele>
        <time>2013-07-24T07:29:11Z</time>
      </trkpt>
      <trkpt lat="44.65018" lon="3.15145">
        <ele>1236</ele>
        <time>2013-07-24T07:29:15Z</time>
      </trkpt>
      <trkpt lat="44.65022" lon="3.15148">
        <ele>1237</ele>
        <time>2013-07-24T07:29:19Z</time>
      </trkpt>
      <trkpt lat="44.65028" lon="3.15152">
        <ele>1238</ele>
        <time>2013-07-24T07:29:24Z</time>
      </trkpt>
      <trkpt lat="44.65033" lon="3.15155">
        <ele>1239</ele>
        <time>2013-07-24T07:29:28Z</time>
      </trkpt>
      <trkpt lat="44.65037" lon="3.15158">
        <ele>1241</ele>
        <time>2013-07-24T07:29:33Z</time>
      </trkpt>
      <trkpt lat="44.65042" lon="3.1516">
        <ele>1242</ele>
        <time>2013-07-24T07:29:38Z</time>
      </trkpt>
      <trkpt lat="44.65049" lon="3.15164">
        <ele>1242</ele>
        <time>2013-07-24T07:29:45Z</time>
      </trkpt>
      <trkpt lat="44.65056" lon="3.15166">
        <ele>1243</ele>
        <time>2013-07-24T07:29:51Z</time>
      </trkpt>
      <trkpt lat="44.6506" lon="3.15168">
        <ele>1243</ele>
        <time>2013-07-24T07:29:55Z</time>
      </trkpt>
      <trkpt lat="44.65066" lon="3.15169">
        <ele>1242</ele>
        <time>2013-07-24T07:30:00Z</time>
      </trkpt>
      <trkpt lat="44.6507" lon="3.15171">
        <ele>1243</ele>
        <time>2013-07-24T07:30:05Z</time>
      </trkpt>
      <trkpt lat="44.65075" lon="3.15173">
        <ele>1243</ele>
        <time>2013-07-24T07:30:09Z</time>
      </trkpt>
      <trkpt lat="44.6508" lon="3.15176">
        <ele>1243</ele>
        <time>2013-07-24T07:30:14Z</time>
      </trkpt>
      <trkpt lat="44.65085" lon="3.15179">
        <ele>1242</ele>
        <time>2013-07-24T07:30:18Z</time>
      </trkpt>
      <trkpt lat="44.65088" lon="3.15181">
        <ele>1241</ele>
        <time>2013-07-24T07:30:26Z</time>
      </trkpt>
      <trkpt lat="44.65093" lon="3.15179">
        <ele>1240</ele>
        <time>2013-07-24T07:30:47Z</time>
      </trkpt>
      <trkpt lat="44.65095" lon="3.15181">
        <ele>1237</ele>
        <time>2013-07-24T07:31:38Z</time>
      </trkpt>
      <trkpt lat="44.65098" lon="3.15182">
        <ele>1237</ele>
        <time>2013-07-24T07:32:07Z</time>
      </trkpt>
      <trkpt lat="44.65103" lon="3.15185">
        <ele>1240</ele>
        <time>2013-07-24T07:35:31Z</time>
      </trkpt>
      <trkpt lat="44.65108" lon="3.15187">
        <ele>1240</ele>
        <time>2013-07-24T07:35:35Z</time>
      </trkpt>
      <trkpt lat="44.65113" lon="3.15188">
        <ele>1241</ele>
        <time>2013-07-24T07:35:40Z</time>
      </trkpt>
      <trkpt lat="44.65118" lon="3.15189">
        <ele>1241</ele>
        <time>2013-07-24T07:35:46Z</time>
      </trkpt>
      <trkpt lat="44.65123" lon="3.15191">
        <ele>1240</ele>
        <time>2013-07-24T07:35:55Z</time>
      </trkpt>
      <trkpt lat="44.65128" lon="3.15192">
        <ele>1240</ele>
        <time>2013-07-24T07:36:00Z</time>
      </trkpt>
      <trkpt lat="44.65133" lon="3.15193">
        <ele>1240</ele>
        <time>2013-07-24T07:36:05Z</time>
      </trkpt>
      <trkpt lat="44.65142" lon="3.15198">
        <ele>1239</ele>
        <time>2013-07-24T07:36:21Z</time>
      </trkpt>
      <trkpt lat="44.65147" lon="3.152">
        <ele>1241</ele>
        <time>2013-07-24T07:36:25Z</time>
      </trkpt>
      <trkpt lat="44.65151" lon="3.15201">
        <ele>1242</ele>
        <time>2013-07-24T07:36:30Z</time>
      </trkpt>
      <trkpt lat="44.65156" lon="3.15203">
        <ele>1242</ele>
        <time>2013-07-24T07:36:33Z</time>
      </trkpt>
      <trkpt lat="44.65161" lon="3.15205">
        <ele>1243</ele>
        <time>2013-07-24T07:36:36Z</time>
      </trkpt>
      <trkpt lat="44.65167" lon="3.15209">
        <ele>1245</ele>
        <time>2013-07-24T07:36:46Z</time>
      </trkpt>
      <trkpt lat="44.65174" lon="3.1521">
        <ele>1247</ele>
        <time>2013-07-24T07:36:56Z</time>
      </trkpt>
      <trkpt lat="44.65179" lon="3.15212">
        <ele>1247</ele>
        <time>2013-07-24T07:37:00Z</time>
      </trkpt>
      <trkpt lat="44.65184" lon="3.15214">
        <ele>1248</ele>
        <time>2013-07-24T07:37:04Z</time>
      </trkpt>
      <trkpt lat="44.65189" lon="3.15216">
        <ele>1248</ele>
        <time>2013-07-24T07:37:08Z</time>
      </trkpt>
      <trkpt lat="44.65193" lon="3.15218">
        <ele>1248</ele>
        <time>2013-07-24T07:37:12Z</time>
      </trkpt>
      <trkpt lat="44.65198" lon="3.15219">
        <ele>1248</ele>
        <time>2013-07-24T07:37:17Z</time>
      </trkpt>
      <trkpt lat="44.65203" lon="3.15221">
        <ele>1249</ele>
        <time>2013-07-24T07:37:21Z</time>
      </trkpt>
      <trkpt lat="44.65209" lon="3.15222">
        <ele>1248</ele>
        <time>2013-07-24T07:37:25Z</time>
      </trkpt>
      <trkpt lat="44.65214" lon="3.15222">
        <ele>1247</ele>
        <time>2013-07-24T07:37:29Z</time>
      </trkpt>
      <trkpt lat="44.65218" lon="3.15222">
        <ele>1245</ele>
        <time>2013-07-24T07:37:33Z</time>
      </trkpt>
      <trkpt lat="44.65223" lon="3.15221">
        <ele>1244</ele>
        <time>2013-07-24T07:37:38Z</time>
      </trkpt>
      <trkpt lat="44.65228" lon="3.15221">
        <ele>1245</ele>
        <time>2013-07-24T07:37:42Z</time>
      </trkpt>
      <trkpt lat="44.65234" lon="3.1522">
        <ele>1245</ele>
        <time>2013-07-24T07:37:47Z</time>
      </trkpt>
      <trkpt lat="44.65239" lon="3.15219">
        <ele>1245</ele>
        <time>2013-07-24T07:37:51Z</time>
      </trkpt>
      <trkpt lat="44.65244" lon="3.15219">
        <ele>1245</ele>
        <time>2013-07-24T07:37:55Z</time>
      </trkpt>
      <trkpt lat="44.6525" lon="3.15218">
        <ele>1245</ele>
        <time>2013-07-24T07:38:00Z</time>
      </trkpt>
      <trkpt lat="44.65255" lon="3.15218">
        <ele>1245</ele>
        <time>2013-07-24T07:38:04Z</time>
      </trkpt>
      <trkpt lat="44.6526" lon="3.15217">
        <ele>1245</ele>
        <time>2013-07-24T07:38:09Z</time>
      </trkpt>
      <trkpt lat="44.65265" lon="3.15217">
        <ele>1245</ele>
        <time>2013-07-24T07:38:13Z</time>
      </trkpt>
      <trkpt lat="44.6527" lon="3.15217">
        <ele>1245</ele>
        <time>2013-07-24T07:38:17Z</time>
      </trkpt>
      <trkpt lat="44.65275" lon="3.15217">
        <ele>1245</ele>
        <time>2013-07-24T07:38:21Z</time>
      </trkpt>
      <trkpt lat="44.6528" lon="3.15217">
        <ele>1247</ele>
        <time>2013-07-24T07:38:26Z</time>
      </trkpt>
      <trkpt lat="44.65288" lon="3.15219">
        <ele>1246</ele>
        <time>2013-07-24T07:38:34Z</time>
      </trkpt>
      <trkpt lat="44.65293" lon="3.15219">
        <ele>1246</ele>
        <time>2013-07-24T07:38:38Z</time>
      </trkpt>
      <trkpt lat="44.65298" lon="3.1522">
        <ele>1247</ele>
        <time>2013-07-24T07:38:41Z</time>
      </trkpt>
      <trkpt lat="44.65305" lon="3.15221">
        <ele>1246</ele>
        <time>2013-07-24T07:38:46Z</time>
      </trkpt>
      <trkpt lat="44.65311" lon="3.15223">
        <ele>1245</ele>
        <time>2013-07-24T07:38:51Z</time>
      </trkpt>
      <trkpt lat="44.65316" lon="3.15226">
        <ele>1245</ele>
        <time>2013-07-24T07:38:54Z</time>
      </trkpt>
      <trkpt lat="44.6532" lon="3.15227">
        <ele>1245</ele>
        <time>2013-07-24T07:38:58Z</time>
      </trkpt>
      <trkpt lat="44.6533" lon="3.1523">
        <ele>1244</ele>
        <time>2013-07-24T07:39:06Z</time>
      </trkpt>
      <trkpt lat="44.65337" lon="3.15232">
        <ele>1244</ele>
        <time>2013-07-24T07:39:12Z</time>
      </trkpt>
      <trkpt lat="44.65347" lon="3.15234">
        <ele>1243</ele>
        <time>2013-07-24T07:39:21Z</time>
      </trkpt>
      <trkpt lat="44.65357" lon="3.15237">
        <ele>1244</ele>
        <time>2013-07-24T07:39:28Z</time>
      </trkpt>
      <trkpt lat="44.65365" lon="3.15241">
        <ele>1244</ele>
        <time>2013-07-24T07:39:36Z</time>
      </trkpt>
      <trkpt lat="44.65375" lon="3.15245">
        <ele>1237</ele>
        <time>2013-07-24T07:39:45Z</time>
      </trkpt>
      <trkpt lat="44.65384" lon="3.15253">
        <ele>1234</ele>
        <time>2013-07-24T07:39:55Z</time>
      </trkpt>
      <trkpt lat="44.65391" lon="3.15261">
        <ele>1232</ele>
        <time>2013-07-24T07:40:04Z</time>
      </trkpt>
      <trkpt lat="44.65399" lon="3.15267">
        <ele>1232</ele>
        <time>2013-07-24T07:40:11Z</time>
      </trkpt>
      <trkpt lat="44.65409" lon="3.15274">
        <ele>1232</ele>
        <time>2013-07-24T07:40:20Z</time>
      </trkpt>
      <trkpt lat="44.65416" lon="3.15281">
        <ele>1232</ele>
        <time>2013-07-24T07:40:28Z</time>
      </trkpt>
      <trkpt lat="44.65424" lon="3.1529">
        <ele>1235</ele>
        <time>2013-07-24T07:40:38Z</time>
      </trkpt>
      <trkpt lat="44.65433" lon="3.15295">
        <ele>1236</ele>
        <time>2013-07-24T07:40:45Z</time>
      </trkpt>
      <trkpt lat="44.65441" lon="3.15303">
        <ele>1231</ele>
        <time>2013-07-24T07:40:53Z</time>
      </trkpt>
      <trkpt lat="44.65448" lon="3.15306">
        <ele>1232</ele>
        <time>2013-07-24T07:40:59Z</time>
      </trkpt>
      <trkpt lat="44.65457" lon="3.15311">
        <ele>1234</ele>
        <time>2013-07-24T07:41:08Z</time>
      </trkpt>
      <trkpt lat="44.65465" lon="3.15318">
        <ele>1234</ele>
        <time>2013-07-24T07:41:17Z</time>
      </trkpt>
      <trkpt lat="44.65473" lon="3.15326">
        <ele>1233</ele>
        <time>2013-07-24T07:41:26Z</time>
      </trkpt>
      <trkpt lat="44.65481" lon="3.15335">
        <ele>1232</ele>
        <time>2013-07-24T07:41:34Z</time>
      </trkpt>
      <trkpt lat="44.6549" lon="3.15341">
        <ele>1231</ele>
        <time>2013-07-24T07:41:42Z</time>
      </trkpt>
      <trkpt lat="44.65498" lon="3.15349">
        <ele>1230</ele>
        <time>2013-07-24T07:41:49Z</time>
      </trkpt>
      <trkpt lat="44.65504" lon="3.15358">
        <ele>1231</ele>
        <time>2013-07-24T07:41:57Z</time>
      </trkpt>
      <trkpt lat="44.65512" lon="3.15367">
        <ele>1231</ele>
        <time>2013-07-24T07:42:07Z</time>
      </trkpt>
      <trkpt lat="44.65521" lon="3.15377">
        <ele>1229</ele>
        <time>2013-07-24T07:42:16Z</time>
      </trkpt>
      <trkpt lat="44.6553" lon="3.15383">
        <ele>1227</ele>
        <time>2013-07-24T07:42:23Z</time>
      </trkpt>
      <trkpt lat="44.65538" lon="3.1539">
        <ele>1227</ele>
        <time>2013-07-24T07:42:29Z</time>
      </trkpt>
      <trkpt lat="44.65549" lon="3.15397">
        <ele>1228</ele>
        <time>2013-07-24T07:42:35Z</time>
      </trkpt>
      <trkpt lat="44.65556" lon="3.15401">
        <ele>1230</ele>
        <time>2013-07-24T07:42:40Z</time>
      </trkpt>
      <trkpt lat="44.65565" lon="3.15406">
        <ele>1234</ele>
        <time>2013-07-24T07:42:48Z</time>
      </trkpt>
      <trkpt lat="44.65581" lon="3.15415">
        <ele>1243</ele>
        <time>2013-07-24T07:43:04Z</time>
      </trkpt>
      <trkpt lat="44.65584" lon="3.15417">
        <ele>1252</ele>
        <time>2013-07-24T07:46:10Z</time>
      </trkpt>
      <trkpt lat="44.65586" lon="3.15418">
        <ele>1251</ele>
        <time>2013-07-24T07:47:49Z</time>
      </trkpt>
      <trkpt lat="44.65596" lon="3.15423">
        <ele>1251</ele>
        <time>2013-07-24T07:48:08Z</time>
      </trkpt>
      <trkpt lat="44.65605" lon="3.15427">
        <ele>1253</ele>
        <time>2013-07-24T07:48:16Z</time>
      </trkpt>
      <trkpt lat="44.65614" lon="3.1543">
        <ele>1254</ele>
        <time>2013-07-24T07:48:23Z</time>
      </trkpt>
      <trkpt lat="44.65619" lon="3.15432">
        <ele>1254</ele>
        <time>2013-07-24T07:48:26Z</time>
      </trkpt>
      <trkpt lat="44.65623" lon="3.15433">
        <ele>1255</ele>
        <time>2013-07-24T07:48:29Z</time>
      </trkpt>
      <trkpt lat="44.65629" lon="3.15434">
        <ele>1255</ele>
        <time>2013-07-24T07:48:33Z</time>
      </trkpt>
      <trkpt lat="44.65634" lon="3.15435">
        <ele>1254</ele>
        <time>2013-07-24T07:48:36Z</time>
      </trkpt>
      <trkpt lat="44.65639" lon="3.15437">
        <ele>1254</ele>
        <time>2013-07-24T07:48:39Z</time>
      </trkpt>
      <trkpt lat="44.65645" lon="3.15439">
        <ele>1253</ele>
        <time>2013-07-24T07:48:43Z</time>
      </trkpt>
      <trkpt lat="44.65651" lon="3.1544">
        <ele>1254</ele>
        <time>2013-07-24T07:48:47Z</time>
      </trkpt>
      <trkpt lat="44.65656" lon="3.15442">
        <ele>1254</ele>
        <time>2013-07-24T07:48:50Z</time>
      </trkpt>
      <trkpt lat="44.65661" lon="3.15443">
        <ele>1255</ele>
        <time>2013-07-24T07:48:53Z</time>
      </trkpt>
      <trkpt lat="44.65667" lon="3.15444">
        <ele>1256</ele>
        <time>2013-07-24T07:48:57Z</time>
      </trkpt>
      <trkpt lat="44.65672" lon="3.15446">
        <ele>1256</ele>
        <time>2013-07-24T07:49:01Z</time>
      </trkpt>
      <trkpt lat="44.65678" lon="3.15448">
        <ele>1257</ele>
        <time>2013-07-24T07:49:05Z</time>
      </trkpt>
      <trkpt lat="44.65683" lon="3.1545">
        <ele>1257</ele>
        <time>2013-07-24T07:49:09Z</time>
      </trkpt>
      <trkpt lat="44.65689" lon="3.15452">
        <ele>1256</ele>
        <time>2013-07-24T07:49:13Z</time>
      </trkpt>
      <trkpt lat="44.65694" lon="3.15454">
        <ele>1257</ele>
        <time>2013-07-24T07:49:16Z</time>
      </trkpt>
      <trkpt lat="44.65698" lon="3.15456">
        <ele>1257</ele>
        <time>2013-07-24T07:49:19Z</time>
      </trkpt>
      <trkpt lat="44.65703" lon="3.15457">
        <ele>1257</ele>
        <time>2013-07-24T07:49:22Z</time>
      </trkpt>
      <trkpt lat="44.65707" lon="3.1546">
        <ele>1257</ele>
        <time>2013-07-24T07:49:26Z</time>
      </trkpt>
      <trkpt lat="44.65716" lon="3.15466">
        <ele>1257</ele>
        <time>2013-07-24T07:49:33Z</time>
      </trkpt>
      <trkpt lat="44.65726" lon="3.15467">
        <ele>1255</ele>
        <time>2013-07-24T07:49:42Z</time>
      </trkpt>
      <trkpt lat="44.65735" lon="3.15468">
        <ele>1253</ele>
        <time>2013-07-24T07:49:48Z</time>
      </trkpt>
      <trkpt lat="44.65745" lon="3.15471">
        <ele>1252</ele>
        <time>2013-07-24T07:49:55Z</time>
      </trkpt>
      <trkpt lat="44.65755" lon="3.15472">
        <ele>1251</ele>
        <time>2013-07-24T07:50:02Z</time>
      </trkpt>
      <trkpt lat="44.65764" lon="3.15475">
        <ele>1250</ele>
        <time>2013-07-24T07:50:09Z</time>
      </trkpt>
      <trkpt lat="44.65771" lon="3.15479">
        <ele>1251</ele>
        <time>2013-07-24T07:50:15Z</time>
      </trkpt>
      <trkpt lat="44.65778" lon="3.15482">
        <ele>1252</ele>
        <time>2013-07-24T07:50:21Z</time>
      </trkpt>
      <trkpt lat="44.65783" lon="3.15484">
        <ele>1253</ele>
        <time>2013-07-24T07:50:24Z</time>
      </trkpt>
      <trkpt lat="44.65788" lon="3.15486">
        <ele>1253</ele>
        <time>2013-07-24T07:50:29Z</time>
      </trkpt>
      <trkpt lat="44.65797" lon="3.1549">
        <ele>1252</ele>
        <time>2013-07-24T07:50:36Z</time>
      </trkpt>
      <trkpt lat="44.65802" lon="3.15492">
        <ele>1252</ele>
        <time>2013-07-24T07:50:40Z</time>
      </trkpt>
      <trkpt lat="44.65807" lon="3.15494">
        <ele>1251</ele>
        <time>2013-07-24T07:50:44Z</time>
      </trkpt>
      <trkpt lat="44.65812" lon="3.15496">
        <ele>1251</ele>
        <time>2013-07-24T07:50:48Z</time>
      </trkpt>
      <trkpt lat="44.65819" lon="3.15498">
        <ele>1250</ele>
        <time>2013-07-24T07:50:53Z</time>
      </trkpt>
      <trkpt lat="44.65823" lon="3.155">
        <ele>1250</ele>
        <time>2013-07-24T07:50:56Z</time>
      </trkpt>
      <trkpt lat="44.65829" lon="3.15501">
        <ele>1249</ele>
        <time>2013-07-24T07:50:59Z</time>
      </trkpt>
      <trkpt lat="44.65834" lon="3.15503">
        <ele>1249</ele>
        <time>2013-07-24T07:51:02Z</time>
      </trkpt>
      <trkpt lat="44.65838" lon="3.15505">
        <ele>1250</ele>
        <time>2013-07-24T07:51:06Z</time>
      </trkpt>
      <trkpt lat="44.65844" lon="3.15507">
        <ele>1250</ele>
        <time>2013-07-24T07:51:10Z</time>
      </trkpt>
      <trkpt lat="44.65849" lon="3.15509">
        <ele>1250</ele>
        <time>2013-07-24T07:51:13Z</time>
      </trkpt>
      <trkpt lat="44.65853" lon="3.1551">
        <ele>1250</ele>
        <time>2013-07-24T07:51:16Z</time>
      </trkpt>
      <trkpt lat="44.65858" lon="3.15511">
        <ele>1250</ele>
        <time>2013-07-24T07:51:19Z</time>
      </trkpt>
      <trkpt lat="44.65864" lon="3.15512">
        <ele>1250</ele>
        <time>2013-07-24T07:51:23Z</time>
      </trkpt>
      <trkpt lat="44.65869" lon="3.15515">
        <ele>1250</ele>
        <time>2013-07-24T07:51:26Z</time>
      </trkpt>
      <trkpt lat="44.65874" lon="3.15516">
        <ele>1251</ele>
        <time>2013-07-24T07:51:29Z</time>
      </trkpt>
      <trkpt lat="44.65879" lon="3.15518">
        <ele>1251</ele>
        <time>2013-07-24T07:51:32Z</time>
      </trkpt>
      <trkpt lat="44.65884" lon="3.1552">
        <ele>1251</ele>
        <time>2013-07-24T07:51:36Z</time>
      </trkpt>
      <trkpt lat="44.65889" lon="3.15522">
        <ele>1251</ele>
        <time>2013-07-24T07:51:40Z</time>
      </trkpt>
      <trkpt lat="44.65895" lon="3.15525">
        <ele>1251</ele>
        <time>2013-07-24T07:51:44Z</time>
      </trkpt>
      <trkpt lat="44.659" lon="3.15527">
        <ele>1251</ele>
        <time>2013-07-24T07:51:48Z</time>
      </trkpt>
      <trkpt lat="44.65906" lon="3.1553">
        <ele>1251</ele>
        <time>2013-07-24T07:51:52Z</time>
      </trkpt>
      <trkpt lat="44.65911" lon="3.15533">
        <ele>1252</ele>
        <time>2013-07-24T07:51:56Z</time>
      </trkpt>
      <trkpt lat="44.65915" lon="3.15536">
        <ele>1253</ele>
        <time>2013-07-24T07:52:00Z</time>
      </trkpt>
      <trkpt lat="44.65919" lon="3.15539">
        <ele>1253</ele>
        <time>2013-07-24T07:52:03Z</time>
      </trkpt>
      <trkpt lat="44.65927" lon="3.15544">
        <ele>1251</ele>
        <time>2013-07-24T07:52:08Z</time>
      </trkpt>
      <trkpt lat="44.65933" lon="3.15548">
        <ele>1250</ele>
        <time>2013-07-24T07:52:12Z</time>
      </trkpt>
      <trkpt lat="44.65937" lon="3.15551">
        <ele>1249</ele>
        <time>2013-07-24T07:52:15Z</time>
      </trkpt>
      <trkpt lat="44.65942" lon="3.15555">
        <ele>1247</ele>
        <time>2013-07-24T07:52:20Z</time>
      </trkpt>
      <trkpt lat="44.65946" lon="3.15558">
        <ele>1245</ele>
        <time>2013-07-24T07:52:24Z</time>
      </trkpt>
      <trkpt lat="44.6595" lon="3.15562">
        <ele>1243</ele>
        <time>2013-07-24T07:52:28Z</time>
      </trkpt>
      <trkpt lat="44.65955" lon="3.15565">
        <ele>1243</ele>
        <time>2013-07-24T07:52:32Z</time>
      </trkpt>
      <trkpt lat="44.6596" lon="3.15568">
        <ele>1243</ele>
        <time>2013-07-24T07:52:36Z</time>
      </trkpt>
      <trkpt lat="44.65966" lon="3.15572">
        <ele>1242</ele>
        <time>2013-07-24T07:52:40Z</time>
      </trkpt>
      <trkpt lat="44.65971" lon="3.15576">
        <ele>1244</ele>
        <time>2013-07-24T07:52:44Z</time>
      </trkpt>
      <trkpt lat="44.65975" lon="3.1558">
        <ele>1244</ele>
        <time>2013-07-24T07:52:47Z</time>
      </trkpt>
      <trkpt lat="44.65984" lon="3.15586">
        <ele>1245</ele>
        <time>2013-07-24T07:52:53Z</time>
      </trkpt>
      <trkpt lat="44.65992" lon="3.15592">
        <ele>1244</ele>
        <time>2013-07-24T07:52:59Z</time>
      </trkpt>
      <trkpt lat="44.65997" lon="3.15595">
        <ele>1243</ele>
        <time>2013-07-24T07:53:03Z</time>
      </trkpt>
      <trkpt lat="44.66003" lon="3.15598">
        <ele>1243</ele>
        <time>2013-07-24T07:53:08Z</time>
      </trkpt>
      <trkpt lat="44.66007" lon="3.15601">
        <ele>1243</ele>
        <time>2013-07-24T07:53:12Z</time>
      </trkpt>
      <trkpt lat="44.66012" lon="3.15604">
        <ele>1242</ele>
        <time>2013-07-24T07:53:16Z</time>
      </trkpt>
      <trkpt lat="44.66019" lon="3.1561">
        <ele>1241</ele>
        <time>2013-07-24T07:53:21Z</time>
      </trkpt>
      <trkpt lat="44.66028" lon="3.15617">
        <ele>1242</ele>
        <time>2013-07-24T07:53:28Z</time>
      </trkpt>
      <trkpt lat="44.66037" lon="3.15624">
        <ele>1243</ele>
        <time>2013-07-24T07:53:34Z</time>
      </trkpt>
      <trkpt lat="44.66043" lon="3.15628">
        <ele>1243</ele>
        <time>2013-07-24T07:53:38Z</time>
      </trkpt>
      <trkpt lat="44.66048" lon="3.15631">
        <ele>1243</ele>
        <time>2013-07-24T07:53:42Z</time>
      </trkpt>
      <trkpt lat="44.66054" lon="3.15633">
        <ele>1244</ele>
        <time>2013-07-24T07:53:46Z</time>
      </trkpt>
      <trkpt lat="44.66058" lon="3.15636">
        <ele>1244</ele>
        <time>2013-07-24T07:53:49Z</time>
      </trkpt>
      <trkpt lat="44.66063" lon="3.15639">
        <ele>1245</ele>
        <time>2013-07-24T07:53:52Z</time>
      </trkpt>
      <trkpt lat="44.66068" lon="3.15641">
        <ele>1246</ele>
        <time>2013-07-24T07:53:56Z</time>
      </trkpt>
      <trkpt lat="44.66072" lon="3.15643">
        <ele>1247</ele>
        <time>2013-07-24T07:53:59Z</time>
      </trkpt>
      <trkpt lat="44.66077" lon="3.15644">
        <ele>1247</ele>
        <time>2013-07-24T07:54:03Z</time>
      </trkpt>
      <trkpt lat="44.66082" lon="3.15646">
        <ele>1248</ele>
        <time>2013-07-24T07:54:07Z</time>
      </trkpt>
      <trkpt lat="44.66087" lon="3.15647">
        <ele>1247</ele>
        <time>2013-07-24T07:54:10Z</time>
      </trkpt>
      <trkpt lat="44.66092" lon="3.15649">
        <ele>1248</ele>
        <time>2013-07-24T07:54:15Z</time>
      </trkpt>
      <trkpt lat="44.66096" lon="3.15651">
        <ele>1247</ele>
        <time>2013-07-24T07:54:18Z</time>
      </trkpt>
      <trkpt lat="44.66101" lon="3.15655">
        <ele>1246</ele>
        <time>2013-07-24T07:54:21Z</time>
      </trkpt>
      <trkpt lat="44.66105" lon="3.15659">
        <ele>1246</ele>
        <time>2013-07-24T07:54:24Z</time>
      </trkpt>
      <trkpt lat="44.6611" lon="3.15665">
        <ele>1247</ele>
        <time>2013-07-24T07:54:28Z</time>
      </trkpt>
      <trkpt lat="44.66112" lon="3.15672">
        <ele>1247</ele>
        <time>2013-07-24T07:54:32Z</time>
      </trkpt>
      <trkpt lat="44.66114" lon="3.15682">
        <ele>1247</ele>
        <time>2013-07-24T07:54:37Z</time>
      </trkpt>
      <trkpt lat="44.66115" lon="3.15688">
        <ele>1247</ele>
        <time>2013-07-24T07:54:40Z</time>
      </trkpt>
      <trkpt lat="44.66116" lon="3.15694">
        <ele>1246</ele>
        <time>2013-07-24T07:54:43Z</time>
      </trkpt>
      <trkpt lat="44.66117" lon="3.15702">
        <ele>1245</ele>
        <time>2013-07-24T07:54:47Z</time>
      </trkpt>
      <trkpt lat="44.6612" lon="3.15713">
        <ele>1244</ele>
        <time>2013-07-24T07:54:52Z</time>
      </trkpt>
      <trkpt lat="44.66122" lon="3.15719">
        <ele>1245</ele>
        <time>2013-07-24T07:54:55Z</time>
      </trkpt>
      <trkpt lat="44.66124" lon="3.15725">
        <ele>1245</ele>
        <time>2013-07-24T07:54:59Z</time>
      </trkpt>
      <trkpt lat="44.6613" lon="3.15733">
        <ele>1246</ele>
        <time>2013-07-24T07:55:09Z</time>
      </trkpt>
      <trkpt lat="44.66134" lon="3.15739">
        <ele>1247</ele>
        <time>2013-07-24T07:55:12Z</time>
      </trkpt>
      <trkpt lat="44.66138" lon="3.15744">
        <ele>1247</ele>
        <time>2013-07-24T07:55:15Z</time>
      </trkpt>
      <trkpt lat="44.66145" lon="3.15752">
        <ele>1247</ele>
        <time>2013-07-24T07:55:23Z</time>
      </trkpt>
      <trkpt lat="44.66149" lon="3.15756">
        <ele>1246</ele>
        <time>2013-07-24T07:55:26Z</time>
      </trkpt>
      <trkpt lat="44.66152" lon="3.1576">
        <ele>1246</ele>
        <time>2013-07-24T07:55:29Z</time>
      </trkpt>
      <trkpt lat="44.66156" lon="3.15765">
        <ele>1247</ele>
        <time>2013-07-24T07:55:33Z</time>
      </trkpt>
      <trkpt lat="44.6616" lon="3.15769">
        <ele>1247</ele>
        <time>2013-07-24T07:55:37Z</time>
      </trkpt>
      <trkpt lat="44.66165" lon="3.15773">
        <ele>1247</ele>
        <time>2013-07-24T07:55:41Z</time>
      </trkpt>
      <trkpt lat="44.66168" lon="3.15777">
        <ele>1247</ele>
        <time>2013-07-24T07:55:45Z</time>
      </trkpt>
      <trkpt lat="44.66173" lon="3.15782">
        <ele>1246</ele>
        <time>2013-07-24T07:55:49Z</time>
      </trkpt>
      <trkpt lat="44.66177" lon="3.15785">
        <ele>1246</ele>
        <time>2013-07-24T07:55:52Z</time>
      </trkpt>
      <trkpt lat="44.66183" lon="3.15788">
        <ele>1247</ele>
        <time>2013-07-24T07:55:56Z</time>
      </trkpt>
      <trkpt lat="44.66189" lon="3.15792">
        <ele>1248</ele>
        <time>2013-07-24T07:56:01Z</time>
      </trkpt>
      <trkpt lat="44.66194" lon="3.15796">
        <ele>1250</ele>
        <time>2013-07-24T07:56:05Z</time>
      </trkpt>
      <trkpt lat="44.66198" lon="3.158">
        <ele>1251</ele>
        <time>2013-07-24T07:56:09Z</time>
      </trkpt>
      <trkpt lat="44.66203" lon="3.15803">
        <ele>1251</ele>
        <time>2013-07-24T07:56:14Z</time>
      </trkpt>
      <trkpt lat="44.6621" lon="3.15809">
        <ele>1252</ele>
        <time>2013-07-24T07:56:20Z</time>
      </trkpt>
      <trkpt lat="44.66214" lon="3.15813">
        <ele>1252</ele>
        <time>2013-07-24T07:56:24Z</time>
      </trkpt>
      <trkpt lat="44.66218" lon="3.15816">
        <ele>1253</ele>
        <time>2013-07-24T07:56:27Z</time>
      </trkpt>
      <trkpt lat="44.66223" lon="3.15819">
        <ele>1255</ele>
        <time>2013-07-24T07:56:31Z</time>
      </trkpt>
      <trkpt lat="44.66228" lon="3.15822">
        <ele>1255</ele>
        <time>2013-07-24T07:56:35Z</time>
      </trkpt>
      <trkpt lat="44.66232" lon="3.15823">
        <ele>1255</ele>
        <time>2013-07-24T07:56:38Z</time>
      </trkpt>
      <trkpt lat="44.66238" lon="3.15826">
        <ele>1255</ele>
        <time>2013-07-24T07:56:41Z</time>
      </trkpt>
      <trkpt lat="44.66243" lon="3.15829">
        <ele>1255</ele>
        <time>2013-07-24T07:56:44Z</time>
      </trkpt>
      <trkpt lat="44.66252" lon="3.15834">
        <ele>1256</ele>
        <time>2013-07-24T07:56:51Z</time>
      </trkpt>
      <trkpt lat="44.66262" lon="3.15837">
        <ele>1258</ele>
        <time>2013-07-24T07:56:58Z</time>
      </trkpt>
      <trkpt lat="44.66267" lon="3.15839">
        <ele>1259</ele>
        <time>2013-07-24T07:57:02Z</time>
      </trkpt>
      <trkpt lat="44.66272" lon="3.15841">
        <ele>1260</ele>
        <time>2013-07-24T07:57:06Z</time>
      </trkpt>
      <trkpt lat="44.66276" lon="3.15842">
        <ele>1261</ele>
        <time>2013-07-24T07:57:10Z</time>
      </trkpt>
      <trkpt lat="44.66281" lon="3.15844">
        <ele>1260</ele>
        <time>2013-07-24T07:57:14Z</time>
      </trkpt>
      <trkpt lat="44.66286" lon="3.15845">
        <ele>1260</ele>
        <time>2013-07-24T07:57:18Z</time>
      </trkpt>
      <trkpt lat="44.66291" lon="3.15846">
        <ele>1260</ele>
        <time>2013-07-24T07:57:22Z</time>
      </trkpt>
      <trkpt lat="44.66296" lon="3.15847">
        <ele>1260</ele>
        <time>2013-07-24T07:57:25Z</time>
      </trkpt>
      <trkpt lat="44.66305" lon="3.1585">
        <ele>1261</ele>
        <time>2013-07-24T07:57:31Z</time>
      </trkpt>
      <trkpt lat="44.66313" lon="3.15852">
        <ele>1262</ele>
        <time>2013-07-24T07:57:36Z</time>
      </trkpt>
      <trkpt lat="44.66317" lon="3.15852">
        <ele>1262</ele>
        <time>2013-07-24T07:57:39Z</time>
      </trkpt>
      <trkpt lat="44.66327" lon="3.15853">
        <ele>1263</ele>
        <time>2013-07-24T07:57:46Z</time>
      </trkpt>
      <trkpt lat="44.66336" lon="3.15857">
        <ele>1262</ele>
        <time>2013-07-24T07:57:55Z</time>
      </trkpt>
      <trkpt lat="44.66344" lon="3.15862">
        <ele>1261</ele>
        <time>2013-07-24T07:58:00Z</time>
      </trkpt>
      <trkpt lat="44.66349" lon="3.15863">
        <ele>1261</ele>
        <time>2013-07-24T07:58:04Z</time>
      </trkpt>
      <trkpt lat="44.66354" lon="3.15864">
        <ele>1262</ele>
        <time>2013-07-24T07:58:07Z</time>
      </trkpt>
      <trkpt lat="44.66359" lon="3.15865">
        <ele>1264</ele>
        <time>2013-07-24T07:58:10Z</time>
      </trkpt>
      <trkpt lat="44.66364" lon="3.15867">
        <ele>1264</ele>
        <time>2013-07-24T07:58:13Z</time>
      </trkpt>
      <trkpt lat="44.6637" lon="3.1587">
        <ele>1264</ele>
        <time>2013-07-24T07:58:17Z</time>
      </trkpt>
      <trkpt lat="44.66375" lon="3.15872">
        <ele>1264</ele>
        <time>2013-07-24T07:58:20Z</time>
      </trkpt>
      <trkpt lat="44.6638" lon="3.15876">
        <ele>1265</ele>
        <time>2013-07-24T07:58:27Z</time>
      </trkpt>
      <trkpt lat="44.66386" lon="3.15888">
        <ele>1265</ele>
        <time>2013-07-24T07:58:33Z</time>
      </trkpt>
      <trkpt lat="44.6639" lon="3.15897">
        <ele>1264</ele>
        <time>2013-07-24T07:58:38Z</time>
      </trkpt>
      <trkpt lat="44.66392" lon="3.15904">
        <ele>1263</ele>
        <time>2013-07-24T07:58:41Z</time>
      </trkpt>
      <trkpt lat="44.66396" lon="3.15908">
        <ele>1263</ele>
        <time>2013-07-24T07:58:44Z</time>
      </trkpt>
      <trkpt lat="44.66403" lon="3.15914">
        <ele>1265</ele>
        <time>2013-07-24T07:58:50Z</time>
      </trkpt>
      <trkpt lat="44.66407" lon="3.15919">
        <ele>1265</ele>
        <time>2013-07-24T07:58:54Z</time>
      </trkpt>
      <trkpt lat="44.66413" lon="3.15923">
        <ele>1264</ele>
        <time>2013-07-24T07:59:00Z</time>
      </trkpt>
      <trkpt lat="44.66419" lon="3.15925">
        <ele>1263</ele>
        <time>2013-07-24T07:59:04Z</time>
      </trkpt>
      <trkpt lat="44.66423" lon="3.15926">
        <ele>1263</ele>
        <time>2013-07-24T07:59:07Z</time>
      </trkpt>
      <trkpt lat="44.66428" lon="3.15928">
        <ele>1263</ele>
        <time>2013-07-24T07:59:11Z</time>
      </trkpt>
      <trkpt lat="44.66439" lon="3.15931">
        <ele>1258</ele>
        <time>2013-07-24T07:59:25Z</time>
      </trkpt>
      <trkpt lat="44.66449" lon="3.1593">
        <ele>1258</ele>
        <time>2013-07-24T07:59:32Z</time>
      </trkpt>
      <trkpt lat="44.66459" lon="3.15934">
        <ele>1257</ele>
        <time>2013-07-24T07:59:39Z</time>
      </trkpt>
      <trkpt lat="44.66468" lon="3.15936">
        <ele>1254</ele>
        <time>2013-07-24T07:59:45Z</time>
      </trkpt>
      <trkpt lat="44.66479" lon="3.15937">
        <ele>1252</ele>
        <time>2013-07-24T07:59:52Z</time>
      </trkpt>
      <trkpt lat="44.66489" lon="3.15936">
        <ele>1249</ele>
        <time>2013-07-24T07:59:59Z</time>
      </trkpt>
      <trkpt lat="44.66499" lon="3.15936">
        <ele>1244</ele>
        <time>2013-07-24T08:00:07Z</time>
      </trkpt>
      <trkpt lat="44.66508" lon="3.15939">
        <ele>1241</ele>
        <time>2013-07-24T08:00:14Z</time>
      </trkpt>
      <trkpt lat="44.6652" lon="3.15942">
        <ele>1243</ele>
        <time>2013-07-24T08:00:24Z</time>
      </trkpt>
      <trkpt lat="44.66529" lon="3.15943">
        <ele>1244</ele>
        <time>2013-07-24T08:00:29Z</time>
      </trkpt>
      <trkpt lat="44.66539" lon="3.15944">
        <ele>1244</ele>
        <time>2013-07-24T08:00:33Z</time>
      </trkpt>
      <trkpt lat="44.6655" lon="3.15945">
        <ele>1246</ele>
        <time>2013-07-24T08:00:39Z</time>
      </trkpt>
      <trkpt lat="44.66559" lon="3.15948">
        <ele>1251</ele>
        <time>2013-07-24T08:00:44Z</time>
      </trkpt>
      <trkpt lat="44.66568" lon="3.15953">
        <ele>1253</ele>
        <time>2013-07-24T08:00:50Z</time>
      </trkpt>
      <trkpt lat="44.66578" lon="3.15957">
        <ele>1259</ele>
        <time>2013-07-24T08:00:59Z</time>
      </trkpt>
      <trkpt lat="44.66585" lon="3.15958">
        <ele>1261</ele>
        <time>2013-07-24T08:01:03Z</time>
      </trkpt>
      <trkpt lat="44.66594" lon="3.15958">
        <ele>1264</ele>
        <time>2013-07-24T08:01:09Z</time>
      </trkpt>
      <trkpt lat="44.66604" lon="3.15957">
        <ele>1264</ele>
        <time>2013-07-24T08:01:14Z</time>
      </trkpt>
      <trkpt lat="44.66615" lon="3.15958">
        <ele>1265</ele>
        <time>2013-07-24T08:01:20Z</time>
      </trkpt>
      <trkpt lat="44.66623" lon="3.15958">
        <ele>1265</ele>
        <time>2013-07-24T08:01:25Z</time>
      </trkpt>
      <trkpt lat="44.66628" lon="3.15957">
        <ele>1264</ele>
        <time>2013-07-24T08:01:29Z</time>
      </trkpt>
      <trkpt lat="44.66635" lon="3.15956">
        <ele>1263</ele>
        <time>2013-07-24T08:01:33Z</time>
      </trkpt>
      <trkpt lat="44.6664" lon="3.15955">
        <ele>1263</ele>
        <time>2013-07-24T08:01:37Z</time>
      </trkpt>
      <trkpt lat="44.66646" lon="3.15956">
        <ele>1262</ele>
        <time>2013-07-24T08:01:41Z</time>
      </trkpt>
      <trkpt lat="44.66652" lon="3.15958">
        <ele>1261</ele>
        <time>2013-07-24T08:01:45Z</time>
      </trkpt>
      <trkpt lat="44.66661" lon="3.1596">
        <ele>1260</ele>
        <time>2013-07-24T08:01:52Z</time>
      </trkpt>
      <trkpt lat="44.66671" lon="3.15964">
        <ele>1259</ele>
        <time>2013-07-24T08:01:59Z</time>
      </trkpt>
      <trkpt lat="44.66682" lon="3.15967">
        <ele>1260</ele>
        <time>2013-07-24T08:02:05Z</time>
      </trkpt>
      <trkpt lat="44.66687" lon="3.15968">
        <ele>1261</ele>
        <time>2013-07-24T08:02:08Z</time>
      </trkpt>
      <trkpt lat="44.66697" lon="3.15972">
        <ele>1262</ele>
        <time>2013-07-24T08:02:16Z</time>
      </trkpt>
      <trkpt lat="44.66705" lon="3.15976">
        <ele>1262</ele>
        <time>2013-07-24T08:02:22Z</time>
      </trkpt>
      <trkpt lat="44.66715" lon="3.15977">
        <ele>1262</ele>
        <time>2013-07-24T08:02:29Z</time>
      </trkpt>
      <trkpt lat="44.66725" lon="3.15978">
        <ele>1260</ele>
        <time>2013-07-24T08:02:35Z</time>
      </trkpt>
      <trkpt lat="44.66735" lon="3.15979">
        <ele>1260</ele>
        <time>2013-07-24T08:02:42Z</time>
      </trkpt>
      <trkpt lat="44.66744" lon="3.1598">
        <ele>1258</ele>
        <time>2013-07-24T08:02:49Z</time>
      </trkpt>
      <trkpt lat="44.66754" lon="3.15981">
        <ele>1256</ele>
        <time>2013-07-24T08:02:55Z</time>
      </trkpt>
      <trkpt lat="44.66766" lon="3.15982">
        <ele>1255</ele>
        <time>2013-07-24T08:03:01Z</time>
      </trkpt>
      <trkpt lat="44.66775" lon="3.15984">
        <ele>1253</ele>
        <time>2013-07-24T08:03:07Z</time>
      </trkpt>
      <trkpt lat="44.66785" lon="3.15987">
        <ele>1254</ele>
        <time>2013-07-24T08:03:13Z</time>
      </trkpt>
      <trkpt lat="44.66794" lon="3.15989">
        <ele>1255</ele>
        <time>2013-07-24T08:03:18Z</time>
      </trkpt>
      <trkpt lat="44.66803" lon="3.15992">
        <ele>1257</ele>
        <time>2013-07-24T08:03:24Z</time>
      </trkpt>
      <trkpt lat="44.66813" lon="3.15996">
        <ele>1257</ele>
        <time>2013-07-24T08:03:31Z</time>
      </trkpt>
      <trkpt lat="44.66822" lon="3.16003">
        <ele>1258</ele>
        <time>2013-07-24T08:03:38Z</time>
      </trkpt>
      <trkpt lat="44.6683" lon="3.16012">
        <ele>1258</ele>
        <time>2013-07-24T08:03:44Z</time>
      </trkpt>
      <trkpt lat="44.66834" lon="3.16018">
        <ele>1259</ele>
        <time>2013-07-24T08:03:48Z</time>
      </trkpt>
      <trkpt lat="44.66836" lon="3.16024">
        <ele>1260</ele>
        <time>2013-07-24T08:03:51Z</time>
      </trkpt>
      <trkpt lat="44.6684" lon="3.16029">
        <ele>1261</ele>
        <time>2013-07-24T08:03:55Z</time>
      </trkpt>
      <trkpt lat="44.66844" lon="3.16033">
        <ele>1261</ele>
        <time>2013-07-24T08:03:58Z</time>
      </trkpt>
      <trkpt lat="44.66847" lon="3.16038">
        <ele>1262</ele>
        <time>2013-07-24T08:04:01Z</time>
      </trkpt>
      <trkpt lat="44.66852" lon="3.16044">
        <ele>1262</ele>
        <time>2013-07-24T08:04:05Z</time>
      </trkpt>
      <trkpt lat="44.66855" lon="3.1605">
        <ele>1262</ele>
        <time>2013-07-24T08:04:09Z</time>
      </trkpt>
      <trkpt lat="44.66859" lon="3.16055">
        <ele>1263</ele>
        <time>2013-07-24T08:04:12Z</time>
      </trkpt>
      <trkpt lat="44.66862" lon="3.1606">
        <ele>1263</ele>
        <time>2013-07-24T08:04:15Z</time>
      </trkpt>
      <trkpt lat="44.66865" lon="3.16066">
        <ele>1263</ele>
        <time>2013-07-24T08:04:18Z</time>
      </trkpt>
      <trkpt lat="44.66869" lon="3.16072">
        <ele>1263</ele>
        <time>2013-07-24T08:04:21Z</time>
      </trkpt>
      <trkpt lat="44.66872" lon="3.16077">
        <ele>1262</ele>
        <time>2013-07-24T08:04:24Z</time>
      </trkpt>
      <trkpt lat="44.66876" lon="3.16082">
        <ele>1262</ele>
        <time>2013-07-24T08:04:28Z</time>
      </trkpt>
      <trkpt lat="44.66879" lon="3.16087">
        <ele>1263</ele>
        <time>2013-07-24T08:04:31Z</time>
      </trkpt>
      <trkpt lat="44.66884" lon="3.16092">
        <ele>1265</ele>
        <time>2013-07-24T08:04:35Z</time>
      </trkpt>
      <trkpt lat="44.66888" lon="3.16096">
        <ele>1265</ele>
        <time>2013-07-24T08:04:39Z</time>
      </trkpt>
      <trkpt lat="44.66891" lon="3.161">
        <ele>1265</ele>
        <time>2013-07-24T08:04:42Z</time>
      </trkpt>
      <trkpt lat="44.66898" lon="3.1611">
        <ele>1264</ele>
        <time>2013-07-24T08:04:49Z</time>
      </trkpt>
      <trkpt lat="44.66903" lon="3.16116">
        <ele>1264</ele>
        <time>2013-07-24T08:04:53Z</time>
      </trkpt>
      <trkpt lat="44.66906" lon="3.16121">
        <ele>1263</ele>
        <time>2013-07-24T08:04:56Z</time>
      </trkpt>
      <trkpt lat="44.6691" lon="3.16126">
        <ele>1261</ele>
        <time>2013-07-24T08:04:59Z</time>
      </trkpt>
      <trkpt lat="44.66914" lon="3.1613">
        <ele>1259</ele>
        <time>2013-07-24T08:05:03Z</time>
      </trkpt>
      <trkpt lat="44.66918" lon="3.16136">
        <ele>1258</ele>
        <time>2013-07-24T08:05:07Z</time>
      </trkpt>
      <trkpt lat="44.66923" lon="3.16142">
        <ele>1259</ele>
        <time>2013-07-24T08:05:12Z</time>
      </trkpt>
      <trkpt lat="44.66926" lon="3.16146">
        <ele>1258</ele>
        <time>2013-07-24T08:05:15Z</time>
      </trkpt>
      <trkpt lat="44.6693" lon="3.16151">
        <ele>1258</ele>
        <time>2013-07-24T08:05:18Z</time>
      </trkpt>
      <trkpt lat="44.66936" lon="3.16158">
        <ele>1258</ele>
        <time>2013-07-24T08:05:22Z</time>
      </trkpt>
      <trkpt lat="44.6694" lon="3.16163">
        <ele>1259</ele>
        <time>2013-07-24T08:05:25Z</time>
      </trkpt>
      <trkpt lat="44.66944" lon="3.16166">
        <ele>1259</ele>
        <time>2013-07-24T08:05:28Z</time>
      </trkpt>
      <trkpt lat="44.66951" lon="3.16174">
        <ele>1260</ele>
        <time>2013-07-24T08:05:33Z</time>
      </trkpt>
      <trkpt lat="44.6696" lon="3.16183">
        <ele>1261</ele>
        <time>2013-07-24T08:05:39Z</time>
      </trkpt>
      <trkpt lat="44.66964" lon="3.16187">
        <ele>1261</ele>
        <time>2013-07-24T08:05:42Z</time>
      </trkpt>
      <trkpt lat="44.66969" lon="3.16192">
        <ele>1261</ele>
        <time>2013-07-24T08:05:46Z</time>
      </trkpt>
      <trkpt lat="44.66973" lon="3.16197">
        <ele>1262</ele>
        <time>2013-07-24T08:05:50Z</time>
      </trkpt>
      <trkpt lat="44.66976" lon="3.16202">
        <ele>1262</ele>
        <time>2013-07-24T08:05:53Z</time>
      </trkpt>
      <trkpt lat="44.66982" lon="3.1621">
        <ele>1262</ele>
        <time>2013-07-24T08:06:00Z</time>
      </trkpt>
      <trkpt lat="44.66987" lon="3.16215">
        <ele>1263</ele>
        <time>2013-07-24T08:06:02Z</time>
      </trkpt>
      <trkpt lat="44.6699" lon="3.16221">
        <ele>1263</ele>
        <time>2013-07-24T08:06:06Z</time>
      </trkpt>
      <trkpt lat="44.66995" lon="3.16231">
        <ele>1261</ele>
        <time>2013-07-24T08:06:12Z</time>
      </trkpt>
      <trkpt lat="44.66999" lon="3.16236">
        <ele>1259</ele>
        <time>2013-07-24T08:06:15Z</time>
      </trkpt>
      <trkpt lat="44.67003" lon="3.1624">
        <ele>1259</ele>
        <time>2013-07-24T08:06:18Z</time>
      </trkpt>
      <trkpt lat="44.67006" lon="3.16244">
        <ele>1258</ele>
        <time>2013-07-24T08:06:22Z</time>
      </trkpt>
      <trkpt lat="44.6701" lon="3.1625">
        <ele>1257</ele>
        <time>2013-07-24T08:06:27Z</time>
      </trkpt>
      <trkpt lat="44.67016" lon="3.16257">
        <ele>1257</ele>
        <time>2013-07-24T08:06:32Z</time>
      </trkpt>
      <trkpt lat="44.6702" lon="3.1626">
        <ele>1257</ele>
        <time>2013-07-24T08:06:35Z</time>
      </trkpt>
      <trkpt lat="44.67024" lon="3.16264">
        <ele>1257</ele>
        <time>2013-07-24T08:06:38Z</time>
      </trkpt>
      <trkpt lat="44.67029" lon="3.16269">
        <ele>1257</ele>
        <time>2013-07-24T08:06:41Z</time>
      </trkpt>
      <trkpt lat="44.67033" lon="3.16272">
        <ele>1257</ele>
        <time>2013-07-24T08:06:44Z</time>
      </trkpt>
      <trkpt lat="44.67038" lon="3.16282">
        <ele>1259</ele>
        <time>2013-07-24T08:06:49Z</time>
      </trkpt>
      <trkpt lat="44.67043" lon="3.16292">
        <ele>1257</ele>
        <time>2013-07-24T08:06:55Z</time>
      </trkpt>
      <trkpt lat="44.67048" lon="3.16299">
        <ele>1257</ele>
        <time>2013-07-24T08:07:00Z</time>
      </trkpt>
      <trkpt lat="44.67052" lon="3.16306">
        <ele>1257</ele>
        <time>2013-07-24T08:07:04Z</time>
      </trkpt>
      <trkpt lat="44.67055" lon="3.1631">
        <ele>1256</ele>
        <time>2013-07-24T08:07:07Z</time>
      </trkpt>
      <trkpt lat="44.6706" lon="3.16315">
        <ele>1255</ele>
        <time>2013-07-24T08:07:11Z</time>
      </trkpt>
      <trkpt lat="44.67068" lon="3.16322">
        <ele>1255</ele>
        <time>2013-07-24T08:07:17Z</time>
      </trkpt>
      <trkpt lat="44.67075" lon="3.1633">
        <ele>1254</ele>
        <time>2013-07-24T08:07:24Z</time>
      </trkpt>
      <trkpt lat="44.67083" lon="3.16339">
        <ele>1250</ele>
        <time>2013-07-24T08:07:32Z</time>
      </trkpt>
      <trkpt lat="44.6709" lon="3.16349">
        <ele>1249</ele>
        <time>2013-07-24T08:07:46Z</time>
      </trkpt>
      <trkpt lat="44.67097" lon="3.16359">
        <ele>1250</ele>
        <time>2013-07-24T08:07:51Z</time>
      </trkpt>
      <trkpt lat="44.67103" lon="3.16369">
        <ele>1251</ele>
        <time>2013-07-24T08:07:57Z</time>
      </trkpt>
      <trkpt lat="44.6711" lon="3.16378">
        <ele>1251</ele>
        <time>2013-07-24T08:08:05Z</time>
      </trkpt>
      <trkpt lat="44.67115" lon="3.16384">
        <ele>1250</ele>
        <time>2013-07-24T08:08:09Z</time>
      </trkpt>
      <trkpt lat="44.67124" lon="3.16391">
        <ele>1249</ele>
        <time>2013-07-24T08:08:14Z</time>
      </trkpt>
      <trkpt lat="44.67128" lon="3.16394">
        <ele>1250</ele>
        <time>2013-07-24T08:08:17Z</time>
      </trkpt>
      <trkpt lat="44.67133" lon="3.16399">
        <ele>1251</ele>
        <time>2013-07-24T08:08:21Z</time>
      </trkpt>
      <trkpt lat="44.67141" lon="3.16405">
        <ele>1253</ele>
        <time>2013-07-24T08:08:26Z</time>
      </trkpt>
      <trkpt lat="44.67144" lon="3.16409">
        <ele>1252</ele>
        <time>2013-07-24T08:08:29Z</time>
      </trkpt>
      <trkpt lat="44.67152" lon="3.16417">
        <ele>1255</ele>
        <time>2013-07-24T08:08:35Z</time>
      </trkpt>
      <trkpt lat="44.6716" lon="3.16426">
        <ele>1257</ele>
        <time>2013-07-24T08:08:42Z</time>
      </trkpt>
      <trkpt lat="44.67164" lon="3.16431">
        <ele>1257</ele>
        <time>2013-07-24T08:08:45Z</time>
      </trkpt>
      <trkpt lat="44.67167" lon="3.16434">
        <ele>1258</ele>
        <time>2013-07-24T08:08:48Z</time>
      </trkpt>
      <trkpt lat="44.67172" lon="3.16439">
        <ele>1260</ele>
        <time>2013-07-24T08:08:52Z</time>
      </trkpt>
      <trkpt lat="44.67177" lon="3.16442">
        <ele>1260</ele>
        <time>2013-07-24T08:08:56Z</time>
      </trkpt>
      <trkpt lat="44.67182" lon="3.16442">
        <ele>1259</ele>
        <time>2013-07-24T08:09:00Z</time>
      </trkpt>
      <trkpt lat="44.67191" lon="3.16437">
        <ele>1260</ele>
        <time>2013-07-24T08:09:07Z</time>
      </trkpt>
      <trkpt lat="44.67195" lon="3.16434">
        <ele>1259</ele>
        <time>2013-07-24T08:09:10Z</time>
      </trkpt>
      <trkpt lat="44.672" lon="3.16432">
        <ele>1258</ele>
        <time>2013-07-24T08:09:14Z</time>
      </trkpt>
      <trkpt lat="44.67205" lon="3.16431">
        <ele>1258</ele>
        <time>2013-07-24T08:09:17Z</time>
      </trkpt>
      <trkpt lat="44.6721" lon="3.16429">
        <ele>1257</ele>
        <time>2013-07-24T08:09:20Z</time>
      </trkpt>
      <trkpt lat="44.67214" lon="3.16427">
        <ele>1257</ele>
        <time>2013-07-24T08:09:23Z</time>
      </trkpt>
      <trkpt lat="44.67221" lon="3.16421">
        <ele>1257</ele>
        <time>2013-07-24T08:09:28Z</time>
      </trkpt>
      <trkpt lat="44.67227" lon="3.16419">
        <ele>1257</ele>
        <time>2013-07-24T08:09:32Z</time>
      </trkpt>
      <trkpt lat="44.67232" lon="3.16416">
        <ele>1258</ele>
        <time>2013-07-24T08:09:36Z</time>
      </trkpt>
      <trkpt lat="44.67237" lon="3.16414">
        <ele>1258</ele>
        <time>2013-07-24T08:09:39Z</time>
      </trkpt>
      <trkpt lat="44.67243" lon="3.16412">
        <ele>1258</ele>
        <time>2013-07-24T08:09:43Z</time>
      </trkpt>
      <trkpt lat="44.67247" lon="3.16409">
        <ele>1257</ele>
        <time>2013-07-24T08:09:46Z</time>
      </trkpt>
      <trkpt lat="44.67251" lon="3.16407">
        <ele>1257</ele>
        <time>2013-07-24T08:09:49Z</time>
      </trkpt>
      <trkpt lat="44.67256" lon="3.16403">
        <ele>1257</ele>
        <time>2013-07-24T08:09:52Z</time>
      </trkpt>
      <trkpt lat="44.67262" lon="3.16401">
        <ele>1257</ele>
        <time>2013-07-24T08:09:55Z</time>
      </trkpt>
      <trkpt lat="44.67267" lon="3.16399">
        <ele>1257</ele>
        <time>2013-07-24T08:09:59Z</time>
      </trkpt>
      <trkpt lat="44.67273" lon="3.16398">
        <ele>1258</ele>
        <time>2013-07-24T08:10:04Z</time>
      </trkpt>
      <trkpt lat="44.67277" lon="3.16398">
        <ele>1257</ele>
        <time>2013-07-24T08:10:08Z</time>
      </trkpt>
      <trkpt lat="44.67282" lon="3.16396">
        <ele>1257</ele>
        <time>2013-07-24T08:10:12Z</time>
      </trkpt>
      <trkpt lat="44.67287" lon="3.16395">
        <ele>1256</ele>
        <time>2013-07-24T08:10:15Z</time>
      </trkpt>
      <trkpt lat="44.67292" lon="3.16394">
        <ele>1255</ele>
        <time>2013-07-24T08:10:18Z</time>
      </trkpt>
      <trkpt lat="44.67297" lon="3.16393">
        <ele>1255</ele>
        <time>2013-07-24T08:10:21Z</time>
      </trkpt>
      <trkpt lat="44.67302" lon="3.16391">
        <ele>1255</ele>
        <time>2013-07-24T08:10:24Z</time>
      </trkpt>
      <trkpt lat="44.67312" lon="3.16387">
        <ele>1255</ele>
        <time>2013-07-24T08:10:31Z</time>
      </trkpt>
      <trkpt lat="44.67317" lon="3.16385">
        <ele>1256</ele>
        <time>2013-07-24T08:10:34Z</time>
      </trkpt>
      <trkpt lat="44.67321" lon="3.16382">
        <ele>1256</ele>
        <time>2013-07-24T08:10:37Z</time>
      </trkpt>
      <trkpt lat="44.67326" lon="3.16378">
        <ele>1256</ele>
        <time>2013-07-24T08:10:41Z</time>
      </trkpt>
      <trkpt lat="44.67331" lon="3.16377">
        <ele>1255</ele>
        <time>2013-07-24T08:10:45Z</time>
      </trkpt>
      <trkpt lat="44.67336" lon="3.16375">
        <ele>1255</ele>
        <time>2013-07-24T08:10:49Z</time>
      </trkpt>
      <trkpt lat="44.67341" lon="3.16373">
        <ele>1255</ele>
        <time>2013-07-24T08:10:52Z</time>
      </trkpt>
      <trkpt lat="44.67345" lon="3.16373">
        <ele>1254</ele>
        <time>2013-07-24T08:10:56Z</time>
      </trkpt>
      <trkpt lat="44.67353" lon="3.16372">
        <ele>1253</ele>
        <time>2013-07-24T08:11:01Z</time>
      </trkpt>
      <trkpt lat="44.67358" lon="3.16371">
        <ele>1253</ele>
        <time>2013-07-24T08:11:07Z</time>
      </trkpt>
      <trkpt lat="44.67362" lon="3.16373">
        <ele>1253</ele>
        <time>2013-07-24T08:11:10Z</time>
      </trkpt>
      <trkpt lat="44.67366" lon="3.16379">
        <ele>1253</ele>
        <time>2013-07-24T08:11:13Z</time>
      </trkpt>
      <trkpt lat="44.6737" lon="3.16385">
        <ele>1253</ele>
        <time>2013-07-24T08:11:16Z</time>
      </trkpt>
      <trkpt lat="44.67373" lon="3.16391">
        <ele>1253</ele>
        <time>2013-07-24T08:11:19Z</time>
      </trkpt>
      <trkpt lat="44.67376" lon="3.16397">
        <ele>1253</ele>
        <time>2013-07-24T08:11:23Z</time>
      </trkpt>
      <trkpt lat="44.6738" lon="3.164">
        <ele>1253</ele>
        <time>2013-07-24T08:11:27Z</time>
      </trkpt>
      <trkpt lat="44.67383" lon="3.16406">
        <ele>1252</ele>
        <time>2013-07-24T08:11:31Z</time>
      </trkpt>
      <trkpt lat="44.67386" lon="3.16413">
        <ele>1250</ele>
        <time>2013-07-24T08:11:37Z</time>
      </trkpt>
      <trkpt lat="44.67388" lon="3.16418">
        <ele>1249</ele>
        <time>2013-07-24T08:11:40Z</time>
      </trkpt>
      <trkpt lat="44.67391" lon="3.16426">
        <ele>1248</ele>
        <time>2013-07-24T08:11:44Z</time>
      </trkpt>
      <trkpt lat="44.67394" lon="3.16433">
        <ele>1247</ele>
        <time>2013-07-24T08:11:48Z</time>
      </trkpt>
      <trkpt lat="44.67396" lon="3.1644">
        <ele>1247</ele>
        <time>2013-07-24T08:11:51Z</time>
      </trkpt>
      <trkpt lat="44.67399" lon="3.16446">
        <ele>1246</ele>
        <time>2013-07-24T08:11:55Z</time>
      </trkpt>
      <trkpt lat="44.67401" lon="3.16453">
        <ele>1245</ele>
        <time>2013-07-24T08:11:59Z</time>
      </trkpt>
      <trkpt lat="44.67404" lon="3.16459">
        <ele>1245</ele>
        <time>2013-07-24T08:12:02Z</time>
      </trkpt>
      <trkpt lat="44.67408" lon="3.16468">
        <ele>1244</ele>
        <time>2013-07-24T08:12:07Z</time>
      </trkpt>
      <trkpt lat="44.6741" lon="3.16474">
        <ele>1244</ele>
        <time>2013-07-24T08:12:11Z</time>
      </trkpt>
      <trkpt lat="44.67413" lon="3.16483">
        <ele>1241</ele>
        <time>2013-07-24T08:12:17Z</time>
      </trkpt>
      <trkpt lat="44.67415" lon="3.16489">
        <ele>1240</ele>
        <time>2013-07-24T08:12:21Z</time>
      </trkpt>
      <trkpt lat="44.67418" lon="3.16494">
        <ele>1239</ele>
        <time>2013-07-24T08:12:25Z</time>
      </trkpt>
      <trkpt lat="44.6742" lon="3.16499">
        <ele>1239</ele>
        <time>2013-07-24T08:12:28Z</time>
      </trkpt>
      <trkpt lat="44.67424" lon="3.16507">
        <ele>1238</ele>
        <time>2013-07-24T08:12:33Z</time>
      </trkpt>
      <trkpt lat="44.67426" lon="3.16513">
        <ele>1238</ele>
        <time>2013-07-24T08:12:36Z</time>
      </trkpt>
      <trkpt lat="44.67431" lon="3.16525">
        <ele>1237</ele>
        <time>2013-07-24T08:12:44Z</time>
      </trkpt>
      <trkpt lat="44.67433" lon="3.16531">
        <ele>1237</ele>
        <time>2013-07-24T08:12:47Z</time>
      </trkpt>
      <trkpt lat="44.67434" lon="3.16537">
        <ele>1237</ele>
        <time>2013-07-24T08:12:50Z</time>
      </trkpt>
      <trkpt lat="44.67436" lon="3.16545">
        <ele>1237</ele>
        <time>2013-07-24T08:12:54Z</time>
      </trkpt>
      <trkpt lat="44.67437" lon="3.16552">
        <ele>1238</ele>
        <time>2013-07-24T08:12:59Z</time>
      </trkpt>
      <trkpt lat="44.67438" lon="3.16559">
        <ele>1238</ele>
        <time>2013-07-24T08:13:02Z</time>
      </trkpt>
      <trkpt lat="44.67439" lon="3.16565">
        <ele>1238</ele>
        <time>2013-07-24T08:13:05Z</time>
      </trkpt>
      <trkpt lat="44.6744" lon="3.16571">
        <ele>1238</ele>
        <time>2013-07-24T08:13:09Z</time>
      </trkpt>
      <trkpt lat="44.67441" lon="3.16578">
        <ele>1237</ele>
        <time>2013-07-24T08:13:12Z</time>
      </trkpt>
      <trkpt lat="44.67442" lon="3.16585">
        <ele>1235</ele>
        <time>2013-07-24T08:13:16Z</time>
      </trkpt>
      <trkpt lat="44.67442" lon="3.16592">
        <ele>1232</ele>
        <time>2013-07-24T08:13:20Z</time>
      </trkpt>
      <trkpt lat="44.67444" lon="3.16599">
        <ele>1231</ele>
        <time>2013-07-24T08:13:24Z</time>
      </trkpt>
      <trkpt lat="44.67445" lon="3.16606">
        <ele>1229</ele>
        <time>2013-07-24T08:13:28Z</time>
      </trkpt>
      <trkpt lat="44.67446" lon="3.16612">
        <ele>1227</ele>
        <time>2013-07-24T08:13:37Z</time>
      </trkpt>
      <trkpt lat="44.67444" lon="3.16625">
        <ele>1225</ele>
        <time>2013-07-24T08:13:46Z</time>
      </trkpt>
      <trkpt lat="44.67444" lon="3.16632">
        <ele>1224</ele>
        <time>2013-07-24T08:13:49Z</time>
      </trkpt>
      <trkpt lat="44.67443" lon="3.16638">
        <ele>1224</ele>
        <time>2013-07-24T08:13:53Z</time>
      </trkpt>
      <trkpt lat="44.67442" lon="3.16646">
        <ele>1225</ele>
        <time>2013-07-24T08:13:57Z</time>
      </trkpt>
      <trkpt lat="44.67441" lon="3.16653">
        <ele>1224</ele>
        <time>2013-07-24T08:14:00Z</time>
      </trkpt>
      <trkpt lat="44.6744" lon="3.16663">
        <ele>1221</ele>
        <time>2013-07-24T08:14:05Z</time>
      </trkpt>
      <trkpt lat="44.67441" lon="3.16673">
        <ele>1218</ele>
        <time>2013-07-24T08:14:11Z</time>
      </trkpt>
      <trkpt lat="44.6744" lon="3.1668">
        <ele>1217</ele>
        <time>2013-07-24T08:14:14Z</time>
      </trkpt>
      <trkpt lat="44.6744" lon="3.16688">
        <ele>1215</ele>
        <time>2013-07-24T08:14:18Z</time>
      </trkpt>
      <trkpt lat="44.6744" lon="3.16696">
        <ele>1213</ele>
        <time>2013-07-24T08:14:22Z</time>
      </trkpt>
      <trkpt lat="44.67438" lon="3.16708">
        <ele>1209</ele>
        <time>2013-07-24T08:14:29Z</time>
      </trkpt>
      <trkpt lat="44.67436" lon="3.16715">
        <ele>1209</ele>
        <time>2013-07-24T08:14:32Z</time>
      </trkpt>
      <trkpt lat="44.67436" lon="3.16731">
        <ele>1203</ele>
        <time>2013-07-24T08:14:47Z</time>
      </trkpt>
      <trkpt lat="44.67434" lon="3.16746">
        <ele>1202</ele>
        <time>2013-07-24T08:14:53Z</time>
      </trkpt>
      <trkpt lat="44.67433" lon="3.16753">
        <ele>1202</ele>
        <time>2013-07-24T08:14:56Z</time>
      </trkpt>
      <trkpt lat="44.67431" lon="3.16759">
        <ele>1203</ele>
        <time>2013-07-24T08:14:59Z</time>
      </trkpt>
      <trkpt lat="44.6743" lon="3.16766">
        <ele>1204</ele>
        <time>2013-07-24T08:15:03Z</time>
      </trkpt>
      <trkpt lat="44.67427" lon="3.16788">
        <ele>1211</ele>
        <time>2013-07-24T08:15:16Z</time>
      </trkpt>
      <trkpt lat="44.67426" lon="3.16795">
        <ele>1212</ele>
        <time>2013-07-24T08:15:19Z</time>
      </trkpt>
      <trkpt lat="44.67425" lon="3.16802">
        <ele>1214</ele>
        <time>2013-07-24T08:15:23Z</time>
      </trkpt>
      <trkpt lat="44.67425" lon="3.16813">
        <ele>1216</ele>
        <time>2013-07-24T08:15:29Z</time>
      </trkpt>
      <trkpt lat="44.67427" lon="3.16819">
        <ele>1217</ele>
        <time>2013-07-24T08:15:32Z</time>
      </trkpt>
      <trkpt lat="44.67429" lon="3.16825">
        <ele>1217</ele>
        <time>2013-07-24T08:15:36Z</time>
      </trkpt>
      <trkpt lat="44.67432" lon="3.16832">
        <ele>1217</ele>
        <time>2013-07-24T08:15:40Z</time>
      </trkpt>
      <trkpt lat="44.67435" lon="3.16838">
        <ele>1217</ele>
        <time>2013-07-24T08:15:44Z</time>
      </trkpt>
      <trkpt lat="44.67438" lon="3.16845">
        <ele>1217</ele>
        <time>2013-07-24T08:15:48Z</time>
      </trkpt>
      <trkpt lat="44.67441" lon="3.1685">
        <ele>1217</ele>
        <time>2013-07-24T08:15:51Z</time>
      </trkpt>
      <trkpt lat="44.67445" lon="3.16855">
        <ele>1217</ele>
        <time>2013-07-24T08:15:55Z</time>
      </trkpt>
      <trkpt lat="44.67449" lon="3.16859">
        <ele>1215</ele>
        <time>2013-07-24T08:15:59Z</time>
      </trkpt>
      <trkpt lat="44.67454" lon="3.1686">
        <ele>1213</ele>
        <time>2013-07-24T08:16:03Z</time>
      </trkpt>
      <trkpt lat="44.67461" lon="3.16858">
        <ele>1211</ele>
        <time>2013-07-24T08:16:08Z</time>
      </trkpt>
      <trkpt lat="44.67465" lon="3.16855">
        <ele>1209</ele>
        <time>2013-07-24T08:16:11Z</time>
      </trkpt>
      <trkpt lat="44.6747" lon="3.16852">
        <ele>1209</ele>
        <time>2013-07-24T08:16:14Z</time>
      </trkpt>
      <trkpt lat="44.67476" lon="3.16847">
        <ele>1207</ele>
        <time>2013-07-24T08:16:19Z</time>
      </trkpt>
      <trkpt lat="44.67479" lon="3.16843">
        <ele>1207</ele>
        <time>2013-07-24T08:16:23Z</time>
      </trkpt>
      <trkpt lat="44.67483" lon="3.16838">
        <ele>1206</ele>
        <time>2013-07-24T08:16:27Z</time>
      </trkpt>
      <trkpt lat="44.67486" lon="3.16833">
        <ele>1205</ele>
        <time>2013-07-24T08:16:30Z</time>
      </trkpt>
      <trkpt lat="44.67489" lon="3.16827">
        <ele>1203</ele>
        <time>2013-07-24T08:16:34Z</time>
      </trkpt>
      <trkpt lat="44.6749" lon="3.1682">
        <ele>1202</ele>
        <time>2013-07-24T08:16:38Z</time>
      </trkpt>
      <trkpt lat="44.67492" lon="3.16813">
        <ele>1201</ele>
        <time>2013-07-24T08:16:42Z</time>
      </trkpt>
      <trkpt lat="44.67493" lon="3.16805">
        <ele>1201</ele>
        <time>2013-07-24T08:16:46Z</time>
      </trkpt>
      <trkpt lat="44.67495" lon="3.16798">
        <ele>1201</ele>
        <time>2013-07-24T08:16:50Z</time>
      </trkpt>
      <trkpt lat="44.67497" lon="3.16791">
        <ele>1201</ele>
        <time>2013-07-24T08:16:54Z</time>
      </trkpt>
      <trkpt lat="44.675" lon="3.16786">
        <ele>1202</ele>
        <time>2013-07-24T08:16:58Z</time>
      </trkpt>
      <trkpt lat="44.67503" lon="3.1678">
        <ele>1201</ele>
        <time>2013-07-24T08:17:01Z</time>
      </trkpt>
      <trkpt lat="44.67506" lon="3.16775">
        <ele>1200</ele>
        <time>2013-07-24T08:17:04Z</time>
      </trkpt>
      <trkpt lat="44.67508" lon="3.16769">
        <ele>1200</ele>
        <time>2013-07-24T08:17:08Z</time>
      </trkpt>
      <trkpt lat="44.67512" lon="3.16762">
        <ele>1200</ele>
        <time>2013-07-24T08:17:12Z</time>
      </trkpt>
      <trkpt lat="44.67515" lon="3.16755">
        <ele>1200</ele>
        <time>2013-07-24T08:17:16Z</time>
      </trkpt>
      <trkpt lat="44.67518" lon="3.16751">
        <ele>1200</ele>
        <time>2013-07-24T08:17:19Z</time>
      </trkpt>
      <trkpt lat="44.67522" lon="3.16745">
        <ele>1201</ele>
        <time>2013-07-24T08:17:22Z</time>
      </trkpt>
      <trkpt lat="44.67524" lon="3.16738">
        <ele>1200</ele>
        <time>2013-07-24T08:17:26Z</time>
      </trkpt>
      <trkpt lat="44.67527" lon="3.16733">
        <ele>1200</ele>
        <time>2013-07-24T08:17:29Z</time>
      </trkpt>
      <trkpt lat="44.6753" lon="3.16726">
        <ele>1200</ele>
        <time>2013-07-24T08:17:33Z</time>
      </trkpt>
      <trkpt lat="44.67533" lon="3.16721">
        <ele>1199</ele>
        <time>2013-07-24T08:17:37Z</time>
      </trkpt>
      <trkpt lat="44.67537" lon="3.16713">
        <ele>1199</ele>
        <time>2013-07-24T08:17:41Z</time>
      </trkpt>
      <trkpt lat="44.67544" lon="3.16707">
        <ele>1199</ele>
        <time>2013-07-24T08:17:46Z</time>
      </trkpt>
      <trkpt lat="44.67547" lon="3.16701">
        <ele>1198</ele>
        <time>2013-07-24T08:17:49Z</time>
      </trkpt>
      <trkpt lat="44.67551" lon="3.16696">
        <ele>1197</ele>
        <time>2013-07-24T08:17:52Z</time>
      </trkpt>
      <trkpt lat="44.67554" lon="3.16691">
        <ele>1197</ele>
        <time>2013-07-24T08:17:55Z</time>
      </trkpt>
      <trkpt lat="44.67558" lon="3.16686">
        <ele>1196</ele>
        <time>2013-07-24T08:17:59Z</time>
      </trkpt>
      <trkpt lat="44.67563" lon="3.16681">
        <ele>1196</ele>
        <time>2013-07-24T08:18:03Z</time>
      </trkpt>
      <trkpt lat="44.67568" lon="3.16678">
        <ele>1196</ele>
        <time>2013-07-24T08:18:07Z</time>
      </trkpt>
      <trkpt lat="44.67577" lon="3.16672">
        <ele>1196</ele>
        <time>2013-07-24T08:18:14Z</time>
      </trkpt>
      <trkpt lat="44.67582" lon="3.16671">
        <ele>1195</ele>
        <time>2013-07-24T08:18:18Z</time>
      </trkpt>
      <trkpt lat="44.67588" lon="3.1667">
        <ele>1194</ele>
        <time>2013-07-24T08:18:22Z</time>
      </trkpt>
      <trkpt lat="44.67593" lon="3.16668">
        <ele>1193</ele>
        <time>2013-07-24T08:18:25Z</time>
      </trkpt>
      <trkpt lat="44.67598" lon="3.16667">
        <ele>1193</ele>
        <time>2013-07-24T08:18:30Z</time>
      </trkpt>
      <trkpt lat="44.67603" lon="3.16667">
        <ele>1193</ele>
        <time>2013-07-24T08:18:33Z</time>
      </trkpt>
      <trkpt lat="44.67608" lon="3.16666">
        <ele>1193</ele>
        <time>2013-07-24T08:18:37Z</time>
      </trkpt>
      <trkpt lat="44.67613" lon="3.16666">
        <ele>1193</ele>
        <time>2013-07-24T08:18:40Z</time>
      </trkpt>
      <trkpt lat="44.67619" lon="3.16664">
        <ele>1194</ele>
        <time>2013-07-24T08:18:45Z</time>
      </trkpt>
      <trkpt lat="44.67624" lon="3.16664">
        <ele>1193</ele>
        <time>2013-07-24T08:18:50Z</time>
      </trkpt>
      <trkpt lat="44.67629" lon="3.16662">
        <ele>1192</ele>
        <time>2013-07-24T08:18:56Z</time>
      </trkpt>
      <trkpt lat="44.67639" lon="3.1666">
        <ele>1191</ele>
        <time>2013-07-24T08:19:06Z</time>
      </trkpt>
      <trkpt lat="44.67649" lon="3.16661">
        <ele>1189</ele>
        <time>2013-07-24T08:19:14Z</time>
      </trkpt>
      <trkpt lat="44.6766" lon="3.16661">
        <ele>1188</ele>
        <time>2013-07-24T08:19:19Z</time>
      </trkpt>
      <trkpt lat="44.67669" lon="3.1666">
        <ele>1191</ele>
        <time>2013-07-24T08:19:24Z</time>
      </trkpt>
      <trkpt lat="44.67674" lon="3.16662">
        <ele>1192</ele>
        <time>2013-07-24T08:19:26Z</time>
      </trkpt>
      <trkpt lat="44.67678" lon="3.16664">
        <ele>1193</ele>
        <time>2013-07-24T08:19:28Z</time>
      </trkpt>
      <trkpt lat="44.67683" lon="3.16666">
        <ele>1194</ele>
        <time>2013-07-24T08:19:31Z</time>
      </trkpt>
      <trkpt lat="44.6769" lon="3.1667">
        <ele>1195</ele>
        <time>2013-07-24T08:19:36Z</time>
      </trkpt>
      <trkpt lat="44.67695" lon="3.16671">
        <ele>1197</ele>
        <time>2013-07-24T08:19:39Z</time>
      </trkpt>
      <trkpt lat="44.677" lon="3.16672">
        <ele>1198</ele>
        <time>2013-07-24T08:19:42Z</time>
      </trkpt>
      <trkpt lat="44.67706" lon="3.16675">
        <ele>1199</ele>
        <time>2013-07-24T08:19:46Z</time>
      </trkpt>
      <trkpt lat="44.67712" lon="3.16678">
        <ele>1199</ele>
        <time>2013-07-24T08:19:51Z</time>
      </trkpt>
      <trkpt lat="44.67718" lon="3.1668">
        <ele>1200</ele>
        <time>2013-07-24T08:19:55Z</time>
      </trkpt>
      <trkpt lat="44.67723" lon="3.16683">
        <ele>1201</ele>
        <time>2013-07-24T08:19:59Z</time>
      </trkpt>
      <trkpt lat="44.67728" lon="3.16686">
        <ele>1201</ele>
        <time>2013-07-24T08:20:02Z</time>
      </trkpt>
      <trkpt lat="44.67732" lon="3.16688">
        <ele>1202</ele>
        <time>2013-07-24T08:20:05Z</time>
      </trkpt>
      <trkpt lat="44.67742" lon="3.1669">
        <ele>1203</ele>
        <time>2013-07-24T08:20:12Z</time>
      </trkpt>
      <trkpt lat="44.67748" lon="3.16691">
        <ele>1204</ele>
        <time>2013-07-24T08:20:15Z</time>
      </trkpt>
      <trkpt lat="44.67753" lon="3.16691">
        <ele>1206</ele>
        <time>2013-07-24T08:20:18Z</time>
      </trkpt>
      <trkpt lat="44.67758" lon="3.16691">
        <ele>1206</ele>
        <time>2013-07-24T08:20:21Z</time>
      </trkpt>
      <trkpt lat="44.67763" lon="3.16691">
        <ele>1205</ele>
        <time>2013-07-24T08:20:24Z</time>
      </trkpt>
      <trkpt lat="44.67768" lon="3.1669">
        <ele>1205</ele>
        <time>2013-07-24T08:20:27Z</time>
      </trkpt>
      <trkpt lat="44.67774" lon="3.1669">
        <ele>1205</ele>
        <time>2013-07-24T08:20:31Z</time>
      </trkpt>
      <trkpt lat="44.6778" lon="3.16687">
        <ele>1207</ele>
        <time>2013-07-24T08:20:35Z</time>
      </trkpt>
      <trkpt lat="44.67786" lon="3.16684">
        <ele>1207</ele>
        <time>2013-07-24T08:20:39Z</time>
      </trkpt>
      <trkpt lat="44.67791" lon="3.16683">
        <ele>1206</ele>
        <time>2013-07-24T08:20:42Z</time>
      </trkpt>
      <trkpt lat="44.67797" lon="3.16681">
        <ele>1205</ele>
        <time>2013-07-24T08:20:46Z</time>
      </trkpt>
      <trkpt lat="44.67802" lon="3.16679">
        <ele>1204</ele>
        <time>2013-07-24T08:20:49Z</time>
      </trkpt>
      <trkpt lat="44.67807" lon="3.16678">
        <ele>1204</ele>
        <time>2013-07-24T08:20:52Z</time>
      </trkpt>
      <trkpt lat="44.67812" lon="3.16676">
        <ele>1203</ele>
        <time>2013-07-24T08:20:56Z</time>
      </trkpt>
      <trkpt lat="44.67818" lon="3.16674">
        <ele>1203</ele>
        <time>2013-07-24T08:21:00Z</time>
      </trkpt>
      <trkpt lat="44.67823" lon="3.16672">
        <ele>1203</ele>
        <time>2013-07-24T08:21:04Z</time>
      </trkpt>
      <trkpt lat="44.67828" lon="3.16671">
        <ele>1202</ele>
        <time>2013-07-24T08:21:07Z</time>
      </trkpt>
      <trkpt lat="44.67834" lon="3.16668">
        <ele>1201</ele>
        <time>2013-07-24T08:21:10Z</time>
      </trkpt>
      <trkpt lat="44.67838" lon="3.16665">
        <ele>1200</ele>
        <time>2013-07-24T08:21:13Z</time>
      </trkpt>
      <trkpt lat="44.67844" lon="3.16665">
        <ele>1199</ele>
        <time>2013-07-24T08:21:17Z</time>
      </trkpt>
      <trkpt lat="44.67849" lon="3.16665">
        <ele>1200</ele>
        <time>2013-07-24T08:21:20Z</time>
      </trkpt>
      <trkpt lat="44.67854" lon="3.16664">
        <ele>1201</ele>
        <time>2013-07-24T08:21:23Z</time>
      </trkpt>
      <trkpt lat="44.6786" lon="3.16664">
        <ele>1201</ele>
        <time>2013-07-24T08:21:27Z</time>
      </trkpt>
      <trkpt lat="44.67864" lon="3.16663">
        <ele>1201</ele>
        <time>2013-07-24T08:21:30Z</time>
      </trkpt>
      <trkpt lat="44.6787" lon="3.16663">
        <ele>1202</ele>
        <time>2013-07-24T08:21:34Z</time>
      </trkpt>
      <trkpt lat="44.67875" lon="3.16661">
        <ele>1204</ele>
        <time>2013-07-24T08:21:38Z</time>
      </trkpt>
      <trkpt lat="44.67879" lon="3.16661">
        <ele>1205</ele>
        <time>2013-07-24T08:21:42Z</time>
      </trkpt>
      <trkpt lat="44.67884" lon="3.16661">
        <ele>1205</ele>
        <time>2013-07-24T08:21:46Z</time>
      </trkpt>
      <trkpt lat="44.67889" lon="3.16661">
        <ele>1205</ele>
        <time>2013-07-24T08:21:50Z</time>
      </trkpt>
      <trkpt lat="44.67894" lon="3.16661">
        <ele>1204</ele>
        <time>2013-07-24T08:21:54Z</time>
      </trkpt>
      <trkpt lat="44.67899" lon="3.16661">
        <ele>1203</ele>
        <time>2013-07-24T08:21:58Z</time>
      </trkpt>
      <trkpt lat="44.67905" lon="3.16662">
        <ele>1202</ele>
        <time>2013-07-24T08:22:02Z</time>
      </trkpt>
      <trkpt lat="44.67911" lon="3.16662">
        <ele>1200</ele>
        <time>2013-07-24T08:22:05Z</time>
      </trkpt>
      <trkpt lat="44.67917" lon="3.16662">
        <ele>1198</ele>
        <time>2013-07-24T08:22:08Z</time>
      </trkpt>
      <trkpt lat="44.67923" lon="3.16664">
        <ele>1197</ele>
        <time>2013-07-24T08:22:12Z</time>
      </trkpt>
      <trkpt lat="44.67928" lon="3.16665">
        <ele>1198</ele>
        <time>2013-07-24T08:22:15Z</time>
      </trkpt>
      <trkpt lat="44.67933" lon="3.16666">
        <ele>1197</ele>
        <time>2013-07-24T08:22:18Z</time>
      </trkpt>
      <trkpt lat="44.67938" lon="3.16667">
        <ele>1197</ele>
        <time>2013-07-24T08:22:21Z</time>
      </trkpt>
      <trkpt lat="44.67943" lon="3.16669">
        <ele>1196</ele>
        <time>2013-07-24T08:22:24Z</time>
      </trkpt>
      <trkpt lat="44.67949" lon="3.1667">
        <ele>1197</ele>
        <time>2013-07-24T08:22:28Z</time>
      </trkpt>
      <trkpt lat="44.67954" lon="3.16671">
        <ele>1197</ele>
        <time>2013-07-24T08:22:32Z</time>
      </trkpt>
      <trkpt lat="44.67959" lon="3.16672">
        <ele>1197</ele>
        <time>2013-07-24T08:22:35Z</time>
      </trkpt>
      <trkpt lat="44.67964" lon="3.16674">
        <ele>1196</ele>
        <time>2013-07-24T08:22:39Z</time>
      </trkpt>
      <trkpt lat="44.67969" lon="3.16675">
        <ele>1196</ele>
        <time>2013-07-24T08:22:42Z</time>
      </trkpt>
      <trkpt lat="44.67974" lon="3.16678">
        <ele>1195</ele>
        <time>2013-07-24T08:22:45Z</time>
      </trkpt>
      <trkpt lat="44.67979" lon="3.1668">
        <ele>1194</ele>
        <time>2013-07-24T08:22:49Z</time>
      </trkpt>
      <trkpt lat="44.67984" lon="3.16681">
        <ele>1194</ele>
        <time>2013-07-24T08:22:52Z</time>
      </trkpt>
      <trkpt lat="44.67991" lon="3.16683">
        <ele>1195</ele>
        <time>2013-07-24T08:22:57Z</time>
      </trkpt>
      <trkpt lat="44.67995" lon="3.16685">
        <ele>1195</ele>
        <time>2013-07-24T08:23:00Z</time>
      </trkpt>
      <trkpt lat="44.68001" lon="3.16687">
        <ele>1195</ele>
        <time>2013-07-24T08:23:04Z</time>
      </trkpt>
      <trkpt lat="44.68005" lon="3.1669">
        <ele>1196</ele>
        <time>2013-07-24T08:23:07Z</time>
      </trkpt>
      <trkpt lat="44.68009" lon="3.16691">
        <ele>1195</ele>
        <time>2013-07-24T08:23:10Z</time>
      </trkpt>
      <trkpt lat="44.68015" lon="3.16694">
        <ele>1195</ele>
        <time>2013-07-24T08:23:14Z</time>
      </trkpt>
      <trkpt lat="44.6802" lon="3.16696">
        <ele>1196</ele>
        <time>2013-07-24T08:23:18Z</time>
      </trkpt>
      <trkpt lat="44.68025" lon="3.16699">
        <ele>1196</ele>
        <time>2013-07-24T08:23:22Z</time>
      </trkpt>
      <trkpt lat="44.6803" lon="3.16701">
        <ele>1196</ele>
        <time>2013-07-24T08:23:26Z</time>
      </trkpt>
      <trkpt lat="44.68035" lon="3.16705">
        <ele>1196</ele>
        <time>2013-07-24T08:23:30Z</time>
      </trkpt>
      <trkpt lat="44.6804" lon="3.16708">
        <ele>1196</ele>
        <time>2013-07-24T08:23:34Z</time>
      </trkpt>
      <trkpt lat="44.68044" lon="3.16711">
        <ele>1196</ele>
        <time>2013-07-24T08:23:37Z</time>
      </trkpt>
      <trkpt lat="44.68048" lon="3.16715">
        <ele>1196</ele>
        <time>2013-07-24T08:23:41Z</time>
      </trkpt>
      <trkpt lat="44.68053" lon="3.16719">
        <ele>1197</ele>
        <time>2013-07-24T08:23:45Z</time>
      </trkpt>
      <trkpt lat="44.68057" lon="3.16723">
        <ele>1198</ele>
        <time>2013-07-24T08:23:48Z</time>
      </trkpt>
      <trkpt lat="44.68065" lon="3.1673">
        <ele>1200</ele>
        <time>2013-07-24T08:23:53Z</time>
      </trkpt>
      <trkpt lat="44.68069" lon="3.16734">
        <ele>1202</ele>
        <time>2013-07-24T08:23:56Z</time>
      </trkpt>
      <trkpt lat="44.68074" lon="3.16738">
        <ele>1203</ele>
        <time>2013-07-24T08:24:00Z</time>
      </trkpt>
      <trkpt lat="44.68077" lon="3.16742">
        <ele>1204</ele>
        <time>2013-07-24T08:24:03Z</time>
      </trkpt>
      <trkpt lat="44.68081" lon="3.16746">
        <ele>1205</ele>
        <time>2013-07-24T08:24:06Z</time>
      </trkpt>
      <trkpt lat="44.68085" lon="3.16751">
        <ele>1207</ele>
        <time>2013-07-24T08:24:11Z</time>
      </trkpt>
      <trkpt lat="44.68089" lon="3.16754">
        <ele>1207</ele>
        <time>2013-07-24T08:24:15Z</time>
      </trkpt>
      <trkpt lat="44.68094" lon="3.16759">
        <ele>1208</ele>
        <time>2013-07-24T08:24:19Z</time>
      </trkpt>
      <trkpt lat="44.68098" lon="3.16762">
        <ele>1207</ele>
        <time>2013-07-24T08:24:23Z</time>
      </trkpt>
      <trkpt lat="44.68102" lon="3.16765">
        <ele>1207</ele>
        <time>2013-07-24T08:24:27Z</time>
      </trkpt>
      <trkpt lat="44.68108" lon="3.16772">
        <ele>1208</ele>
        <time>2013-07-24T08:24:33Z</time>
      </trkpt>
      <trkpt lat="44.68113" lon="3.16775">
        <ele>1209</ele>
        <time>2013-07-24T08:24:37Z</time>
      </trkpt>
      <trkpt lat="44.68118" lon="3.16779">
        <ele>1210</ele>
        <time>2013-07-24T08:24:41Z</time>
      </trkpt>
      <trkpt lat="44.68125" lon="3.16784">
        <ele>1210</ele>
        <time>2013-07-24T08:24:47Z</time>
      </trkpt>
      <trkpt lat="44.68129" lon="3.16789">
        <ele>1210</ele>
        <time>2013-07-24T08:24:51Z</time>
      </trkpt>
      <trkpt lat="44.68134" lon="3.16793">
        <ele>1209</ele>
        <time>2013-07-24T08:24:56Z</time>
      </trkpt>
      <trkpt lat="44.68138" lon="3.16797">
        <ele>1209</ele>
        <time>2013-07-24T08:24:59Z</time>
      </trkpt>
      <trkpt lat="44.68143" lon="3.168">
        <ele>1210</ele>
        <time>2013-07-24T08:25:02Z</time>
      </trkpt>
      <trkpt lat="44.68147" lon="3.16802">
        <ele>1210</ele>
        <time>2013-07-24T08:25:06Z</time>
      </trkpt>
      <trkpt lat="44.68152" lon="3.16807">
        <ele>1211</ele>
        <time>2013-07-24T08:25:10Z</time>
      </trkpt>
      <trkpt lat="44.68155" lon="3.16812">
        <ele>1212</ele>
        <time>2013-07-24T08:25:13Z</time>
      </trkpt>
      <trkpt lat="44.68159" lon="3.16816">
        <ele>1213</ele>
        <time>2013-07-24T08:25:17Z</time>
      </trkpt>
      <trkpt lat="44.68164" lon="3.1682">
        <ele>1213</ele>
        <time>2013-07-24T08:25:22Z</time>
      </trkpt>
      <trkpt lat="44.68168" lon="3.16824">
        <ele>1214</ele>
        <time>2013-07-24T08:25:27Z</time>
      </trkpt>
      <trkpt lat="44.68172" lon="3.16828">
        <ele>1215</ele>
        <time>2013-07-24T08:25:30Z</time>
      </trkpt>
      <trkpt lat="44.68176" lon="3.16833">
        <ele>1215</ele>
        <time>2013-07-24T08:25:34Z</time>
      </trkpt>
      <trkpt lat="44.6818" lon="3.16839">
        <ele>1215</ele>
        <time>2013-07-24T08:25:38Z</time>
      </trkpt>
      <trkpt lat="44.68184" lon="3.16845">
        <ele>1215</ele>
        <time>2013-07-24T08:25:42Z</time>
      </trkpt>
      <trkpt lat="44.68189" lon="3.1685">
        <ele>1215</ele>
        <time>2013-07-24T08:25:46Z</time>
      </trkpt>
      <trkpt lat="44.68193" lon="3.16854">
        <ele>1215</ele>
        <time>2013-07-24T08:25:49Z</time>
      </trkpt>
      <trkpt lat="44.68197" lon="3.16859">
        <ele>1216</ele>
        <time>2013-07-24T08:25:53Z</time>
      </trkpt>
      <trkpt lat="44.68201" lon="3.16863">
        <ele>1216</ele>
        <time>2013-07-24T08:25:56Z</time>
      </trkpt>
      <trkpt lat="44.68205" lon="3.16868">
        <ele>1217</ele>
        <time>2013-07-24T08:26:01Z</time>
      </trkpt>
      <trkpt lat="44.68211" lon="3.16872">
        <ele>1217</ele>
        <time>2013-07-24T08:26:05Z</time>
      </trkpt>
      <trkpt lat="44.68215" lon="3.16876">
        <ele>1217</ele>
        <time>2013-07-24T08:26:10Z</time>
      </trkpt>
      <trkpt lat="44.68222" lon="3.16882">
        <ele>1217</ele>
        <time>2013-07-24T08:26:16Z</time>
      </trkpt>
      <trkpt lat="44.68227" lon="3.16886">
        <ele>1216</ele>
        <time>2013-07-24T08:26:20Z</time>
      </trkpt>
      <trkpt lat="44.68232" lon="3.1689">
        <ele>1215</ele>
        <time>2013-07-24T08:26:23Z</time>
      </trkpt>
      <trkpt lat="44.68236" lon="3.16894">
        <ele>1215</ele>
        <time>2013-07-24T08:26:27Z</time>
      </trkpt>
      <trkpt lat="44.6824" lon="3.16897">
        <ele>1215</ele>
        <time>2013-07-24T08:26:30Z</time>
      </trkpt>
      <trkpt lat="44.68246" lon="3.16901">
        <ele>1214</ele>
        <time>2013-07-24T08:26:35Z</time>
      </trkpt>
      <trkpt lat="44.68252" lon="3.16906">
        <ele>1214</ele>
        <time>2013-07-24T08:26:40Z</time>
      </trkpt>
      <trkpt lat="44.68259" lon="3.16907">
        <ele>1215</ele>
        <time>2013-07-24T08:26:46Z</time>
      </trkpt>
      <trkpt lat="44.68263" lon="3.16909">
        <ele>1214</ele>
        <time>2013-07-24T08:26:49Z</time>
      </trkpt>
      <trkpt lat="44.68268" lon="3.16911">
        <ele>1214</ele>
        <time>2013-07-24T08:26:52Z</time>
      </trkpt>
      <trkpt lat="44.68273" lon="3.16912">
        <ele>1214</ele>
        <time>2013-07-24T08:26:56Z</time>
      </trkpt>
      <trkpt lat="44.68278" lon="3.16914">
        <ele>1214</ele>
        <time>2013-07-24T08:26:58Z</time>
      </trkpt>
      <trkpt lat="44.68284" lon="3.16915">
        <ele>1215</ele>
        <time>2013-07-24T08:27:01Z</time>
      </trkpt>
      <trkpt lat="44.68289" lon="3.16915">
        <ele>1216</ele>
        <time>2013-07-24T08:27:04Z</time>
      </trkpt>
      <trkpt lat="44.68295" lon="3.16915">
        <ele>1217</ele>
        <time>2013-07-24T08:27:07Z</time>
      </trkpt>
      <trkpt lat="44.68299" lon="3.16914">
        <ele>1218</ele>
        <time>2013-07-24T08:27:10Z</time>
      </trkpt>
      <trkpt lat="44.68304" lon="3.16913">
        <ele>1219</ele>
        <time>2013-07-24T08:27:14Z</time>
      </trkpt>
      <trkpt lat="44.68309" lon="3.1691">
        <ele>1219</ele>
        <time>2013-07-24T08:27:19Z</time>
      </trkpt>
      <trkpt lat="44.68313" lon="3.16907">
        <ele>1219</ele>
        <time>2013-07-24T08:27:23Z</time>
      </trkpt>
      <trkpt lat="44.68318" lon="3.16903">
        <ele>1220</ele>
        <time>2013-07-24T08:27:27Z</time>
      </trkpt>
      <trkpt lat="44.68323" lon="3.16901">
        <ele>1219</ele>
        <time>2013-07-24T08:27:30Z</time>
      </trkpt>
      <trkpt lat="44.68328" lon="3.16899">
        <ele>1219</ele>
        <time>2013-07-24T08:27:33Z</time>
      </trkpt>
      <trkpt lat="44.68332" lon="3.16897">
        <ele>1219</ele>
        <time>2013-07-24T08:27:36Z</time>
      </trkpt>
      <trkpt lat="44.68337" lon="3.16895">
        <ele>1220</ele>
        <time>2013-07-24T08:27:40Z</time>
      </trkpt>
      <trkpt lat="44.68342" lon="3.16895">
        <ele>1220</ele>
        <time>2013-07-24T08:27:43Z</time>
      </trkpt>
      <trkpt lat="44.68348" lon="3.16894">
        <ele>1221</ele>
        <time>2013-07-24T08:27:46Z</time>
      </trkpt>
      <trkpt lat="44.68353" lon="3.16893">
        <ele>1221</ele>
        <time>2013-07-24T08:27:49Z</time>
      </trkpt>
      <trkpt lat="44.68359" lon="3.16894">
        <ele>1221</ele>
        <time>2013-07-24T08:27:53Z</time>
      </trkpt>
      <trkpt lat="44.68365" lon="3.16896">
        <ele>1221</ele>
        <time>2013-07-24T08:27:57Z</time>
      </trkpt>
      <trkpt lat="44.68369" lon="3.16897">
        <ele>1221</ele>
        <time>2013-07-24T08:28:00Z</time>
      </trkpt>
      <trkpt lat="44.68374" lon="3.169">
        <ele>1222</ele>
        <time>2013-07-24T08:28:03Z</time>
      </trkpt>
      <trkpt lat="44.68379" lon="3.16904">
        <ele>1222</ele>
        <time>2013-07-24T08:28:07Z</time>
      </trkpt>
      <trkpt lat="44.68384" lon="3.16907">
        <ele>1222</ele>
        <time>2013-07-24T08:28:10Z</time>
      </trkpt>
      <trkpt lat="44.68388" lon="3.1691">
        <ele>1221</ele>
        <time>2013-07-24T08:28:13Z</time>
      </trkpt>
      <trkpt lat="44.68392" lon="3.16914">
        <ele>1220</ele>
        <time>2013-07-24T08:28:16Z</time>
      </trkpt>
      <trkpt lat="44.68397" lon="3.16917">
        <ele>1219</ele>
        <time>2013-07-24T08:28:19Z</time>
      </trkpt>
      <trkpt lat="44.68402" lon="3.16921">
        <ele>1218</ele>
        <time>2013-07-24T08:28:23Z</time>
      </trkpt>
      <trkpt lat="44.68406" lon="3.16925">
        <ele>1217</ele>
        <time>2013-07-24T08:28:26Z</time>
      </trkpt>
      <trkpt lat="44.68411" lon="3.16928">
        <ele>1216</ele>
        <time>2013-07-24T08:28:29Z</time>
      </trkpt>
      <trkpt lat="44.68416" lon="3.16932">
        <ele>1216</ele>
        <time>2013-07-24T08:28:32Z</time>
      </trkpt>
      <trkpt lat="44.68421" lon="3.16936">
        <ele>1216</ele>
        <time>2013-07-24T08:28:36Z</time>
      </trkpt>
      <trkpt lat="44.68426" lon="3.16941">
        <ele>1216</ele>
        <time>2013-07-24T08:28:39Z</time>
      </trkpt>
      <trkpt lat="44.68433" lon="3.16947">
        <ele>1216</ele>
        <time>2013-07-24T08:28:44Z</time>
      </trkpt>
      <trkpt lat="44.68442" lon="3.16953">
        <ele>1215</ele>
        <time>2013-07-24T08:28:50Z</time>
      </trkpt>
      <trkpt lat="44.68446" lon="3.16958">
        <ele>1212</ele>
        <time>2013-07-24T08:28:54Z</time>
      </trkpt>
      <trkpt lat="44.6845" lon="3.1696">
        <ele>1211</ele>
        <time>2013-07-24T08:28:57Z</time>
      </trkpt>
      <trkpt lat="44.68456" lon="3.16962">
        <ele>1210</ele>
        <time>2013-07-24T08:29:00Z</time>
      </trkpt>
      <trkpt lat="44.6846" lon="3.16966">
        <ele>1210</ele>
        <time>2013-07-24T08:29:03Z</time>
      </trkpt>
      <trkpt lat="44.68465" lon="3.16969">
        <ele>1209</ele>
        <time>2013-07-24T08:29:06Z</time>
      </trkpt>
      <trkpt lat="44.68474" lon="3.16976">
        <ele>1209</ele>
        <time>2013-07-24T08:29:11Z</time>
      </trkpt>
      <trkpt lat="44.68478" lon="3.16981">
        <ele>1209</ele>
        <time>2013-07-24T08:29:14Z</time>
      </trkpt>
      <trkpt lat="44.68482" lon="3.16984">
        <ele>1211</ele>
        <time>2013-07-24T08:29:17Z</time>
      </trkpt>
      <trkpt lat="44.68487" lon="3.16988">
        <ele>1210</ele>
        <time>2013-07-24T08:29:21Z</time>
      </trkpt>
      <trkpt lat="44.68492" lon="3.16992">
        <ele>1210</ele>
        <time>2013-07-24T08:29:25Z</time>
      </trkpt>
      <trkpt lat="44.68497" lon="3.16995">
        <ele>1209</ele>
        <time>2013-07-24T08:29:28Z</time>
      </trkpt>
      <trkpt lat="44.68505" lon="3.17001">
        <ele>1209</ele>
        <time>2013-07-24T08:29:32Z</time>
      </trkpt>
      <trkpt lat="44.6851" lon="3.17004">
        <ele>1208</ele>
        <time>2013-07-24T08:29:35Z</time>
      </trkpt>
      <trkpt lat="44.68515" lon="3.17007">
        <ele>1207</ele>
        <time>2013-07-24T08:29:38Z</time>
      </trkpt>
      <trkpt lat="44.68519" lon="3.1701">
        <ele>1207</ele>
        <time>2013-07-24T08:29:41Z</time>
      </trkpt>
      <trkpt lat="44.68523" lon="3.17014">
        <ele>1206</ele>
        <time>2013-07-24T08:29:44Z</time>
      </trkpt>
      <trkpt lat="44.68527" lon="3.17018">
        <ele>1206</ele>
        <time>2013-07-24T08:29:47Z</time>
      </trkpt>
      <trkpt lat="44.68531" lon="3.17023">
        <ele>1205</ele>
        <time>2013-07-24T08:29:51Z</time>
      </trkpt>
      <trkpt lat="44.68537" lon="3.17027">
        <ele>1205</ele>
        <time>2013-07-24T08:29:54Z</time>
      </trkpt>
      <trkpt lat="44.68542" lon="3.17031">
        <ele>1204</ele>
        <time>2013-07-24T08:29:57Z</time>
      </trkpt>
      <trkpt lat="44.68547" lon="3.17035">
        <ele>1203</ele>
        <time>2013-07-24T08:30:00Z</time>
      </trkpt>
      <trkpt lat="44.68551" lon="3.17039">
        <ele>1203</ele>
        <time>2013-07-24T08:30:03Z</time>
      </trkpt>
      <trkpt lat="44.68556" lon="3.17044">
        <ele>1203</ele>
        <time>2013-07-24T08:30:06Z</time>
      </trkpt>
      <trkpt lat="44.6856" lon="3.17049">
        <ele>1202</ele>
        <time>2013-07-24T08:30:10Z</time>
      </trkpt>
      <trkpt lat="44.68568" lon="3.17056">
        <ele>1201</ele>
        <time>2013-07-24T08:30:16Z</time>
      </trkpt>
      <trkpt lat="44.68572" lon="3.17059">
        <ele>1200</ele>
        <time>2013-07-24T08:30:19Z</time>
      </trkpt>
      <trkpt lat="44.68577" lon="3.17063">
        <ele>1199</ele>
        <time>2013-07-24T08:30:23Z</time>
      </trkpt>
      <trkpt lat="44.68587" lon="3.17065">
        <ele>1198</ele>
        <time>2013-07-24T08:30:30Z</time>
      </trkpt>
      <trkpt lat="44.68593" lon="3.17065">
        <ele>1197</ele>
        <time>2013-07-24T08:30:34Z</time>
      </trkpt>
      <trkpt lat="44.68601" lon="3.17064">
        <ele>1195</ele>
        <time>2013-07-24T08:30:40Z</time>
      </trkpt>
      <trkpt lat="44.68606" lon="3.17063">
        <ele>1194</ele>
        <time>2013-07-24T08:30:43Z</time>
      </trkpt>
      <trkpt lat="44.68614" lon="3.17061">
        <ele>1194</ele>
        <time>2013-07-24T08:30:47Z</time>
      </trkpt>
      <trkpt lat="44.68619" lon="3.17059">
        <ele>1194</ele>
        <time>2013-07-24T08:30:50Z</time>
      </trkpt>
      <trkpt lat="44.68627" lon="3.17057">
        <ele>1194</ele>
        <time>2013-07-24T08:30:55Z</time>
      </trkpt>
      <trkpt lat="44.68632" lon="3.17055">
        <ele>1195</ele>
        <time>2013-07-24T08:30:58Z</time>
      </trkpt>
      <trkpt lat="44.68637" lon="3.17053">
        <ele>1196</ele>
        <time>2013-07-24T08:31:01Z</time>
      </trkpt>
      <trkpt lat="44.68642" lon="3.17051">
        <ele>1197</ele>
        <time>2013-07-24T08:31:04Z</time>
      </trkpt>
      <trkpt lat="44.68647" lon="3.17049">
        <ele>1197</ele>
        <time>2013-07-24T08:31:08Z</time>
      </trkpt>
      <trkpt lat="44.68653" lon="3.17047">
        <ele>1197</ele>
        <time>2013-07-24T08:31:12Z</time>
      </trkpt>
      <trkpt lat="44.68661" lon="3.17045">
        <ele>1197</ele>
        <time>2013-07-24T08:31:18Z</time>
      </trkpt>
      <trkpt lat="44.68666" lon="3.17044">
        <ele>1196</ele>
        <time>2013-07-24T08:31:22Z</time>
      </trkpt>
      <trkpt lat="44.68671" lon="3.17042">
        <ele>1196</ele>
        <time>2013-07-24T08:31:25Z</time>
      </trkpt>
      <trkpt lat="44.68676" lon="3.17041">
        <ele>1195</ele>
        <time>2013-07-24T08:31:28Z</time>
      </trkpt>
      <trkpt lat="44.68686" lon="3.17037">
        <ele>1195</ele>
        <time>2013-07-24T08:31:33Z</time>
      </trkpt>
      <trkpt lat="44.68691" lon="3.17035">
        <ele>1195</ele>
        <time>2013-07-24T08:31:36Z</time>
      </trkpt>
      <trkpt lat="44.68695" lon="3.17033">
        <ele>1195</ele>
        <time>2013-07-24T08:31:39Z</time>
      </trkpt>
      <trkpt lat="44.687" lon="3.1703">
        <ele>1195</ele>
        <time>2013-07-24T08:31:42Z</time>
      </trkpt>
      <trkpt lat="44.68704" lon="3.17027">
        <ele>1195</ele>
        <time>2013-07-24T08:31:45Z</time>
      </trkpt>
      <trkpt lat="44.68709" lon="3.17024">
        <ele>1195</ele>
        <time>2013-07-24T08:31:49Z</time>
      </trkpt>
      <trkpt lat="44.68713" lon="3.17022">
        <ele>1196</ele>
        <time>2013-07-24T08:31:52Z</time>
      </trkpt>
      <trkpt lat="44.68718" lon="3.17019">
        <ele>1196</ele>
        <time>2013-07-24T08:31:56Z</time>
      </trkpt>
      <trkpt lat="44.68728" lon="3.17015">
        <ele>1197</ele>
        <time>2013-07-24T08:32:03Z</time>
      </trkpt>
      <trkpt lat="44.68733" lon="3.17012">
        <ele>1196</ele>
        <time>2013-07-24T08:32:07Z</time>
      </trkpt>
      <trkpt lat="44.68739" lon="3.17008">
        <ele>1196</ele>
        <time>2013-07-24T08:32:10Z</time>
      </trkpt>
      <trkpt lat="44.68744" lon="3.17006">
        <ele>1195</ele>
        <time>2013-07-24T08:32:13Z</time>
      </trkpt>
      <trkpt lat="44.68752" lon="3.17002">
        <ele>1196</ele>
        <time>2013-07-24T08:32:18Z</time>
      </trkpt>
      <trkpt lat="44.68756" lon="3.16999">
        <ele>1197</ele>
        <time>2013-07-24T08:32:21Z</time>
      </trkpt>
      <trkpt lat="44.68761" lon="3.16996">
        <ele>1198</ele>
        <time>2013-07-24T08:32:24Z</time>
      </trkpt>
      <trkpt lat="44.68771" lon="3.16991">
        <ele>1203</ele>
        <time>2013-07-24T08:32:31Z</time>
      </trkpt>
      <trkpt lat="44.68775" lon="3.16989">
        <ele>1204</ele>
        <time>2013-07-24T08:32:35Z</time>
      </trkpt>
      <trkpt lat="44.6878" lon="3.16986">
        <ele>1203</ele>
        <time>2013-07-24T08:32:39Z</time>
      </trkpt>
      <trkpt lat="44.68786" lon="3.16983">
        <ele>1202</ele>
        <time>2013-07-24T08:32:44Z</time>
      </trkpt>
      <trkpt lat="44.68791" lon="3.16981">
        <ele>1202</ele>
        <time>2013-07-24T08:32:48Z</time>
      </trkpt>
      <trkpt lat="44.68796" lon="3.1698">
        <ele>1203</ele>
        <time>2013-07-24T08:32:52Z</time>
      </trkpt>
      <trkpt lat="44.68801" lon="3.16979">
        <ele>1203</ele>
        <time>2013-07-24T08:32:55Z</time>
      </trkpt>
      <trkpt lat="44.68809" lon="3.16977">
        <ele>1203</ele>
        <time>2013-07-24T08:33:01Z</time>
      </trkpt>
      <trkpt lat="44.68815" lon="3.16976">
        <ele>1203</ele>
        <time>2013-07-24T08:33:05Z</time>
      </trkpt>
      <trkpt lat="44.68821" lon="3.16976">
        <ele>1203</ele>
        <time>2013-07-24T08:33:09Z</time>
      </trkpt>
      <trkpt lat="44.68826" lon="3.16977">
        <ele>1203</ele>
        <time>2013-07-24T08:33:12Z</time>
      </trkpt>
      <trkpt lat="44.68835" lon="3.16979">
        <ele>1204</ele>
        <time>2013-07-24T08:33:18Z</time>
      </trkpt>
      <trkpt lat="44.6884" lon="3.16978">
        <ele>1205</ele>
        <time>2013-07-24T08:33:22Z</time>
      </trkpt>
      <trkpt lat="44.68846" lon="3.16978">
        <ele>1206</ele>
        <time>2013-07-24T08:33:26Z</time>
      </trkpt>
      <trkpt lat="44.68851" lon="3.16979">
        <ele>1206</ele>
        <time>2013-07-24T08:33:29Z</time>
      </trkpt>
      <trkpt lat="44.68856" lon="3.16979">
        <ele>1207</ele>
        <time>2013-07-24T08:33:32Z</time>
      </trkpt>
      <trkpt lat="44.68865" lon="3.16979">
        <ele>1207</ele>
        <time>2013-07-24T08:33:38Z</time>
      </trkpt>
      <trkpt lat="44.68875" lon="3.16981">
        <ele>1207</ele>
        <time>2013-07-24T08:33:44Z</time>
      </trkpt>
      <trkpt lat="44.68881" lon="3.16982">
        <ele>1208</ele>
        <time>2013-07-24T08:33:48Z</time>
      </trkpt>
      <trkpt lat="44.68887" lon="3.16983">
        <ele>1208</ele>
        <time>2013-07-24T08:33:52Z</time>
      </trkpt>
      <trkpt lat="44.68892" lon="3.16983">
        <ele>1208</ele>
        <time>2013-07-24T08:33:56Z</time>
      </trkpt>
      <trkpt lat="44.68902" lon="3.16984">
        <ele>1207</ele>
        <time>2013-07-24T08:34:03Z</time>
      </trkpt>
      <trkpt lat="44.68911" lon="3.16985">
        <ele>1209</ele>
        <time>2013-07-24T08:34:19Z</time>
      </trkpt>
      <trkpt lat="44.6892" lon="3.16984">
        <ele>1209</ele>
        <time>2013-07-24T08:34:23Z</time>
      </trkpt>
      <trkpt lat="44.68929" lon="3.16984">
        <ele>1208</ele>
        <time>2013-07-24T08:34:28Z</time>
      </trkpt>
      <trkpt lat="44.68935" lon="3.16985">
        <ele>1207</ele>
        <time>2013-07-24T08:34:31Z</time>
      </trkpt>
      <trkpt lat="44.68945" lon="3.16984">
        <ele>1206</ele>
        <time>2013-07-24T08:34:38Z</time>
      </trkpt>
      <trkpt lat="44.68953" lon="3.16983">
        <ele>1206</ele>
        <time>2013-07-24T08:34:43Z</time>
      </trkpt>
      <trkpt lat="44.68958" lon="3.16983">
        <ele>1205</ele>
        <time>2013-07-24T08:34:46Z</time>
      </trkpt>
      <trkpt lat="44.68964" lon="3.16983">
        <ele>1206</ele>
        <time>2013-07-24T08:34:51Z</time>
      </trkpt>
      <trkpt lat="44.68974" lon="3.16985">
        <ele>1206</ele>
        <time>2013-07-24T08:34:59Z</time>
      </trkpt>
      <trkpt lat="44.68979" lon="3.16984">
        <ele>1207</ele>
        <time>2013-07-24T08:35:03Z</time>
      </trkpt>
      <trkpt lat="44.68986" lon="3.16983">
        <ele>1209</ele>
        <time>2013-07-24T08:35:09Z</time>
      </trkpt>
      <trkpt lat="44.68991" lon="3.16983">
        <ele>1208</ele>
        <time>2013-07-24T08:35:12Z</time>
      </trkpt>
      <trkpt lat="44.68995" lon="3.16983">
        <ele>1207</ele>
        <time>2013-07-24T08:35:15Z</time>
      </trkpt>
      <trkpt lat="44.69001" lon="3.16982">
        <ele>1208</ele>
        <time>2013-07-24T08:35:19Z</time>
      </trkpt>
      <trkpt lat="44.69011" lon="3.16981">
        <ele>1208</ele>
        <time>2013-07-24T08:35:26Z</time>
      </trkpt>
      <trkpt lat="44.69021" lon="3.16983">
        <ele>1208</ele>
        <time>2013-07-24T08:35:32Z</time>
      </trkpt>
      <trkpt lat="44.69026" lon="3.16983">
        <ele>1209</ele>
        <time>2013-07-24T08:35:35Z</time>
      </trkpt>
      <trkpt lat="44.69031" lon="3.16983">
        <ele>1209</ele>
        <time>2013-07-24T08:35:39Z</time>
      </trkpt>
      <trkpt lat="44.69041" lon="3.16982">
        <ele>1211</ele>
        <time>2013-07-24T08:35:46Z</time>
      </trkpt>
      <trkpt lat="44.69045" lon="3.16984">
        <ele>1211</ele>
        <time>2013-07-24T08:35:49Z</time>
      </trkpt>
      <trkpt lat="44.6905" lon="3.16986">
        <ele>1210</ele>
        <time>2013-07-24T08:35:53Z</time>
      </trkpt>
      <trkpt lat="44.69055" lon="3.16984">
        <ele>1210</ele>
        <time>2013-07-24T08:35:56Z</time>
      </trkpt>
      <trkpt lat="44.6906" lon="3.16981">
        <ele>1208</ele>
        <time>2013-07-24T08:36:00Z</time>
      </trkpt>
      <trkpt lat="44.69065" lon="3.1698">
        <ele>1207</ele>
        <time>2013-07-24T08:36:04Z</time>
      </trkpt>
      <trkpt lat="44.69075" lon="3.16975">
        <ele>1206</ele>
        <time>2013-07-24T08:36:11Z</time>
      </trkpt>
      <trkpt lat="44.6908" lon="3.16972">
        <ele>1207</ele>
        <time>2013-07-24T08:36:14Z</time>
      </trkpt>
      <trkpt lat="44.69085" lon="3.1697">
        <ele>1208</ele>
        <time>2013-07-24T08:36:18Z</time>
      </trkpt>
      <trkpt lat="44.6909" lon="3.16966">
        <ele>1208</ele>
        <time>2013-07-24T08:36:22Z</time>
      </trkpt>
      <trkpt lat="44.69094" lon="3.16964">
        <ele>1208</ele>
        <time>2013-07-24T08:36:25Z</time>
      </trkpt>
      <trkpt lat="44.69102" lon="3.16959">
        <ele>1208</ele>
        <time>2013-07-24T08:36:30Z</time>
      </trkpt>
      <trkpt lat="44.69106" lon="3.16958">
        <ele>1209</ele>
        <time>2013-07-24T08:36:33Z</time>
      </trkpt>
      <trkpt lat="44.69113" lon="3.16956">
        <ele>1209</ele>
        <time>2013-07-24T08:36:38Z</time>
      </trkpt>
      <trkpt lat="44.69117" lon="3.16954">
        <ele>1208</ele>
        <time>2013-07-24T08:36:41Z</time>
      </trkpt>
      <trkpt lat="44.69126" lon="3.16951">
        <ele>1208</ele>
        <time>2013-07-24T08:36:47Z</time>
      </trkpt>
      <trkpt lat="44.69131" lon="3.16949">
        <ele>1208</ele>
        <time>2013-07-24T08:36:51Z</time>
      </trkpt>
      <trkpt lat="44.69137" lon="3.16945">
        <ele>1208</ele>
        <time>2013-07-24T08:36:55Z</time>
      </trkpt>
      <trkpt lat="44.69141" lon="3.16942">
        <ele>1207</ele>
        <time>2013-07-24T08:36:58Z</time>
      </trkpt>
      <trkpt lat="44.69146" lon="3.16939">
        <ele>1207</ele>
        <time>2013-07-24T08:37:01Z</time>
      </trkpt>
      <trkpt lat="44.69154" lon="3.16933">
        <ele>1207</ele>
        <time>2013-07-24T08:37:07Z</time>
      </trkpt>
      <trkpt lat="44.69163" lon="3.16927">
        <ele>1207</ele>
        <time>2013-07-24T08:37:13Z</time>
      </trkpt>
      <trkpt lat="44.69172" lon="3.16922">
        <ele>1206</ele>
        <time>2013-07-24T08:37:18Z</time>
      </trkpt>
      <trkpt lat="44.6918" lon="3.16917">
        <ele>1205</ele>
        <time>2013-07-24T08:37:24Z</time>
      </trkpt>
      <trkpt lat="44.69188" lon="3.16912">
        <ele>1204</ele>
        <time>2013-07-24T08:37:29Z</time>
      </trkpt>
      <trkpt lat="44.69197" lon="3.16908">
        <ele>1203</ele>
        <time>2013-07-24T08:37:35Z</time>
      </trkpt>
      <trkpt lat="44.69206" lon="3.16903">
        <ele>1204</ele>
        <time>2013-07-24T08:37:41Z</time>
      </trkpt>
      <trkpt lat="44.6921" lon="3.16901">
        <ele>1203</ele>
        <time>2013-07-24T08:37:56Z</time>
      </trkpt>
      <trkpt lat="44.69219" lon="3.16894">
        <ele>1203</ele>
        <time>2013-07-24T08:38:10Z</time>
      </trkpt>
      <trkpt lat="44.69227" lon="3.16895">
        <ele>1202</ele>
        <time>2013-07-24T08:38:16Z</time>
      </trkpt>
      <trkpt lat="44.69232" lon="3.16894">
        <ele>1202</ele>
        <time>2013-07-24T08:38:19Z</time>
      </trkpt>
      <trkpt lat="44.69238" lon="3.16894">
        <ele>1202</ele>
        <time>2013-07-24T08:38:23Z</time>
      </trkpt>
      <trkpt lat="44.69245" lon="3.16893">
        <ele>1202</ele>
        <time>2013-07-24T08:38:27Z</time>
      </trkpt>
      <trkpt lat="44.69254" lon="3.16891">
        <ele>1201</ele>
        <time>2013-07-24T08:38:32Z</time>
      </trkpt>
      <trkpt lat="44.69264" lon="3.16888">
        <ele>1200</ele>
        <time>2013-07-24T08:38:38Z</time>
      </trkpt>
      <trkpt lat="44.69273" lon="3.16889">
        <ele>1199</ele>
        <time>2013-07-24T08:38:45Z</time>
      </trkpt>
      <trkpt lat="44.69282" lon="3.16893">
        <ele>1200</ele>
        <time>2013-07-24T08:38:51Z</time>
      </trkpt>
      <trkpt lat="44.69291" lon="3.16896">
        <ele>1200</ele>
        <time>2013-07-24T08:38:57Z</time>
      </trkpt>
      <trkpt lat="44.69301" lon="3.16895">
        <ele>1200</ele>
        <time>2013-07-24T08:39:03Z</time>
      </trkpt>
      <trkpt lat="44.69307" lon="3.16901">
        <ele>1200</ele>
        <time>2013-07-24T08:39:08Z</time>
      </trkpt>
      <trkpt lat="44.69312" lon="3.16904">
        <ele>1199</ele>
        <time>2013-07-24T08:39:12Z</time>
      </trkpt>
      <trkpt lat="44.69321" lon="3.1691">
        <ele>1196</ele>
        <time>2013-07-24T08:39:19Z</time>
      </trkpt>
      <trkpt lat="44.69324" lon="3.16918">
        <ele>1195</ele>
        <time>2013-07-24T08:39:24Z</time>
      </trkpt>
      <trkpt lat="44.69325" lon="3.16926">
        <ele>1196</ele>
        <time>2013-07-24T08:39:29Z</time>
      </trkpt>
      <trkpt lat="44.69326" lon="3.1692">
        <ele>1195</ele>
        <time>2013-07-24T08:40:36Z</time>
      </trkpt>
      <trkpt lat="44.69326" lon="3.16913">
        <ele>1197</ele>
        <time>2013-07-24T08:40:39Z</time>
      </trkpt>
      <trkpt lat="44.69335" lon="3.16908">
        <ele>1197</ele>
        <time>2013-07-24T08:40:55Z</time>
      </trkpt>
      <trkpt lat="44.69344" lon="3.16911">
        <ele>1197</ele>
        <time>2013-07-24T08:41:03Z</time>
      </trkpt>
      <trkpt lat="44.69349" lon="3.16911">
        <ele>1197</ele>
        <time>2013-07-24T08:41:07Z</time>
      </trkpt>
      <trkpt lat="44.6936" lon="3.16913">
        <ele>1196</ele>
        <time>2013-07-24T08:41:14Z</time>
      </trkpt>
      <trkpt lat="44.6937" lon="3.16916">
        <ele>1196</ele>
        <time>2013-07-24T08:41:22Z</time>
      </trkpt>
      <trkpt lat="44.6938" lon="3.16915">
        <ele>1195</ele>
        <time>2013-07-24T08:41:28Z</time>
      </trkpt>
      <trkpt lat="44.69389" lon="3.16913">
        <ele>1194</ele>
        <time>2013-07-24T08:41:36Z</time>
      </trkpt>
      <trkpt lat="44.69393" lon="3.1691">
        <ele>1194</ele>
        <time>2013-07-24T08:41:39Z</time>
      </trkpt>
      <trkpt lat="44.69403" lon="3.16907">
        <ele>1192</ele>
        <time>2013-07-24T08:41:45Z</time>
      </trkpt>
      <trkpt lat="44.69408" lon="3.16906">
        <ele>1191</ele>
        <time>2013-07-24T08:41:48Z</time>
      </trkpt>
      <trkpt lat="44.69418" lon="3.16905">
        <ele>1194</ele>
        <time>2013-07-24T08:41:55Z</time>
      </trkpt>
      <trkpt lat="44.69424" lon="3.16905">
        <ele>1196</ele>
        <time>2013-07-24T08:42:00Z</time>
      </trkpt>
      <trkpt lat="44.69433" lon="3.16905">
        <ele>1197</ele>
        <time>2013-07-24T08:42:06Z</time>
      </trkpt>
      <trkpt lat="44.69443" lon="3.16902">
        <ele>1196</ele>
        <time>2013-07-24T08:42:12Z</time>
      </trkpt>
      <trkpt lat="44.69453" lon="3.16899">
        <ele>1195</ele>
        <time>2013-07-24T08:42:17Z</time>
      </trkpt>
      <trkpt lat="44.69463" lon="3.16895">
        <ele>1194</ele>
        <time>2013-07-24T08:42:23Z</time>
      </trkpt>
      <trkpt lat="44.69468" lon="3.16893">
        <ele>1193</ele>
        <time>2013-07-24T08:42:26Z</time>
      </trkpt>
      <trkpt lat="44.69477" lon="3.16888">
        <ele>1193</ele>
        <time>2013-07-24T08:42:33Z</time>
      </trkpt>
      <trkpt lat="44.69483" lon="3.16886">
        <ele>1191</ele>
        <time>2013-07-24T08:42:37Z</time>
      </trkpt>
      <trkpt lat="44.69491" lon="3.16884">
        <ele>1191</ele>
        <time>2013-07-24T08:42:43Z</time>
      </trkpt>
      <trkpt lat="44.69502" lon="3.1688">
        <ele>1191</ele>
        <time>2013-07-24T08:42:50Z</time>
      </trkpt>
      <trkpt lat="44.6951" lon="3.16877">
        <ele>1190</ele>
        <time>2013-07-24T08:42:56Z</time>
      </trkpt>
      <trkpt lat="44.69516" lon="3.16877">
        <ele>1189</ele>
        <time>2013-07-24T08:42:59Z</time>
      </trkpt>
      <trkpt lat="44.69523" lon="3.16876">
        <ele>1189</ele>
        <time>2013-07-24T08:43:04Z</time>
      </trkpt>
      <trkpt lat="44.69527" lon="3.16875">
        <ele>1190</ele>
        <time>2013-07-24T08:43:07Z</time>
      </trkpt>
      <trkpt lat="44.69536" lon="3.16873">
        <ele>1189</ele>
        <time>2013-07-24T08:43:14Z</time>
      </trkpt>
      <trkpt lat="44.69546" lon="3.16869">
        <ele>1189</ele>
        <time>2013-07-24T08:43:20Z</time>
      </trkpt>
      <trkpt lat="44.69556" lon="3.16866">
        <ele>1188</ele>
        <time>2013-07-24T08:43:26Z</time>
      </trkpt>
      <trkpt lat="44.69562" lon="3.16864">
        <ele>1187</ele>
        <time>2013-07-24T08:43:30Z</time>
      </trkpt>
      <trkpt lat="44.69571" lon="3.1686">
        <ele>1186</ele>
        <time>2013-07-24T08:43:37Z</time>
      </trkpt>
      <trkpt lat="44.69576" lon="3.1686">
        <ele>1185</ele>
        <time>2013-07-24T08:43:42Z</time>
      </trkpt>
      <trkpt lat="44.69581" lon="3.16857">
        <ele>1184</ele>
        <time>2013-07-24T08:43:46Z</time>
      </trkpt>
      <trkpt lat="44.69586" lon="3.16855">
        <ele>1184</ele>
        <time>2013-07-24T08:43:50Z</time>
      </trkpt>
      <trkpt lat="44.69591" lon="3.16853">
        <ele>1182</ele>
        <time>2013-07-24T08:43:53Z</time>
      </trkpt>
      <trkpt lat="44.69599" lon="3.1686">
        <ele>1180</ele>
        <time>2013-07-24T08:44:00Z</time>
      </trkpt>
      <trkpt lat="44.69603" lon="3.16865">
        <ele>1179</ele>
        <time>2013-07-24T08:44:03Z</time>
      </trkpt>
      <trkpt lat="44.69606" lon="3.16871">
        <ele>1179</ele>
        <time>2013-07-24T08:44:07Z</time>
      </trkpt>
      <trkpt lat="44.69611" lon="3.1688">
        <ele>1179</ele>
        <time>2013-07-24T08:44:12Z</time>
      </trkpt>
      <trkpt lat="44.69613" lon="3.16891">
        <ele>1178</ele>
        <time>2013-07-24T08:44:17Z</time>
      </trkpt>
      <trkpt lat="44.69615" lon="3.16897">
        <ele>1177</ele>
        <time>2013-07-24T08:44:20Z</time>
      </trkpt>
      <trkpt lat="44.69618" lon="3.16903">
        <ele>1177</ele>
        <time>2013-07-24T08:44:23Z</time>
      </trkpt>
      <trkpt lat="44.69622" lon="3.16915">
        <ele>1176</ele>
        <time>2013-07-24T08:44:30Z</time>
      </trkpt>
      <trkpt lat="44.69624" lon="3.16925">
        <ele>1176</ele>
        <time>2013-07-24T08:44:34Z</time>
      </trkpt>
      <trkpt lat="44.69626" lon="3.16932">
        <ele>1176</ele>
        <time>2013-07-24T08:44:37Z</time>
      </trkpt>
      <trkpt lat="44.69629" lon="3.16938">
        <ele>1175</ele>
        <time>2013-07-24T08:44:41Z</time>
      </trkpt>
      <trkpt lat="44.69634" lon="3.16946">
        <ele>1176</ele>
        <time>2013-07-24T08:44:46Z</time>
      </trkpt>
      <trkpt lat="44.69638" lon="3.16949">
        <ele>1176</ele>
        <time>2013-07-24T08:44:53Z</time>
      </trkpt>
      <trkpt lat="44.69644" lon="3.16948">
        <ele>1177</ele>
        <time>2013-07-24T08:44:59Z</time>
      </trkpt>
      <trkpt lat="44.69652" lon="3.16947">
        <ele>1179</ele>
        <time>2013-07-24T08:45:07Z</time>
      </trkpt>
      <trkpt lat="44.69657" lon="3.16947">
        <ele>1179</ele>
        <time>2013-07-24T08:45:11Z</time>
      </trkpt>
      <trkpt lat="44.69663" lon="3.16946">
        <ele>1179</ele>
        <time>2013-07-24T08:45:15Z</time>
      </trkpt>
      <trkpt lat="44.69672" lon="3.16946">
        <ele>1178</ele>
        <time>2013-07-24T08:45:23Z</time>
      </trkpt>
      <trkpt lat="44.69677" lon="3.16945">
        <ele>1178</ele>
        <time>2013-07-24T08:45:26Z</time>
      </trkpt>
      <trkpt lat="44.69685" lon="3.16943">
        <ele>1175</ele>
        <time>2013-07-24T08:45:31Z</time>
      </trkpt>
      <trkpt lat="44.69691" lon="3.16943">
        <ele>1174</ele>
        <time>2013-07-24T08:45:34Z</time>
      </trkpt>
      <trkpt lat="44.69696" lon="3.16943">
        <ele>1173</ele>
        <time>2013-07-24T08:45:37Z</time>
      </trkpt>
      <trkpt lat="44.69701" lon="3.16945">
        <ele>1174</ele>
        <time>2013-07-24T08:45:40Z</time>
      </trkpt>
      <trkpt lat="44.69706" lon="3.16946">
        <ele>1176</ele>
        <time>2013-07-24T08:45:44Z</time>
      </trkpt>
      <trkpt lat="44.69711" lon="3.16945">
        <ele>1176</ele>
        <time>2013-07-24T08:45:47Z</time>
      </trkpt>
      <trkpt lat="44.69716" lon="3.16945">
        <ele>1178</ele>
        <time>2013-07-24T08:45:51Z</time>
      </trkpt>
      <trkpt lat="44.69726" lon="3.16948">
        <ele>1178</ele>
        <time>2013-07-24T08:45:59Z</time>
      </trkpt>
      <trkpt lat="44.69732" lon="3.16953">
        <ele>1179</ele>
        <time>2013-07-24T08:46:04Z</time>
      </trkpt>
      <trkpt lat="44.69737" lon="3.16954">
        <ele>1180</ele>
        <time>2013-07-24T08:46:09Z</time>
      </trkpt>
      <trkpt lat="44.69742" lon="3.16954">
        <ele>1182</ele>
        <time>2013-07-24T08:46:15Z</time>
      </trkpt>
      <trkpt lat="44.69748" lon="3.16956">
        <ele>1183</ele>
        <time>2013-07-24T08:46:20Z</time>
      </trkpt>
      <trkpt lat="44.69753" lon="3.1696">
        <ele>1183</ele>
        <time>2013-07-24T08:46:24Z</time>
      </trkpt>
      <trkpt lat="44.69762" lon="3.16966">
        <ele>1184</ele>
        <time>2013-07-24T08:46:32Z</time>
      </trkpt>
      <trkpt lat="44.69768" lon="3.1697">
        <ele>1184</ele>
        <time>2013-07-24T08:46:37Z</time>
      </trkpt>
      <trkpt lat="44.69774" lon="3.16973">
        <ele>1184</ele>
        <time>2013-07-24T08:46:42Z</time>
      </trkpt>
      <trkpt lat="44.69783" lon="3.16981">
        <ele>1183</ele>
        <time>2013-07-24T08:46:50Z</time>
      </trkpt>
      <trkpt lat="44.69792" lon="3.16987">
        <ele>1181</ele>
        <time>2013-07-24T08:46:58Z</time>
      </trkpt>
      <trkpt lat="44.69799" lon="3.16994">
        <ele>1180</ele>
        <time>2013-07-24T08:47:06Z</time>
      </trkpt>
      <trkpt lat="44.69807" lon="3.17">
        <ele>1180</ele>
        <time>2013-07-24T08:47:12Z</time>
      </trkpt>
      <trkpt lat="44.69816" lon="3.17008">
        <ele>1184</ele>
        <time>2013-07-24T08:47:20Z</time>
      </trkpt>
      <trkpt lat="44.69826" lon="3.17011">
        <ele>1183</ele>
        <time>2013-07-24T08:47:26Z</time>
      </trkpt>
      <trkpt lat="44.69835" lon="3.17012">
        <ele>1183</ele>
        <time>2013-07-24T08:47:30Z</time>
      </trkpt>
      <trkpt lat="44.69844" lon="3.17015">
        <ele>1185</ele>
        <time>2013-07-24T08:47:34Z</time>
      </trkpt>
      <trkpt lat="44.69854" lon="3.17017">
        <ele>1186</ele>
        <time>2013-07-24T08:47:39Z</time>
      </trkpt>
      <trkpt lat="44.69863" lon="3.17019">
        <ele>1187</ele>
        <time>2013-07-24T08:47:44Z</time>
      </trkpt>
      <trkpt lat="44.6987" lon="3.1702">
        <ele>1187</ele>
        <time>2013-07-24T08:47:47Z</time>
      </trkpt>
      <trkpt lat="44.69875" lon="3.1702">
        <ele>1186</ele>
        <time>2013-07-24T08:47:49Z</time>
      </trkpt>
      <trkpt lat="44.69881" lon="3.1702">
        <ele>1185</ele>
        <time>2013-07-24T08:47:52Z</time>
      </trkpt>
      <trkpt lat="44.6989" lon="3.17019">
        <ele>1184</ele>
        <time>2013-07-24T08:47:56Z</time>
      </trkpt>
      <trkpt lat="44.69894" lon="3.17019">
        <ele>1184</ele>
        <time>2013-07-24T08:47:59Z</time>
      </trkpt>
      <trkpt lat="44.699" lon="3.17018">
        <ele>1184</ele>
        <time>2013-07-24T08:48:02Z</time>
      </trkpt>
      <trkpt lat="44.69905" lon="3.17018">
        <ele>1183</ele>
        <time>2013-07-24T08:48:05Z</time>
      </trkpt>
      <trkpt lat="44.6991" lon="3.1702">
        <ele>1182</ele>
        <time>2013-07-24T08:48:09Z</time>
      </trkpt>
      <trkpt lat="44.69919" lon="3.17023">
        <ele>1181</ele>
        <time>2013-07-24T08:48:15Z</time>
      </trkpt>
      <trkpt lat="44.69925" lon="3.17024">
        <ele>1181</ele>
        <time>2013-07-24T08:48:19Z</time>
      </trkpt>
      <trkpt lat="44.69931" lon="3.17023">
        <ele>1181</ele>
        <time>2013-07-24T08:48:23Z</time>
      </trkpt>
      <trkpt lat="44.69936" lon="3.17023">
        <ele>1180</ele>
        <time>2013-07-24T08:48:26Z</time>
      </trkpt>
      <trkpt lat="44.69941" lon="3.17023">
        <ele>1180</ele>
        <time>2013-07-24T08:48:29Z</time>
      </trkpt>
      <trkpt lat="44.69948" lon="3.17025">
        <ele>1179</ele>
        <time>2013-07-24T08:48:33Z</time>
      </trkpt>
      <trkpt lat="44.69952" lon="3.17026">
        <ele>1178</ele>
        <time>2013-07-24T08:48:36Z</time>
      </trkpt>
      <trkpt lat="44.69957" lon="3.17029">
        <ele>1178</ele>
        <time>2013-07-24T08:48:40Z</time>
      </trkpt>
      <trkpt lat="44.69962" lon="3.17032">
        <ele>1179</ele>
        <time>2013-07-24T08:48:44Z</time>
      </trkpt>
      <trkpt lat="44.6997" lon="3.17036">
        <ele>1177</ele>
        <time>2013-07-24T08:48:50Z</time>
      </trkpt>
      <trkpt lat="44.69975" lon="3.17039">
        <ele>1174</ele>
        <time>2013-07-24T08:48:54Z</time>
      </trkpt>
      <trkpt lat="44.6998" lon="3.17043">
        <ele>1174</ele>
        <time>2013-07-24T08:48:58Z</time>
      </trkpt>
      <trkpt lat="44.69985" lon="3.17047">
        <ele>1174</ele>
        <time>2013-07-24T08:49:02Z</time>
      </trkpt>
      <trkpt lat="44.69993" lon="3.17053">
        <ele>1172</ele>
        <time>2013-07-24T08:49:07Z</time>
      </trkpt>
      <trkpt lat="44.70002" lon="3.1706">
        <ele>1171</ele>
        <time>2013-07-24T08:49:14Z</time>
      </trkpt>
      <trkpt lat="44.7001" lon="3.17064">
        <ele>1170</ele>
        <time>2013-07-24T08:49:19Z</time>
      </trkpt>
      <trkpt lat="44.70016" lon="3.17065">
        <ele>1170</ele>
        <time>2013-07-24T08:49:21Z</time>
      </trkpt>
      <trkpt lat="44.70021" lon="3.17066">
        <ele>1171</ele>
        <time>2013-07-24T08:49:23Z</time>
      </trkpt>
      <trkpt lat="44.70026" lon="3.17066">
        <ele>1171</ele>
        <time>2013-07-24T08:49:26Z</time>
      </trkpt>
      <trkpt lat="44.70031" lon="3.17067">
        <ele>1173</ele>
        <time>2013-07-24T08:49:30Z</time>
      </trkpt>
      <trkpt lat="44.70037" lon="3.1707">
        <ele>1173</ele>
        <time>2013-07-24T08:49:33Z</time>
      </trkpt>
      <trkpt lat="44.70042" lon="3.17071">
        <ele>1173</ele>
        <time>2013-07-24T08:49:37Z</time>
      </trkpt>
      <trkpt lat="44.70047" lon="3.17073">
        <ele>1174</ele>
        <time>2013-07-24T08:49:41Z</time>
      </trkpt>
      <trkpt lat="44.70053" lon="3.17074">
        <ele>1175</ele>
        <time>2013-07-24T08:49:44Z</time>
      </trkpt>
      <trkpt lat="44.70057" lon="3.17076">
        <ele>1175</ele>
        <time>2013-07-24T08:49:47Z</time>
      </trkpt>
      <trkpt lat="44.70063" lon="3.17079">
        <ele>1175</ele>
        <time>2013-07-24T08:49:51Z</time>
      </trkpt>
      <trkpt lat="44.70068" lon="3.17081">
        <ele>1174</ele>
        <time>2013-07-24T08:49:54Z</time>
      </trkpt>
      <trkpt lat="44.70072" lon="3.17083">
        <ele>1173</ele>
        <time>2013-07-24T08:49:57Z</time>
      </trkpt>
      <trkpt lat="44.70077" lon="3.17086">
        <ele>1172</ele>
        <time>2013-07-24T08:50:01Z</time>
      </trkpt>
      <trkpt lat="44.70081" lon="3.1709">
        <ele>1172</ele>
        <time>2013-07-24T08:50:04Z</time>
      </trkpt>
      <trkpt lat="44.70087" lon="3.17092">
        <ele>1171</ele>
        <time>2013-07-24T08:50:08Z</time>
      </trkpt>
      <trkpt lat="44.70092" lon="3.17094">
        <ele>1171</ele>
        <time>2013-07-24T08:50:12Z</time>
      </trkpt>
      <trkpt lat="44.70098" lon="3.17097">
        <ele>1170</ele>
        <time>2013-07-24T08:50:16Z</time>
      </trkpt>
      <trkpt lat="44.70102" lon="3.17099">
        <ele>1169</ele>
        <time>2013-07-24T08:50:19Z</time>
      </trkpt>
      <trkpt lat="44.70107" lon="3.17101">
        <ele>1168</ele>
        <time>2013-07-24T08:50:22Z</time>
      </trkpt>
      <trkpt lat="44.70112" lon="3.17102">
        <ele>1168</ele>
        <time>2013-07-24T08:50:25Z</time>
      </trkpt>
      <trkpt lat="44.70117" lon="3.17104">
        <ele>1168</ele>
        <time>2013-07-24T08:50:28Z</time>
      </trkpt>
      <trkpt lat="44.70122" lon="3.17105">
        <ele>1169</ele>
        <time>2013-07-24T08:50:32Z</time>
      </trkpt>
      <trkpt lat="44.70128" lon="3.17105">
        <ele>1170</ele>
        <time>2013-07-24T08:50:36Z</time>
      </trkpt>
      <trkpt lat="44.70132" lon="3.17107">
        <ele>1169</ele>
        <time>2013-07-24T08:50:39Z</time>
      </trkpt>
      <trkpt lat="44.70137" lon="3.17108">
        <ele>1169</ele>
        <time>2013-07-24T08:50:42Z</time>
      </trkpt>
      <trkpt lat="44.70142" lon="3.17109">
        <ele>1169</ele>
        <time>2013-07-24T08:50:46Z</time>
      </trkpt>
      <trkpt lat="44.70147" lon="3.1711">
        <ele>1170</ele>
        <time>2013-07-24T08:50:50Z</time>
      </trkpt>
      <trkpt lat="44.70152" lon="3.17111">
        <ele>1171</ele>
        <time>2013-07-24T08:50:54Z</time>
      </trkpt>
      <trkpt lat="44.70157" lon="3.17112">
        <ele>1171</ele>
        <time>2013-07-24T08:50:57Z</time>
      </trkpt>
      <trkpt lat="44.70163" lon="3.17113">
        <ele>1170</ele>
        <time>2013-07-24T08:51:01Z</time>
      </trkpt>
      <trkpt lat="44.70168" lon="3.17115">
        <ele>1170</ele>
        <time>2013-07-24T08:51:05Z</time>
      </trkpt>
      <trkpt lat="44.70173" lon="3.17116">
        <ele>1169</ele>
        <time>2013-07-24T08:51:08Z</time>
      </trkpt>
      <trkpt lat="44.70179" lon="3.17117">
        <ele>1168</ele>
        <time>2013-07-24T08:51:12Z</time>
      </trkpt>
      <trkpt lat="44.70184" lon="3.17117">
        <ele>1168</ele>
        <time>2013-07-24T08:51:15Z</time>
      </trkpt>
      <trkpt lat="44.70193" lon="3.17117">
        <ele>1167</ele>
        <time>2013-07-24T08:51:22Z</time>
      </trkpt>
      <trkpt lat="44.70198" lon="3.17118">
        <ele>1166</ele>
        <time>2013-07-24T08:51:26Z</time>
      </trkpt>
      <trkpt lat="44.70204" lon="3.1712">
        <ele>1167</ele>
        <time>2013-07-24T08:51:30Z</time>
      </trkpt>
      <trkpt lat="44.70214" lon="3.17122">
        <ele>1166</ele>
        <time>2013-07-24T08:51:37Z</time>
      </trkpt>
      <trkpt lat="44.70224" lon="3.17125">
        <ele>1166</ele>
        <time>2013-07-24T08:51:43Z</time>
      </trkpt>
      <trkpt lat="44.70233" lon="3.17128">
        <ele>1165</ele>
        <time>2013-07-24T08:51:49Z</time>
      </trkpt>
      <trkpt lat="44.70241" lon="3.17128">
        <ele>1164</ele>
        <time>2013-07-24T08:51:55Z</time>
      </trkpt>
      <trkpt lat="44.7025" lon="3.17127">
        <ele>1165</ele>
        <time>2013-07-24T08:52:01Z</time>
      </trkpt>
      <trkpt lat="44.7026" lon="3.17128">
        <ele>1166</ele>
        <time>2013-07-24T08:52:08Z</time>
      </trkpt>
      <trkpt lat="44.70266" lon="3.17128">
        <ele>1166</ele>
        <time>2013-07-24T08:52:12Z</time>
      </trkpt>
      <trkpt lat="44.70271" lon="3.17128">
        <ele>1165</ele>
        <time>2013-07-24T08:52:15Z</time>
      </trkpt>
      <trkpt lat="44.7028" lon="3.17133">
        <ele>1164</ele>
        <time>2013-07-24T08:52:21Z</time>
      </trkpt>
      <trkpt lat="44.7029" lon="3.17134">
        <ele>1165</ele>
        <time>2013-07-24T08:52:28Z</time>
      </trkpt>
      <trkpt lat="44.70297" lon="3.17136">
        <ele>1165</ele>
        <time>2013-07-24T08:52:36Z</time>
      </trkpt>
      <trkpt lat="44.70302" lon="3.1714">
        <ele>1165</ele>
        <time>2013-07-24T08:52:42Z</time>
      </trkpt>
      <trkpt lat="44.70303" lon="3.17147">
        <ele>1165</ele>
        <time>2013-07-24T08:52:47Z</time>
      </trkpt>
      <trkpt lat="44.703" lon="3.17153">
        <ele>1165</ele>
        <time>2013-07-24T08:52:52Z</time>
      </trkpt>
      <trkpt lat="44.70299" lon="3.17161">
        <ele>1166</ele>
        <time>2013-07-24T08:52:57Z</time>
      </trkpt>
      <trkpt lat="44.70296" lon="3.1717">
        <ele>1167</ele>
        <time>2013-07-24T08:53:02Z</time>
      </trkpt>
      <trkpt lat="44.70295" lon="3.17176">
        <ele>1167</ele>
        <time>2013-07-24T08:53:05Z</time>
      </trkpt>
      <trkpt lat="44.70289" lon="3.17189">
        <ele>1167</ele>
        <time>2013-07-24T08:53:12Z</time>
      </trkpt>
      <trkpt lat="44.70286" lon="3.17196">
        <ele>1167</ele>
        <time>2013-07-24T08:53:16Z</time>
      </trkpt>
      <trkpt lat="44.70284" lon="3.17202">
        <ele>1167</ele>
        <time>2013-07-24T08:53:19Z</time>
      </trkpt>
      <trkpt lat="44.70282" lon="3.17208">
        <ele>1166</ele>
        <time>2013-07-24T08:53:23Z</time>
      </trkpt>
      <trkpt lat="44.70279" lon="3.17213">
        <ele>1166</ele>
        <time>2013-07-24T08:53:26Z</time>
      </trkpt>
      <trkpt lat="44.70277" lon="3.17218">
        <ele>1166</ele>
        <time>2013-07-24T08:53:29Z</time>
      </trkpt>
      <trkpt lat="44.70275" lon="3.17224">
        <ele>1165</ele>
        <time>2013-07-24T08:53:32Z</time>
      </trkpt>
      <trkpt lat="44.70272" lon="3.17229">
        <ele>1164</ele>
        <time>2013-07-24T08:53:36Z</time>
      </trkpt>
      <trkpt lat="44.70269" lon="3.17236">
        <ele>1164</ele>
        <time>2013-07-24T08:53:40Z</time>
      </trkpt>
      <trkpt lat="44.70266" lon="3.17241">
        <ele>1163</ele>
        <time>2013-07-24T08:53:43Z</time>
      </trkpt>
      <trkpt lat="44.70264" lon="3.17247">
        <ele>1163</ele>
        <time>2013-07-24T08:53:46Z</time>
      </trkpt>
      <trkpt lat="44.70261" lon="3.17253">
        <ele>1164</ele>
        <time>2013-07-24T08:53:49Z</time>
      </trkpt>
      <trkpt lat="44.70258" lon="3.17258">
        <ele>1164</ele>
        <time>2013-07-24T08:53:52Z</time>
      </trkpt>
      <trkpt lat="44.70256" lon="3.17265">
        <ele>1165</ele>
        <time>2013-07-24T08:53:56Z</time>
      </trkpt>
      <trkpt lat="44.70255" lon="3.17272">
        <ele>1166</ele>
        <time>2013-07-24T08:54:00Z</time>
      </trkpt>
      <trkpt lat="44.70254" lon="3.17279">
        <ele>1167</ele>
        <time>2013-07-24T08:54:04Z</time>
      </trkpt>
      <trkpt lat="44.70254" lon="3.17286">
        <ele>1167</ele>
        <time>2013-07-24T08:54:07Z</time>
      </trkpt>
      <trkpt lat="44.70254" lon="3.17296">
        <ele>1166</ele>
        <time>2013-07-24T08:54:12Z</time>
      </trkpt>
      <trkpt lat="44.70253" lon="3.17303">
        <ele>1166</ele>
        <time>2013-07-24T08:54:16Z</time>
      </trkpt>
      <trkpt lat="44.70252" lon="3.17311">
        <ele>1165</ele>
        <time>2013-07-24T08:54:21Z</time>
      </trkpt>
      <trkpt lat="44.7025" lon="3.17318">
        <ele>1165</ele>
        <time>2013-07-24T08:54:25Z</time>
      </trkpt>
      <trkpt lat="44.70247" lon="3.17325">
        <ele>1164</ele>
        <time>2013-07-24T08:54:29Z</time>
      </trkpt>
      <trkpt lat="44.70242" lon="3.17336">
        <ele>1164</ele>
        <time>2013-07-24T08:54:36Z</time>
      </trkpt>
      <trkpt lat="44.7024" lon="3.17346">
        <ele>1165</ele>
        <time>2013-07-24T08:54:41Z</time>
      </trkpt>
      <trkpt lat="44.70239" lon="3.17353">
        <ele>1165</ele>
        <time>2013-07-24T08:54:44Z</time>
      </trkpt>
      <trkpt lat="44.70237" lon="3.17359">
        <ele>1166</ele>
        <time>2013-07-24T08:54:48Z</time>
      </trkpt>
      <trkpt lat="44.70236" lon="3.17367">
        <ele>1166</ele>
        <time>2013-07-24T08:54:52Z</time>
      </trkpt>
      <trkpt lat="44.70235" lon="3.17374">
        <ele>1166</ele>
        <time>2013-07-24T08:54:56Z</time>
      </trkpt>
      <trkpt lat="44.70234" lon="3.1738">
        <ele>1167</ele>
        <time>2013-07-24T08:54:59Z</time>
      </trkpt>
      <trkpt lat="44.70234" lon="3.17388">
        <ele>1168</ele>
        <time>2013-07-24T08:55:03Z</time>
      </trkpt>
      <trkpt lat="44.70234" lon="3.17395">
        <ele>1169</ele>
        <time>2013-07-24T08:55:07Z</time>
      </trkpt>
      <trkpt lat="44.70234" lon="3.17402">
        <ele>1170</ele>
        <time>2013-07-24T08:55:11Z</time>
      </trkpt>
      <trkpt lat="44.70235" lon="3.17415">
        <ele>1170</ele>
        <time>2013-07-24T08:55:19Z</time>
      </trkpt>
      <trkpt lat="44.70235" lon="3.17421">
        <ele>1170</ele>
        <time>2013-07-24T08:55:21Z</time>
      </trkpt>
      <trkpt lat="44.70234" lon="3.17434">
        <ele>1170</ele>
        <time>2013-07-24T08:55:27Z</time>
      </trkpt>
      <trkpt lat="44.70233" lon="3.17442">
        <ele>1170</ele>
        <time>2013-07-24T08:55:31Z</time>
      </trkpt>
      <trkpt lat="44.70233" lon="3.17456">
        <ele>1171</ele>
        <time>2013-07-24T08:55:39Z</time>
      </trkpt>
      <trkpt lat="44.70232" lon="3.17469">
        <ele>1171</ele>
        <time>2013-07-24T08:55:46Z</time>
      </trkpt>
      <trkpt lat="44.70231" lon="3.17481">
        <ele>1171</ele>
        <time>2013-07-24T08:55:52Z</time>
      </trkpt>
      <trkpt lat="44.70232" lon="3.17491">
        <ele>1171</ele>
        <time>2013-07-24T08:55:57Z</time>
      </trkpt>
      <trkpt lat="44.70233" lon="3.175">
        <ele>1172</ele>
        <time>2013-07-24T08:56:02Z</time>
      </trkpt>
      <trkpt lat="44.70237" lon="3.17512">
        <ele>1170</ele>
        <time>2013-07-24T08:56:09Z</time>
      </trkpt>
      <trkpt lat="44.70241" lon="3.17525">
        <ele>1167</ele>
        <time>2013-07-24T08:56:17Z</time>
      </trkpt>
      <trkpt lat="44.70242" lon="3.17532">
        <ele>1168</ele>
        <time>2013-07-24T08:56:20Z</time>
      </trkpt>
      <trkpt lat="44.70243" lon="3.17539">
        <ele>1169</ele>
        <time>2013-07-24T08:56:24Z</time>
      </trkpt>
      <trkpt lat="44.70244" lon="3.17545">
        <ele>1169</ele>
        <time>2013-07-24T08:56:27Z</time>
      </trkpt>
      <trkpt lat="44.70247" lon="3.17558">
        <ele>1169</ele>
        <time>2013-07-24T08:56:33Z</time>
      </trkpt>
      <trkpt lat="44.70249" lon="3.17564">
        <ele>1168</ele>
        <time>2013-07-24T08:56:36Z</time>
      </trkpt>
      <trkpt lat="44.70255" lon="3.17579">
        <ele>1168</ele>
        <time>2013-07-24T08:56:44Z</time>
      </trkpt>
      <trkpt lat="44.70258" lon="3.17591">
        <ele>1167</ele>
        <time>2013-07-24T08:56:50Z</time>
      </trkpt>
      <trkpt lat="44.70263" lon="3.17606">
        <ele>1166</ele>
        <time>2013-07-24T08:56:57Z</time>
      </trkpt>
      <trkpt lat="44.70267" lon="3.17611">
        <ele>1165</ele>
        <time>2013-07-24T08:57:01Z</time>
      </trkpt>
      <trkpt lat="44.70269" lon="3.17624">
        <ele>1162</ele>
        <time>2013-07-24T08:57:09Z</time>
      </trkpt>
      <trkpt lat="44.70275" lon="3.17635">
        <ele>1160</ele>
        <time>2013-07-24T08:57:16Z</time>
      </trkpt>
      <trkpt lat="44.7028" lon="3.17646">
        <ele>1158</ele>
        <time>2013-07-24T08:57:24Z</time>
      </trkpt>
      <trkpt lat="44.70284" lon="3.17658">
        <ele>1156</ele>
        <time>2013-07-24T08:57:31Z</time>
      </trkpt>
      <trkpt lat="44.70291" lon="3.17667">
        <ele>1156</ele>
        <time>2013-07-24T08:57:37Z</time>
      </trkpt>
      <trkpt lat="44.70294" lon="3.1768">
        <ele>1157</ele>
        <time>2013-07-24T08:57:43Z</time>
      </trkpt>
      <trkpt lat="44.70298" lon="3.17692">
        <ele>1158</ele>
        <time>2013-07-24T08:57:48Z</time>
      </trkpt>
      <trkpt lat="44.703" lon="3.17699">
        <ele>1159</ele>
        <time>2013-07-24T08:57:51Z</time>
      </trkpt>
      <trkpt lat="44.70304" lon="3.17705">
        <ele>1161</ele>
        <time>2013-07-24T08:57:55Z</time>
      </trkpt>
      <trkpt lat="44.70306" lon="3.17711">
        <ele>1162</ele>
        <time>2013-07-24T08:57:58Z</time>
      </trkpt>
      <trkpt lat="44.70308" lon="3.17719">
        <ele>1161</ele>
        <time>2013-07-24T08:58:04Z</time>
      </trkpt>
      <trkpt lat="44.70311" lon="3.17725">
        <ele>1161</ele>
        <time>2013-07-24T08:58:08Z</time>
      </trkpt>
      <trkpt lat="44.70313" lon="3.17731">
        <ele>1161</ele>
        <time>2013-07-24T08:58:12Z</time>
      </trkpt>
      <trkpt lat="44.70316" lon="3.17737">
        <ele>1161</ele>
        <time>2013-07-24T08:58:14Z</time>
      </trkpt>
      <trkpt lat="44.70318" lon="3.17742">
        <ele>1160</ele>
        <time>2013-07-24T08:58:17Z</time>
      </trkpt>
      <trkpt lat="44.70321" lon="3.1775">
        <ele>1158</ele>
        <time>2013-07-24T08:58:21Z</time>
      </trkpt>
      <trkpt lat="44.70325" lon="3.17761">
        <ele>1156</ele>
        <time>2013-07-24T08:58:27Z</time>
      </trkpt>
      <trkpt lat="44.70328" lon="3.17768">
        <ele>1157</ele>
        <time>2013-07-24T08:58:31Z</time>
      </trkpt>
      <trkpt lat="44.70331" lon="3.17774">
        <ele>1157</ele>
        <time>2013-07-24T08:58:34Z</time>
      </trkpt>
      <trkpt lat="44.70334" lon="3.17781">
        <ele>1158</ele>
        <time>2013-07-24T08:58:39Z</time>
      </trkpt>
      <trkpt lat="44.70338" lon="3.17786">
        <ele>1158</ele>
        <time>2013-07-24T08:58:42Z</time>
      </trkpt>
      <trkpt lat="44.70341" lon="3.17791">
        <ele>1158</ele>
        <time>2013-07-24T08:58:45Z</time>
      </trkpt>
      <trkpt lat="44.70344" lon="3.17799">
        <ele>1158</ele>
        <time>2013-07-24T08:58:49Z</time>
      </trkpt>
      <trkpt lat="44.70348" lon="3.17806">
        <ele>1158</ele>
        <time>2013-07-24T08:58:55Z</time>
      </trkpt>
      <trkpt lat="44.70351" lon="3.17814">
        <ele>1158</ele>
        <time>2013-07-24T08:58:59Z</time>
      </trkpt>
      <trkpt lat="44.70355" lon="3.17821">
        <ele>1157</ele>
        <time>2013-07-24T08:59:07Z</time>
      </trkpt>
      <trkpt lat="44.70357" lon="3.17825">
        <ele>1156</ele>
        <time>2013-07-24T08:59:25Z</time>
      </trkpt>
      <trkpt lat="44.70361" lon="3.1783">
        <ele>1156</ele>
        <time>2013-07-24T08:59:33Z</time>
      </trkpt>
      <trkpt lat="44.70358" lon="3.17834">
        <ele>1158</ele>
        <time>2013-07-24T09:00:46Z</time>
      </trkpt>
      <trkpt lat="44.70364" lon="3.17846">
        <ele>1158</ele>
        <time>2013-07-24T09:01:10Z</time>
      </trkpt>
      <trkpt lat="44.70368" lon="3.1785">
        <ele>1158</ele>
        <time>2013-07-24T09:01:13Z</time>
      </trkpt>
      <trkpt lat="44.70372" lon="3.17856">
        <ele>1157</ele>
        <time>2013-07-24T09:01:19Z</time>
      </trkpt>
      <trkpt lat="44.70375" lon="3.17865">
        <ele>1156</ele>
        <time>2013-07-24T09:01:24Z</time>
      </trkpt>
      <trkpt lat="44.70378" lon="3.1787">
        <ele>1157</ele>
        <time>2013-07-24T09:01:28Z</time>
      </trkpt>
      <trkpt lat="44.70381" lon="3.17875">
        <ele>1157</ele>
        <time>2013-07-24T09:01:32Z</time>
      </trkpt>
      <trkpt lat="44.70384" lon="3.17881">
        <ele>1157</ele>
        <time>2013-07-24T09:01:38Z</time>
      </trkpt>
      <trkpt lat="44.70387" lon="3.17888">
        <ele>1157</ele>
        <time>2013-07-24T09:01:43Z</time>
      </trkpt>
      <trkpt lat="44.7039" lon="3.17894">
        <ele>1156</ele>
        <time>2013-07-24T09:01:46Z</time>
      </trkpt>
      <trkpt lat="44.70393" lon="3.17899">
        <ele>1156</ele>
        <time>2013-07-24T09:01:49Z</time>
      </trkpt>
      <trkpt lat="44.70397" lon="3.17905">
        <ele>1157</ele>
        <time>2013-07-24T09:01:53Z</time>
      </trkpt>
      <trkpt lat="44.70398" lon="3.17909">
        <ele>1158</ele>
        <time>2013-07-24T09:02:01Z</time>
      </trkpt>
      <trkpt lat="44.704" lon="3.17912">
        <ele>1160</ele>
        <time>2013-07-24T09:02:21Z</time>
      </trkpt>
      <trkpt lat="44.704" lon="3.17917">
        <ele>1160</ele>
        <time>2013-07-24T09:02:33Z</time>
      </trkpt>
      <trkpt lat="44.70403" lon="3.17926">
        <ele>1159</ele>
        <time>2013-07-24T09:02:39Z</time>
      </trkpt>
      <trkpt lat="44.70405" lon="3.17939">
        <ele>1157</ele>
        <time>2013-07-24T09:02:47Z</time>
      </trkpt>
      <trkpt lat="44.70407" lon="3.17952">
        <ele>1156</ele>
        <time>2013-07-24T09:02:55Z</time>
      </trkpt>
      <trkpt lat="44.70408" lon="3.17966">
        <ele>1155</ele>
        <time>2013-07-24T09:03:01Z</time>
      </trkpt>
      <trkpt lat="44.70409" lon="3.17976">
        <ele>1156</ele>
        <time>2013-07-24T09:03:06Z</time>
      </trkpt>
      <trkpt lat="44.7041" lon="3.17991">
        <ele>1155</ele>
        <time>2013-07-24T09:03:14Z</time>
      </trkpt>
      <trkpt lat="44.70412" lon="3.18005">
        <ele>1154</ele>
        <time>2013-07-24T09:03:21Z</time>
      </trkpt>
      <trkpt lat="44.70414" lon="3.18018">
        <ele>1153</ele>
        <time>2013-07-24T09:03:27Z</time>
      </trkpt>
      <trkpt lat="44.70414" lon="3.18031">
        <ele>1154</ele>
        <time>2013-07-24T09:03:34Z</time>
      </trkpt>
      <trkpt lat="44.70415" lon="3.18039">
        <ele>1156</ele>
        <time>2013-07-24T09:03:40Z</time>
      </trkpt>
      <trkpt lat="44.70417" lon="3.18053">
        <ele>1157</ele>
        <time>2013-07-24T09:03:46Z</time>
      </trkpt>
      <trkpt lat="44.70417" lon="3.1806">
        <ele>1160</ele>
        <time>2013-07-24T09:03:50Z</time>
      </trkpt>
      <trkpt lat="44.70417" lon="3.18067">
        <ele>1162</ele>
        <time>2013-07-24T09:03:58Z</time>
      </trkpt>
      <trkpt lat="44.70418" lon="3.18075">
        <ele>1161</ele>
        <time>2013-07-24T09:04:00Z</time>
      </trkpt>
      <trkpt lat="44.70419" lon="3.18084">
        <ele>1162</ele>
        <time>2013-07-24T09:04:04Z</time>
      </trkpt>
      <trkpt lat="44.7042" lon="3.18092">
        <ele>1163</ele>
        <time>2013-07-24T09:04:09Z</time>
      </trkpt>
      <trkpt lat="44.70421" lon="3.18104">
        <ele>1165</ele>
        <time>2013-07-24T09:04:17Z</time>
      </trkpt>
      <trkpt lat="44.70421" lon="3.18112">
        <ele>1165</ele>
        <time>2013-07-24T09:04:20Z</time>
      </trkpt>
      <trkpt lat="44.70421" lon="3.1812">
        <ele>1166</ele>
        <time>2013-07-24T09:04:24Z</time>
      </trkpt>
      <trkpt lat="44.70421" lon="3.18127">
        <ele>1167</ele>
        <time>2013-07-24T09:04:28Z</time>
      </trkpt>
      <trkpt lat="44.70423" lon="3.18135">
        <ele>1167</ele>
        <time>2013-07-24T09:04:32Z</time>
      </trkpt>
      <trkpt lat="44.70426" lon="3.18147">
        <ele>1168</ele>
        <time>2013-07-24T09:04:40Z</time>
      </trkpt>
      <trkpt lat="44.70431" lon="3.18158">
        <ele>1168</ele>
        <time>2013-07-24T09:04:47Z</time>
      </trkpt>
      <trkpt lat="44.70432" lon="3.18166">
        <ele>1170</ele>
        <time>2013-07-24T09:05:11Z</time>
      </trkpt>
      <trkpt lat="44.70434" lon="3.18173">
        <ele>1170</ele>
        <time>2013-07-24T09:05:15Z</time>
      </trkpt>
      <trkpt lat="44.70437" lon="3.1818">
        <ele>1170</ele>
        <time>2013-07-24T09:05:19Z</time>
      </trkpt>
      <trkpt lat="44.7044" lon="3.18186">
        <ele>1170</ele>
        <time>2013-07-24T09:05:23Z</time>
      </trkpt>
      <trkpt lat="44.70442" lon="3.18193">
        <ele>1170</ele>
        <time>2013-07-24T09:05:27Z</time>
      </trkpt>
      <trkpt lat="44.70446" lon="3.18203">
        <ele>1170</ele>
        <time>2013-07-24T09:05:32Z</time>
      </trkpt>
      <trkpt lat="44.70448" lon="3.18216">
        <ele>1170</ele>
        <time>2013-07-24T09:05:38Z</time>
      </trkpt>
      <trkpt lat="44.70452" lon="3.18228">
        <ele>1170</ele>
        <time>2013-07-24T09:05:45Z</time>
      </trkpt>
      <trkpt lat="44.70457" lon="3.1824">
        <ele>1169</ele>
        <time>2013-07-24T09:05:52Z</time>
      </trkpt>
      <trkpt lat="44.70459" lon="3.18247">
        <ele>1169</ele>
        <time>2013-07-24T09:05:56Z</time>
      </trkpt>
      <trkpt lat="44.70462" lon="3.18256">
        <ele>1168</ele>
        <time>2013-07-24T09:06:01Z</time>
      </trkpt>
      <trkpt lat="44.70464" lon="3.18264">
        <ele>1168</ele>
        <time>2013-07-24T09:06:06Z</time>
      </trkpt>
      <trkpt lat="44.70466" lon="3.1827">
        <ele>1169</ele>
        <time>2013-07-24T09:06:10Z</time>
      </trkpt>
      <trkpt lat="44.7047" lon="3.18278">
        <ele>1169</ele>
        <time>2013-07-24T09:06:15Z</time>
      </trkpt>
      <trkpt lat="44.70472" lon="3.18284">
        <ele>1169</ele>
        <time>2013-07-24T09:06:19Z</time>
      </trkpt>
      <trkpt lat="44.70476" lon="3.18291">
        <ele>1169</ele>
        <time>2013-07-24T09:06:23Z</time>
      </trkpt>
      <trkpt lat="44.70478" lon="3.18297">
        <ele>1170</ele>
        <time>2013-07-24T09:06:27Z</time>
      </trkpt>
      <trkpt lat="44.70479" lon="3.18307">
        <ele>1170</ele>
        <time>2013-07-24T09:06:33Z</time>
      </trkpt>
      <trkpt lat="44.70481" lon="3.18314">
        <ele>1170</ele>
        <time>2013-07-24T09:06:36Z</time>
      </trkpt>
      <trkpt lat="44.70487" lon="3.18325">
        <ele>1169</ele>
        <time>2013-07-24T09:06:44Z</time>
      </trkpt>
      <trkpt lat="44.70488" lon="3.18333">
        <ele>1169</ele>
        <time>2013-07-24T09:06:49Z</time>
      </trkpt>
      <trkpt lat="44.7049" lon="3.1834">
        <ele>1168</ele>
        <time>2013-07-24T09:06:53Z</time>
      </trkpt>
      <trkpt lat="44.70492" lon="3.18347">
        <ele>1167</ele>
        <time>2013-07-24T09:06:56Z</time>
      </trkpt>
      <trkpt lat="44.70495" lon="3.18352">
        <ele>1167</ele>
        <time>2013-07-24T09:06:59Z</time>
      </trkpt>
      <trkpt lat="44.70497" lon="3.18359">
        <ele>1166</ele>
        <time>2013-07-24T09:07:03Z</time>
      </trkpt>
      <trkpt lat="44.705" lon="3.18364">
        <ele>1166</ele>
        <time>2013-07-24T09:07:07Z</time>
      </trkpt>
      <trkpt lat="44.70501" lon="3.18371">
        <ele>1167</ele>
        <time>2013-07-24T09:07:12Z</time>
      </trkpt>
      <trkpt lat="44.70504" lon="3.18378">
        <ele>1168</ele>
        <time>2013-07-24T09:07:17Z</time>
      </trkpt>
      <trkpt lat="44.70506" lon="3.18383">
        <ele>1169</ele>
        <time>2013-07-24T09:07:21Z</time>
      </trkpt>
      <trkpt lat="44.70508" lon="3.18389">
        <ele>1169</ele>
        <time>2013-07-24T09:07:25Z</time>
      </trkpt>
      <trkpt lat="44.70509" lon="3.18396">
        <ele>1169</ele>
        <time>2013-07-24T09:07:29Z</time>
      </trkpt>
      <trkpt lat="44.70512" lon="3.18403">
        <ele>1169</ele>
        <time>2013-07-24T09:07:33Z</time>
      </trkpt>
      <trkpt lat="44.70514" lon="3.18411">
        <ele>1169</ele>
        <time>2013-07-24T09:07:38Z</time>
      </trkpt>
      <trkpt lat="44.70516" lon="3.18417">
        <ele>1170</ele>
        <time>2013-07-24T09:07:43Z</time>
      </trkpt>
      <trkpt lat="44.70519" lon="3.18423">
        <ele>1171</ele>
        <time>2013-07-24T09:07:48Z</time>
      </trkpt>
      <trkpt lat="44.70521" lon="3.18429">
        <ele>1171</ele>
        <time>2013-07-24T09:07:51Z</time>
      </trkpt>
      <trkpt lat="44.70524" lon="3.18436">
        <ele>1172</ele>
        <time>2013-07-24T09:07:55Z</time>
      </trkpt>
      <trkpt lat="44.70526" lon="3.18441">
        <ele>1172</ele>
        <time>2013-07-24T09:07:59Z</time>
      </trkpt>
      <trkpt lat="44.70529" lon="3.18448">
        <ele>1172</ele>
        <time>2013-07-24T09:08:04Z</time>
      </trkpt>
      <trkpt lat="44.70531" lon="3.18456">
        <ele>1172</ele>
        <time>2013-07-24T09:08:08Z</time>
      </trkpt>
      <trkpt lat="44.70533" lon="3.18462">
        <ele>1171</ele>
        <time>2013-07-24T09:08:12Z</time>
      </trkpt>
      <trkpt lat="44.70535" lon="3.18468">
        <ele>1170</ele>
        <time>2013-07-24T09:08:16Z</time>
      </trkpt>
      <trkpt lat="44.70538" lon="3.18475">
        <ele>1169</ele>
        <time>2013-07-24T09:08:21Z</time>
      </trkpt>
      <trkpt lat="44.70539" lon="3.18483">
        <ele>1169</ele>
        <time>2013-07-24T09:08:25Z</time>
      </trkpt>
      <trkpt lat="44.70543" lon="3.18492">
        <ele>1169</ele>
        <time>2013-07-24T09:08:30Z</time>
      </trkpt>
      <trkpt lat="44.70545" lon="3.18498">
        <ele>1170</ele>
        <time>2013-07-24T09:08:33Z</time>
      </trkpt>
      <trkpt lat="44.70549" lon="3.18509">
        <ele>1170</ele>
        <time>2013-07-24T09:08:40Z</time>
      </trkpt>
      <trkpt lat="44.70553" lon="3.18517">
        <ele>1171</ele>
        <time>2013-07-24T09:08:45Z</time>
      </trkpt>
      <trkpt lat="44.70556" lon="3.18531">
        <ele>1171</ele>
        <time>2013-07-24T09:08:53Z</time>
      </trkpt>
      <trkpt lat="44.70557" lon="3.18539">
        <ele>1170</ele>
        <time>2013-07-24T09:08:57Z</time>
      </trkpt>
      <trkpt lat="44.70559" lon="3.18546">
        <ele>1170</ele>
        <time>2013-07-24T09:09:00Z</time>
      </trkpt>
      <trkpt lat="44.70561" lon="3.18553">
        <ele>1171</ele>
        <time>2013-07-24T09:09:04Z</time>
      </trkpt>
      <trkpt lat="44.70564" lon="3.18558">
        <ele>1172</ele>
        <time>2013-07-24T09:09:07Z</time>
      </trkpt>
      <trkpt lat="44.70567" lon="3.18565">
        <ele>1173</ele>
        <time>2013-07-24T09:09:11Z</time>
      </trkpt>
      <trkpt lat="44.7057" lon="3.1857">
        <ele>1174</ele>
        <time>2013-07-24T09:09:14Z</time>
      </trkpt>
      <trkpt lat="44.70573" lon="3.18577">
        <ele>1174</ele>
        <time>2013-07-24T09:09:18Z</time>
      </trkpt>
      <trkpt lat="44.70575" lon="3.18582">
        <ele>1174</ele>
        <time>2013-07-24T09:09:23Z</time>
      </trkpt>
      <trkpt lat="44.70577" lon="3.1859">
        <ele>1174</ele>
        <time>2013-07-24T09:09:27Z</time>
      </trkpt>
      <trkpt lat="44.7058" lon="3.18595">
        <ele>1173</ele>
        <time>2013-07-24T09:09:30Z</time>
      </trkpt>
      <trkpt lat="44.70583" lon="3.18603">
        <ele>1173</ele>
        <time>2013-07-24T09:09:34Z</time>
      </trkpt>
      <trkpt lat="44.70585" lon="3.1861">
        <ele>1173</ele>
        <time>2013-07-24T09:09:38Z</time>
      </trkpt>
      <trkpt lat="44.70589" lon="3.18621">
        <ele>1172</ele>
        <time>2013-07-24T09:09:44Z</time>
      </trkpt>
      <trkpt lat="44.70591" lon="3.18627">
        <ele>1173</ele>
        <time>2013-07-24T09:09:48Z</time>
      </trkpt>
      <trkpt lat="44.70594" lon="3.18634">
        <ele>1173</ele>
        <time>2013-07-24T09:09:53Z</time>
      </trkpt>
      <trkpt lat="44.70596" lon="3.18641">
        <ele>1173</ele>
        <time>2013-07-24T09:09:57Z</time>
      </trkpt>
      <trkpt lat="44.70599" lon="3.18647">
        <ele>1173</ele>
        <time>2013-07-24T09:10:01Z</time>
      </trkpt>
      <trkpt lat="44.70602" lon="3.18654">
        <ele>1173</ele>
        <time>2013-07-24T09:10:05Z</time>
      </trkpt>
      <trkpt lat="44.70604" lon="3.1866">
        <ele>1174</ele>
        <time>2013-07-24T09:10:09Z</time>
      </trkpt>
      <trkpt lat="44.70609" lon="3.18671">
        <ele>1174</ele>
        <time>2013-07-24T09:10:15Z</time>
      </trkpt>
      <trkpt lat="44.70611" lon="3.18677">
        <ele>1174</ele>
        <time>2013-07-24T09:10:18Z</time>
      </trkpt>
      <trkpt lat="44.70613" lon="3.18685">
        <ele>1175</ele>
        <time>2013-07-24T09:10:23Z</time>
      </trkpt>
      <trkpt lat="44.70616" lon="3.18692">
        <ele>1176</ele>
        <time>2013-07-24T09:10:27Z</time>
      </trkpt>
      <trkpt lat="44.7062" lon="3.18705">
        <ele>1175</ele>
        <time>2013-07-24T09:10:36Z</time>
      </trkpt>
      <trkpt lat="44.70621" lon="3.18713">
        <ele>1176</ele>
        <time>2013-07-24T09:10:41Z</time>
      </trkpt>
      <trkpt lat="44.70623" lon="3.1872">
        <ele>1177</ele>
        <time>2013-07-24T09:10:45Z</time>
      </trkpt>
      <trkpt lat="44.70626" lon="3.18726">
        <ele>1177</ele>
        <time>2013-07-24T09:10:48Z</time>
      </trkpt>
      <trkpt lat="44.70627" lon="3.18732">
        <ele>1176</ele>
        <time>2013-07-24T09:10:52Z</time>
      </trkpt>
      <trkpt lat="44.7063" lon="3.18741">
        <ele>1177</ele>
        <time>2013-07-24T09:10:57Z</time>
      </trkpt>
      <trkpt lat="44.70632" lon="3.18747">
        <ele>1178</ele>
        <time>2013-07-24T09:11:00Z</time>
      </trkpt>
      <trkpt lat="44.70635" lon="3.18755">
        <ele>1179</ele>
        <time>2013-07-24T09:11:03Z</time>
      </trkpt>
      <trkpt lat="44.70637" lon="3.18761">
        <ele>1179</ele>
        <time>2013-07-24T09:11:06Z</time>
      </trkpt>
      <trkpt lat="44.70639" lon="3.18768">
        <ele>1180</ele>
        <time>2013-07-24T09:11:10Z</time>
      </trkpt>
      <trkpt lat="44.70642" lon="3.18774">
        <ele>1180</ele>
        <time>2013-07-24T09:11:13Z</time>
      </trkpt>
      <trkpt lat="44.70645" lon="3.1878">
        <ele>1180</ele>
        <time>2013-07-24T09:11:17Z</time>
      </trkpt>
      <trkpt lat="44.70648" lon="3.18786">
        <ele>1181</ele>
        <time>2013-07-24T09:11:21Z</time>
      </trkpt>
      <trkpt lat="44.70651" lon="3.18792">
        <ele>1181</ele>
        <time>2013-07-24T09:11:25Z</time>
      </trkpt>
      <trkpt lat="44.70654" lon="3.18797">
        <ele>1181</ele>
        <time>2013-07-24T09:11:29Z</time>
      </trkpt>
      <trkpt lat="44.70656" lon="3.18797">
        <ele>1181</ele>
        <time>2013-07-24T09:11:41Z</time>
      </trkpt>
      <trkpt lat="44.70654" lon="3.18801">
        <ele>1184</ele>
        <time>2013-07-24T09:12:13Z</time>
      </trkpt>
      <trkpt lat="44.70652" lon="3.18806">
        <ele>1184</ele>
        <time>2013-07-24T09:12:18Z</time>
      </trkpt>
      <trkpt lat="44.7065" lon="3.18812">
        <ele>1184</ele>
        <time>2013-07-24T09:12:21Z</time>
      </trkpt>
      <trkpt lat="44.70646" lon="3.18818">
        <ele>1184</ele>
        <time>2013-07-24T09:12:25Z</time>
      </trkpt>
      <trkpt lat="44.70648" lon="3.18815">
        <ele>1182</ele>
        <time>2013-07-24T09:13:42Z</time>
      </trkpt>
      <trkpt lat="44.70653" lon="3.18813">
        <ele>1181</ele>
        <time>2013-07-24T09:13:46Z</time>
      </trkpt>
      <trkpt lat="44.70657" lon="3.18808">
        <ele>1181</ele>
        <time>2013-07-24T09:13:51Z</time>
      </trkpt>
      <trkpt lat="44.70655" lon="3.18805">
        <ele>1180</ele>
        <time>2013-07-24T09:15:59Z</time>
      </trkpt>
      <trkpt lat="44.70661" lon="3.18805">
        <ele>1180</ele>
        <time>2013-07-24T09:16:42Z</time>
      </trkpt>
      <trkpt lat="44.7067" lon="3.18814">
        <ele>1179</ele>
        <time>2013-07-24T09:17:00Z</time>
      </trkpt>
      <trkpt lat="44.70677" lon="3.18824">
        <ele>1177</ele>
        <time>2013-07-24T09:17:06Z</time>
      </trkpt>
      <trkpt lat="44.7068" lon="3.18836">
        <ele>1176</ele>
        <time>2013-07-24T09:17:12Z</time>
      </trkpt>
      <trkpt lat="44.70686" lon="3.1885">
        <ele>1174</ele>
        <time>2013-07-24T09:17:24Z</time>
      </trkpt>
      <trkpt lat="44.70695" lon="3.18864">
        <ele>1172</ele>
        <time>2013-07-24T09:17:37Z</time>
      </trkpt>
      <trkpt lat="44.707" lon="3.18878">
        <ele>1179</ele>
        <time>2013-07-24T09:18:15Z</time>
      </trkpt>
      <trkpt lat="44.70694" lon="3.18892">
        <ele>1180</ele>
        <time>2013-07-24T09:18:45Z</time>
      </trkpt>
      <trkpt lat="44.70695" lon="3.18908">
        <ele>1178</ele>
        <time>2013-07-24T09:18:54Z</time>
      </trkpt>
      <trkpt lat="44.70695" lon="3.18923">
        <ele>1177</ele>
        <time>2013-07-24T09:19:00Z</time>
      </trkpt>
      <trkpt lat="44.70695" lon="3.18939">
        <ele>1175</ele>
        <time>2013-07-24T09:19:06Z</time>
      </trkpt>
      <trkpt lat="44.70694" lon="3.18949">
        <ele>1175</ele>
        <time>2013-07-24T09:19:25Z</time>
      </trkpt>
      <trkpt lat="44.70693" lon="3.18964">
        <ele>1175</ele>
        <time>2013-07-24T09:19:27Z</time>
      </trkpt>
      <trkpt lat="44.70693" lon="3.18979">
        <ele>1175</ele>
        <time>2013-07-24T09:19:32Z</time>
      </trkpt>
      <trkpt lat="44.70693" lon="3.18992">
        <ele>1176</ele>
        <time>2013-07-24T09:19:37Z</time>
      </trkpt>
      <trkpt lat="44.70704" lon="3.18997">
        <ele>1174</ele>
        <time>2013-07-24T09:19:52Z</time>
      </trkpt>
      <trkpt lat="44.70709" lon="3.19008">
        <ele>1174</ele>
        <time>2013-07-24T09:19:59Z</time>
      </trkpt>
      <trkpt lat="44.70703" lon="3.19025">
        <ele>1172</ele>
        <time>2013-07-24T09:20:04Z</time>
      </trkpt>
      <trkpt lat="44.707" lon="3.19039">
        <ele>1170</ele>
        <time>2013-07-24T09:20:08Z</time>
      </trkpt>
      <trkpt lat="44.70696" lon="3.19053">
        <ele>1168</ele>
        <time>2013-07-24T09:20:13Z</time>
      </trkpt>
      <trkpt lat="44.70694" lon="3.19071">
        <ele>1167</ele>
        <time>2013-07-24T09:20:24Z</time>
      </trkpt>
      <trkpt lat="44.70693" lon="3.19085">
        <ele>1166</ele>
        <time>2013-07-24T09:20:31Z</time>
      </trkpt>
      <trkpt lat="44.70697" lon="3.19109">
        <ele>1169</ele>
        <time>2013-07-24T09:20:46Z</time>
      </trkpt>
      <trkpt lat="44.70696" lon="3.19125">
        <ele>1170</ele>
        <time>2013-07-24T09:20:51Z</time>
      </trkpt>
      <trkpt lat="44.70694" lon="3.1914">
        <ele>1173</ele>
        <time>2013-07-24T09:20:56Z</time>
      </trkpt>
      <trkpt lat="44.70694" lon="3.19153">
        <ele>1176</ele>
        <time>2013-07-24T09:21:02Z</time>
      </trkpt>
      <trkpt lat="44.70693" lon="3.19167">
        <ele>1177</ele>
        <time>2013-07-24T09:21:15Z</time>
      </trkpt>
      <trkpt lat="44.70693" lon="3.19187">
        <ele>1176</ele>
        <time>2013-07-24T09:21:34Z</time>
      </trkpt>
      <trkpt lat="44.70691" lon="3.19202">
        <ele>1176</ele>
        <time>2013-07-24T09:21:39Z</time>
      </trkpt>
      <trkpt lat="44.70692" lon="3.19215">
        <ele>1176</ele>
        <time>2013-07-24T09:21:45Z</time>
      </trkpt>
      <trkpt lat="44.70692" lon="3.19229">
        <ele>1177</ele>
        <time>2013-07-24T09:21:49Z</time>
      </trkpt>
      <trkpt lat="44.7069" lon="3.19244">
        <ele>1178</ele>
        <time>2013-07-24T09:21:54Z</time>
      </trkpt>
      <trkpt lat="44.70687" lon="3.19256">
        <ele>1180</ele>
        <time>2013-07-24T09:22:02Z</time>
      </trkpt>
      <trkpt lat="44.70684" lon="3.1927">
        <ele>1180</ele>
        <time>2013-07-24T09:22:09Z</time>
      </trkpt>
      <trkpt lat="44.7068" lon="3.19271">
        <ele>1179</ele>
        <time>2013-07-24T09:22:42Z</time>
      </trkpt>
      <trkpt lat="44.70671" lon="3.19296">
        <ele>1174</ele>
        <time>2013-07-24T09:24:39Z</time>
      </trkpt>
      <trkpt lat="44.70673" lon="3.19282">
        <ele>1177</ele>
        <time>2013-07-24T09:24:55Z</time>
      </trkpt>
      <trkpt lat="44.70675" lon="3.19276">
        <ele>1176</ele>
        <time>2013-07-24T09:25:01Z</time>
      </trkpt>
      <trkpt lat="44.70677" lon="3.19273">
        <ele>1179</ele>
        <time>2013-07-24T09:26:15Z</time>
      </trkpt>
      <trkpt lat="44.70678" lon="3.19269">
        <ele>1183</ele>
        <time>2013-07-24T09:28:45Z</time>
      </trkpt>
      <trkpt lat="44.70681" lon="3.19269">
        <ele>1182</ele>
        <time>2013-07-24T09:30:40Z</time>
      </trkpt>
      <trkpt lat="44.70682" lon="3.19272">
        <ele>1181</ele>
        <time>2013-07-24T09:31:13Z</time>
      </trkpt>
      <trkpt lat="44.70684" lon="3.19277">
        <ele>1181</ele>
        <time>2013-07-24T09:31:36Z</time>
      </trkpt>
      <trkpt lat="44.70684" lon="3.19284">
        <ele>1181</ele>
        <time>2013-07-24T09:31:43Z</time>
      </trkpt>
      <trkpt lat="44.70687" lon="3.19291">
        <ele>1181</ele>
        <time>2013-07-24T09:31:48Z</time>
      </trkpt>
      <trkpt lat="44.70687" lon="3.19298">
        <ele>1182</ele>
        <time>2013-07-24T09:31:53Z</time>
      </trkpt>
      <trkpt lat="44.70687" lon="3.19305">
        <ele>1183</ele>
        <time>2013-07-24T09:32:00Z</time>
      </trkpt>
      <trkpt lat="44.70686" lon="3.19312">
        <ele>1182</ele>
        <time>2013-07-24T09:32:07Z</time>
      </trkpt>
      <trkpt lat="44.70687" lon="3.19325">
        <ele>1181</ele>
        <time>2013-07-24T09:32:16Z</time>
      </trkpt>
      <trkpt lat="44.70686" lon="3.19334">
        <ele>1180</ele>
        <time>2013-07-24T09:32:21Z</time>
      </trkpt>
      <trkpt lat="44.70685" lon="3.19347">
        <ele>1180</ele>
        <time>2013-07-24T09:32:32Z</time>
      </trkpt>
      <trkpt lat="44.70684" lon="3.19355">
        <ele>1179</ele>
        <time>2013-07-24T09:32:51Z</time>
      </trkpt>
      <trkpt lat="44.70684" lon="3.19362">
        <ele>1178</ele>
        <time>2013-07-24T09:32:54Z</time>
      </trkpt>
      <trkpt lat="44.70684" lon="3.1937">
        <ele>1177</ele>
        <time>2013-07-24T09:32:58Z</time>
      </trkpt>
      <trkpt lat="44.70685" lon="3.19378">
        <ele>1176</ele>
        <time>2013-07-24T09:33:04Z</time>
      </trkpt>
      <trkpt lat="44.70687" lon="3.19384">
        <ele>1176</ele>
        <time>2013-07-24T09:33:09Z</time>
      </trkpt>
      <trkpt lat="44.70689" lon="3.19394">
        <ele>1177</ele>
        <time>2013-07-24T09:33:15Z</time>
      </trkpt>
      <trkpt lat="44.7069" lon="3.19401">
        <ele>1178</ele>
        <time>2013-07-24T09:33:19Z</time>
      </trkpt>
      <trkpt lat="44.70692" lon="3.19407">
        <ele>1178</ele>
        <time>2013-07-24T09:33:23Z</time>
      </trkpt>
      <trkpt lat="44.70694" lon="3.19416">
        <ele>1178</ele>
        <time>2013-07-24T09:33:28Z</time>
      </trkpt>
      <trkpt lat="44.70695" lon="3.19423">
        <ele>1179</ele>
        <time>2013-07-24T09:33:32Z</time>
      </trkpt>
      <trkpt lat="44.70697" lon="3.19429">
        <ele>1177</ele>
        <time>2013-07-24T09:33:37Z</time>
      </trkpt>
      <trkpt lat="44.70698" lon="3.19436">
        <ele>1176</ele>
        <time>2013-07-24T09:33:41Z</time>
      </trkpt>
      <trkpt lat="44.70699" lon="3.19443">
        <ele>1175</ele>
        <time>2013-07-24T09:33:45Z</time>
      </trkpt>
      <trkpt lat="44.707" lon="3.19451">
        <ele>1175</ele>
        <time>2013-07-24T09:33:49Z</time>
      </trkpt>
      <trkpt lat="44.70701" lon="3.19462">
        <ele>1176</ele>
        <time>2013-07-24T09:33:55Z</time>
      </trkpt>
      <trkpt lat="44.707" lon="3.19468">
        <ele>1175</ele>
        <time>2013-07-24T09:33:59Z</time>
      </trkpt>
      <trkpt lat="44.70701" lon="3.19477">
        <ele>1175</ele>
        <time>2013-07-24T09:34:03Z</time>
      </trkpt>
      <trkpt lat="44.70701" lon="3.19483">
        <ele>1175</ele>
        <time>2013-07-24T09:34:08Z</time>
      </trkpt>
      <trkpt lat="44.70702" lon="3.1949">
        <ele>1176</ele>
        <time>2013-07-24T09:34:13Z</time>
      </trkpt>
      <trkpt lat="44.70701" lon="3.19497">
        <ele>1178</ele>
        <time>2013-07-24T09:34:19Z</time>
      </trkpt>
      <trkpt lat="44.707" lon="3.19513">
        <ele>1178</ele>
        <time>2013-07-24T09:34:31Z</time>
      </trkpt>
      <trkpt lat="44.70699" lon="3.19522">
        <ele>1176</ele>
        <time>2013-07-24T09:34:35Z</time>
      </trkpt>
      <trkpt lat="44.70701" lon="3.19536">
        <ele>1173</ele>
        <time>2013-07-24T09:34:45Z</time>
      </trkpt>
      <trkpt lat="44.70702" lon="3.19549">
        <ele>1169</ele>
        <time>2013-07-24T09:34:53Z</time>
      </trkpt>
      <trkpt lat="44.70703" lon="3.19563">
        <ele>1166</ele>
        <time>2013-07-24T09:35:01Z</time>
      </trkpt>
      <trkpt lat="44.70702" lon="3.19576">
        <ele>1164</ele>
        <time>2013-07-24T09:35:09Z</time>
      </trkpt>
      <trkpt lat="44.70702" lon="3.1959">
        <ele>1164</ele>
        <time>2013-07-24T09:35:18Z</time>
      </trkpt>
      <trkpt lat="44.70703" lon="3.19604">
        <ele>1164</ele>
        <time>2013-07-24T09:35:28Z</time>
      </trkpt>
      <trkpt lat="44.70703" lon="3.19617">
        <ele>1160</ele>
        <time>2013-07-24T09:35:36Z</time>
      </trkpt>
      <trkpt lat="44.70702" lon="3.19631">
        <ele>1159</ele>
        <time>2013-07-24T09:35:42Z</time>
      </trkpt>
      <trkpt lat="44.70701" lon="3.19644">
        <ele>1155</ele>
        <time>2013-07-24T09:35:50Z</time>
      </trkpt>
      <trkpt lat="44.707" lon="3.19657">
        <ele>1151</ele>
        <time>2013-07-24T09:35:59Z</time>
      </trkpt>
      <trkpt lat="44.70699" lon="3.19672">
        <ele>1151</ele>
        <time>2013-07-24T09:36:07Z</time>
      </trkpt>
      <trkpt lat="44.70698" lon="3.19687">
        <ele>1151</ele>
        <time>2013-07-24T09:36:11Z</time>
      </trkpt>
      <trkpt lat="44.70695" lon="3.197">
        <ele>1152</ele>
        <time>2013-07-24T09:36:15Z</time>
      </trkpt>
      <trkpt lat="44.70693" lon="3.19712">
        <ele>1154</ele>
        <time>2013-07-24T09:36:18Z</time>
      </trkpt>
      <trkpt lat="44.70691" lon="3.19725">
        <ele>1156</ele>
        <time>2013-07-24T09:36:24Z</time>
      </trkpt>
      <trkpt lat="44.70691" lon="3.19739">
        <ele>1158</ele>
        <time>2013-07-24T09:36:30Z</time>
      </trkpt>
      <trkpt lat="44.70687" lon="3.19753">
        <ele>1158</ele>
        <time>2013-07-24T09:36:35Z</time>
      </trkpt>
      <trkpt lat="44.7068" lon="3.19768">
        <ele>1160</ele>
        <time>2013-07-24T09:36:43Z</time>
      </trkpt>
      <trkpt lat="44.70678" lon="3.19802">
        <ele>1162</ele>
        <time>2013-07-24T09:37:09Z</time>
      </trkpt>
      <trkpt lat="44.70675" lon="3.19816">
        <ele>1161</ele>
        <time>2013-07-24T09:37:17Z</time>
      </trkpt>
      <trkpt lat="44.70674" lon="3.19823">
        <ele>1162</ele>
        <time>2013-07-24T09:37:20Z</time>
      </trkpt>
      <trkpt lat="44.70672" lon="3.19836">
        <ele>1162</ele>
        <time>2013-07-24T09:37:31Z</time>
      </trkpt>
      <trkpt lat="44.7067" lon="3.19848">
        <ele>1160</ele>
        <time>2013-07-24T09:37:36Z</time>
      </trkpt>
      <trkpt lat="44.70668" lon="3.19862">
        <ele>1156</ele>
        <time>2013-07-24T09:37:44Z</time>
      </trkpt>
      <trkpt lat="44.70666" lon="3.19879">
        <ele>1153</ele>
        <time>2013-07-24T09:38:01Z</time>
      </trkpt>
      <trkpt lat="44.70664" lon="3.19894">
        <ele>1156</ele>
        <time>2013-07-24T09:38:13Z</time>
      </trkpt>
      <trkpt lat="44.70664" lon="3.199">
        <ele>1158</ele>
        <time>2013-07-24T09:38:18Z</time>
      </trkpt>
      <trkpt lat="44.70667" lon="3.19914">
        <ele>1159</ele>
        <time>2013-07-24T09:38:25Z</time>
      </trkpt>
      <trkpt lat="44.70667" lon="3.19928">
        <ele>1160</ele>
        <time>2013-07-24T09:38:34Z</time>
      </trkpt>
      <trkpt lat="44.7067" lon="3.19941">
        <ele>1157</ele>
        <time>2013-07-24T09:38:42Z</time>
      </trkpt>
      <trkpt lat="44.70676" lon="3.19955">
        <ele>1154</ele>
        <time>2013-07-24T09:38:51Z</time>
      </trkpt>
      <trkpt lat="44.70681" lon="3.1997">
        <ele>1149</ele>
        <time>2013-07-24T09:39:02Z</time>
      </trkpt>
      <trkpt lat="44.70685" lon="3.19986">
        <ele>1146</ele>
        <time>2013-07-24T09:39:09Z</time>
      </trkpt>
      <trkpt lat="44.7069" lon="3.19996">
        <ele>1145</ele>
        <time>2013-07-24T09:39:16Z</time>
      </trkpt>
      <trkpt lat="44.70692" lon="3.20011">
        <ele>1144</ele>
        <time>2013-07-24T09:39:22Z</time>
      </trkpt>
      <trkpt lat="44.70699" lon="3.20021">
        <ele>1143</ele>
        <time>2013-07-24T09:39:30Z</time>
      </trkpt>
      <trkpt lat="44.70702" lon="3.20037">
        <ele>1140</ele>
        <time>2013-07-24T09:39:39Z</time>
      </trkpt>
      <trkpt lat="44.70704" lon="3.2005">
        <ele>1139</ele>
        <time>2013-07-24T09:39:46Z</time>
      </trkpt>
      <trkpt lat="44.70707" lon="3.20064">
        <ele>1139</ele>
        <time>2013-07-24T09:39:57Z</time>
      </trkpt>
      <trkpt lat="44.70711" lon="3.20077">
        <ele>1139</ele>
        <time>2013-07-24T09:40:07Z</time>
      </trkpt>
      <trkpt lat="44.70714" lon="3.20093">
        <ele>1138</ele>
        <time>2013-07-24T09:40:16Z</time>
      </trkpt>
      <trkpt lat="44.70718" lon="3.20105">
        <ele>1136</ele>
        <time>2013-07-24T09:40:24Z</time>
      </trkpt>
      <trkpt lat="44.70723" lon="3.20121">
        <ele>1133</ele>
        <time>2013-07-24T09:40:36Z</time>
      </trkpt>
      <trkpt lat="44.70728" lon="3.20139">
        <ele>1133</ele>
        <time>2013-07-24T09:40:43Z</time>
      </trkpt>
      <trkpt lat="44.70733" lon="3.20151">
        <ele>1132</ele>
        <time>2013-07-24T09:40:48Z</time>
      </trkpt>
      <trkpt lat="44.70737" lon="3.20164">
        <ele>1133</ele>
        <time>2013-07-24T09:40:55Z</time>
      </trkpt>
      <trkpt lat="44.70739" lon="3.20171">
        <ele>1133</ele>
        <time>2013-07-24T09:40:59Z</time>
      </trkpt>
      <trkpt lat="44.7074" lon="3.20178">
        <ele>1135</ele>
        <time>2013-07-24T09:41:02Z</time>
      </trkpt>
      <trkpt lat="44.70741" lon="3.20185">
        <ele>1136</ele>
        <time>2013-07-24T09:41:07Z</time>
      </trkpt>
      <trkpt lat="44.70739" lon="3.20203">
        <ele>1132</ele>
        <time>2013-07-24T09:41:19Z</time>
      </trkpt>
      <trkpt lat="44.70739" lon="3.2021">
        <ele>1131</ele>
        <time>2013-07-24T09:41:24Z</time>
      </trkpt>
      <trkpt lat="44.70738" lon="3.20217">
        <ele>1130</ele>
        <time>2013-07-24T09:41:27Z</time>
      </trkpt>
      <trkpt lat="44.70738" lon="3.20224">
        <ele>1130</ele>
        <time>2013-07-24T09:41:32Z</time>
      </trkpt>
      <trkpt lat="44.70738" lon="3.20239">
        <ele>1129</ele>
        <time>2013-07-24T09:41:40Z</time>
      </trkpt>
      <trkpt lat="44.70739" lon="3.20252">
        <ele>1126</ele>
        <time>2013-07-24T09:41:47Z</time>
      </trkpt>
      <trkpt lat="44.70742" lon="3.20264">
        <ele>1124</ele>
        <time>2013-07-24T09:41:55Z</time>
      </trkpt>
      <trkpt lat="44.70749" lon="3.20274">
        <ele>1122</ele>
        <time>2013-07-24T09:42:04Z</time>
      </trkpt>
      <trkpt lat="44.70757" lon="3.20282">
        <ele>1123</ele>
        <time>2013-07-24T09:42:13Z</time>
      </trkpt>
      <trkpt lat="44.70765" lon="3.20286">
        <ele>1126</ele>
        <time>2013-07-24T09:42:20Z</time>
      </trkpt>
      <trkpt lat="44.70773" lon="3.20293">
        <ele>1126</ele>
        <time>2013-07-24T09:42:27Z</time>
      </trkpt>
      <trkpt lat="44.70779" lon="3.20298">
        <ele>1127</ele>
        <time>2013-07-24T09:42:32Z</time>
      </trkpt>
      <trkpt lat="44.70784" lon="3.20303">
        <ele>1126</ele>
        <time>2013-07-24T09:42:45Z</time>
      </trkpt>
      <trkpt lat="44.70789" lon="3.20313">
        <ele>1125</ele>
        <time>2013-07-24T09:42:53Z</time>
      </trkpt>
      <trkpt lat="44.70793" lon="3.20318">
        <ele>1126</ele>
        <time>2013-07-24T09:42:56Z</time>
      </trkpt>
      <trkpt lat="44.70795" lon="3.2032">
        <ele>1127</ele>
        <time>2013-07-24T09:43:03Z</time>
      </trkpt>
      <trkpt lat="44.708" lon="3.20322">
        <ele>1127</ele>
        <time>2013-07-24T09:43:15Z</time>
      </trkpt>
      <trkpt lat="44.70803" lon="3.20323">
        <ele>1131</ele>
        <time>2013-07-24T09:44:45Z</time>
      </trkpt>
      <trkpt lat="44.7081" lon="3.20332">
        <ele>1132</ele>
        <time>2013-07-24T09:45:04Z</time>
      </trkpt>
      <trkpt lat="44.70815" lon="3.20345">
        <ele>1132</ele>
        <time>2013-07-24T09:45:11Z</time>
      </trkpt>
      <trkpt lat="44.7082" lon="3.20355">
        <ele>1131</ele>
        <time>2013-07-24T09:45:16Z</time>
      </trkpt>
      <trkpt lat="44.70822" lon="3.20361">
        <ele>1129</ele>
        <time>2013-07-24T09:45:19Z</time>
      </trkpt>
      <trkpt lat="44.70825" lon="3.20374">
        <ele>1126</ele>
        <time>2013-07-24T09:45:26Z</time>
      </trkpt>
      <trkpt lat="44.70831" lon="3.20386">
        <ele>1123</ele>
        <time>2013-07-24T09:45:32Z</time>
      </trkpt>
      <trkpt lat="44.70835" lon="3.20391">
        <ele>1122</ele>
        <time>2013-07-24T09:45:35Z</time>
      </trkpt>
      <trkpt lat="44.70843" lon="3.20399">
        <ele>1123</ele>
        <time>2013-07-24T09:45:42Z</time>
      </trkpt>
      <trkpt lat="44.7085" lon="3.2041">
        <ele>1124</ele>
        <time>2013-07-24T09:45:49Z</time>
      </trkpt>
      <trkpt lat="44.70855" lon="3.20425">
        <ele>1124</ele>
        <time>2013-07-24T09:45:56Z</time>
      </trkpt>
      <trkpt lat="44.70859" lon="3.20438">
        <ele>1122</ele>
        <time>2013-07-24T09:46:03Z</time>
      </trkpt>
      <trkpt lat="44.70863" lon="3.20452">
        <ele>1123</ele>
        <time>2013-07-24T09:46:10Z</time>
      </trkpt>
      <trkpt lat="44.70864" lon="3.20468">
        <ele>1125</ele>
        <time>2013-07-24T09:46:16Z</time>
      </trkpt>
      <trkpt lat="44.70859" lon="3.20479">
        <ele>1125</ele>
        <time>2013-07-24T09:46:24Z</time>
      </trkpt>
      <trkpt lat="44.70856" lon="3.20491">
        <ele>1124</ele>
        <time>2013-07-24T09:46:29Z</time>
      </trkpt>
      <trkpt lat="44.70856" lon="3.20504">
        <ele>1124</ele>
        <time>2013-07-24T09:46:35Z</time>
      </trkpt>
      <trkpt lat="44.70857" lon="3.20511">
        <ele>1124</ele>
        <time>2013-07-24T09:46:38Z</time>
      </trkpt>
      <trkpt lat="44.70856" lon="3.20525">
        <ele>1124</ele>
        <time>2013-07-24T09:46:47Z</time>
      </trkpt>
      <trkpt lat="44.70857" lon="3.2054">
        <ele>1123</ele>
        <time>2013-07-24T09:46:53Z</time>
      </trkpt>
      <trkpt lat="44.7086" lon="3.20554">
        <ele>1122</ele>
        <time>2013-07-24T09:47:01Z</time>
      </trkpt>
      <trkpt lat="44.70865" lon="3.20566">
        <ele>1122</ele>
        <time>2013-07-24T09:47:08Z</time>
      </trkpt>
      <trkpt lat="44.70869" lon="3.2058">
        <ele>1125</ele>
        <time>2013-07-24T09:47:15Z</time>
      </trkpt>
      <trkpt lat="44.70874" lon="3.20592">
        <ele>1127</ele>
        <time>2013-07-24T09:47:22Z</time>
      </trkpt>
      <trkpt lat="44.7088" lon="3.20602">
        <ele>1128</ele>
        <time>2013-07-24T09:47:29Z</time>
      </trkpt>
      <trkpt lat="44.70885" lon="3.20613">
        <ele>1127</ele>
        <time>2013-07-24T09:47:36Z</time>
      </trkpt>
      <trkpt lat="44.70892" lon="3.20623">
        <ele>1126</ele>
        <time>2013-07-24T09:47:43Z</time>
      </trkpt>
      <trkpt lat="44.70897" lon="3.20629">
        <ele>1126</ele>
        <time>2013-07-24T09:47:47Z</time>
      </trkpt>
      <trkpt lat="44.70903" lon="3.20641">
        <ele>1125</ele>
        <time>2013-07-24T09:47:55Z</time>
      </trkpt>
      <trkpt lat="44.70908" lon="3.20652">
        <ele>1126</ele>
        <time>2013-07-24T09:48:02Z</time>
      </trkpt>
      <trkpt lat="44.70913" lon="3.20665">
        <ele>1128</ele>
        <time>2013-07-24T09:48:09Z</time>
      </trkpt>
      <trkpt lat="44.70916" lon="3.2068">
        <ele>1128</ele>
        <time>2013-07-24T09:48:16Z</time>
      </trkpt>
      <trkpt lat="44.70921" lon="3.20692">
        <ele>1130</ele>
        <time>2013-07-24T09:48:27Z</time>
      </trkpt>
      <trkpt lat="44.70924" lon="3.20706">
        <ele>1131</ele>
        <time>2013-07-24T09:48:33Z</time>
      </trkpt>
      <trkpt lat="44.70928" lon="3.20722">
        <ele>1135</ele>
        <time>2013-07-24T09:48:41Z</time>
      </trkpt>
      <trkpt lat="44.70931" lon="3.20736">
        <ele>1135</ele>
        <time>2013-07-24T09:48:49Z</time>
      </trkpt>
      <trkpt lat="44.70932" lon="3.20749">
        <ele>1134</ele>
        <time>2013-07-24T09:48:57Z</time>
      </trkpt>
      <trkpt lat="44.70937" lon="3.20762">
        <ele>1134</ele>
        <time>2013-07-24T09:49:05Z</time>
      </trkpt>
      <trkpt lat="44.70937" lon="3.20774">
        <ele>1133</ele>
        <time>2013-07-24T09:49:10Z</time>
      </trkpt>
      <trkpt lat="44.70937" lon="3.20781">
        <ele>1132</ele>
        <time>2013-07-24T09:49:13Z</time>
      </trkpt>
      <trkpt lat="44.7094" lon="3.20794">
        <ele>1134</ele>
        <time>2013-07-24T09:49:20Z</time>
      </trkpt>
      <trkpt lat="44.70941" lon="3.20808">
        <ele>1137</ele>
        <time>2013-07-24T09:49:27Z</time>
      </trkpt>
      <trkpt lat="44.70942" lon="3.20821">
        <ele>1138</ele>
        <time>2013-07-24T09:49:33Z</time>
      </trkpt>
      <trkpt lat="44.70944" lon="3.20836">
        <ele>1139</ele>
        <time>2013-07-24T09:49:41Z</time>
      </trkpt>
      <trkpt lat="44.70947" lon="3.20849">
        <ele>1139</ele>
        <time>2013-07-24T09:49:49Z</time>
      </trkpt>
      <trkpt lat="44.70947" lon="3.20862">
        <ele>1139</ele>
        <time>2013-07-24T09:49:56Z</time>
      </trkpt>
      <trkpt lat="44.70946" lon="3.20878">
        <ele>1137</ele>
        <time>2013-07-24T09:50:04Z</time>
      </trkpt>
      <trkpt lat="44.70949" lon="3.20892">
        <ele>1137</ele>
        <time>2013-07-24T09:50:12Z</time>
      </trkpt>
      <trkpt lat="44.70949" lon="3.20905">
        <ele>1135</ele>
        <time>2013-07-24T09:50:18Z</time>
      </trkpt>
      <trkpt lat="44.70952" lon="3.20916">
        <ele>1135</ele>
        <time>2013-07-24T09:50:25Z</time>
      </trkpt>
      <trkpt lat="44.70955" lon="3.20929">
        <ele>1135</ele>
        <time>2013-07-24T09:50:33Z</time>
      </trkpt>
      <trkpt lat="44.70957" lon="3.20942">
        <ele>1136</ele>
        <time>2013-07-24T09:50:45Z</time>
      </trkpt>
      <trkpt lat="44.70959" lon="3.20956">
        <ele>1135</ele>
        <time>2013-07-24T09:50:51Z</time>
      </trkpt>
      <trkpt lat="44.70961" lon="3.20971">
        <ele>1134</ele>
        <time>2013-07-24T09:50:57Z</time>
      </trkpt>
      <trkpt lat="44.70962" lon="3.20984">
        <ele>1134</ele>
        <time>2013-07-24T09:51:05Z</time>
      </trkpt>
      <trkpt lat="44.70963" lon="3.20997">
        <ele>1134</ele>
        <time>2013-07-24T09:51:10Z</time>
      </trkpt>
      <trkpt lat="44.70965" lon="3.2101">
        <ele>1133</ele>
        <time>2013-07-24T09:51:16Z</time>
      </trkpt>
      <trkpt lat="44.70967" lon="3.21023">
        <ele>1131</ele>
        <time>2013-07-24T09:51:23Z</time>
      </trkpt>
      <trkpt lat="44.70971" lon="3.21039">
        <ele>1129</ele>
        <time>2013-07-24T09:51:31Z</time>
      </trkpt>
      <trkpt lat="44.70973" lon="3.21052">
        <ele>1130</ele>
        <time>2013-07-24T09:51:37Z</time>
      </trkpt>
      <trkpt lat="44.70975" lon="3.21065">
        <ele>1132</ele>
        <time>2013-07-24T09:51:43Z</time>
      </trkpt>
      <trkpt lat="44.70981" lon="3.21076">
        <ele>1135</ele>
        <time>2013-07-24T09:51:49Z</time>
      </trkpt>
      <trkpt lat="44.70985" lon="3.21081">
        <ele>1136</ele>
        <time>2013-07-24T09:51:52Z</time>
      </trkpt>
      <trkpt lat="44.70987" lon="3.21087">
        <ele>1138</ele>
        <time>2013-07-24T09:51:56Z</time>
      </trkpt>
      <trkpt lat="44.70989" lon="3.21094">
        <ele>1140</ele>
        <time>2013-07-24T09:52:01Z</time>
      </trkpt>
      <trkpt lat="44.70992" lon="3.21102">
        <ele>1139</ele>
        <time>2013-07-24T09:52:06Z</time>
      </trkpt>
      <trkpt lat="44.70992" lon="3.21109">
        <ele>1140</ele>
        <time>2013-07-24T09:52:10Z</time>
      </trkpt>
      <trkpt lat="44.70993" lon="3.21117">
        <ele>1140</ele>
        <time>2013-07-24T09:52:14Z</time>
      </trkpt>
      <trkpt lat="44.70994" lon="3.21123">
        <ele>1140</ele>
        <time>2013-07-24T09:52:17Z</time>
      </trkpt>
      <trkpt lat="44.70995" lon="3.21133">
        <ele>1141</ele>
        <time>2013-07-24T09:52:22Z</time>
      </trkpt>
      <trkpt lat="44.70996" lon="3.21139">
        <ele>1141</ele>
        <time>2013-07-24T09:52:26Z</time>
      </trkpt>
      <trkpt lat="44.70997" lon="3.21145">
        <ele>1142</ele>
        <time>2013-07-24T09:52:30Z</time>
      </trkpt>
      <trkpt lat="44.71001" lon="3.21159">
        <ele>1143</ele>
        <time>2013-07-24T09:52:37Z</time>
      </trkpt>
      <trkpt lat="44.71001" lon="3.21167">
        <ele>1143</ele>
        <time>2013-07-24T09:52:41Z</time>
      </trkpt>
      <trkpt lat="44.71005" lon="3.2118">
        <ele>1142</ele>
        <time>2013-07-24T09:52:48Z</time>
      </trkpt>
      <trkpt lat="44.71007" lon="3.21192">
        <ele>1138</ele>
        <time>2013-07-24T09:52:55Z</time>
      </trkpt>
      <trkpt lat="44.71008" lon="3.21206">
        <ele>1137</ele>
        <time>2013-07-24T09:53:01Z</time>
      </trkpt>
      <trkpt lat="44.71009" lon="3.2122">
        <ele>1138</ele>
        <time>2013-07-24T09:53:06Z</time>
      </trkpt>
      <trkpt lat="44.71012" lon="3.21226">
        <ele>1139</ele>
        <time>2013-07-24T09:53:10Z</time>
      </trkpt>
      <trkpt lat="44.71014" lon="3.21232">
        <ele>1140</ele>
        <time>2013-07-24T09:53:14Z</time>
      </trkpt>
      <trkpt lat="44.71017" lon="3.21238">
        <ele>1141</ele>
        <time>2013-07-24T09:53:17Z</time>
      </trkpt>
      <trkpt lat="44.7102" lon="3.21243">
        <ele>1142</ele>
        <time>2013-07-24T09:53:20Z</time>
      </trkpt>
      <trkpt lat="44.71023" lon="3.21249">
        <ele>1143</ele>
        <time>2013-07-24T09:53:24Z</time>
      </trkpt>
      <trkpt lat="44.71026" lon="3.21255">
        <ele>1142</ele>
        <time>2013-07-24T09:53:28Z</time>
      </trkpt>
      <trkpt lat="44.71028" lon="3.21262">
        <ele>1142</ele>
        <time>2013-07-24T09:53:31Z</time>
      </trkpt>
      <trkpt lat="44.71032" lon="3.21268">
        <ele>1143</ele>
        <time>2013-07-24T09:53:35Z</time>
      </trkpt>
      <trkpt lat="44.71032" lon="3.21276">
        <ele>1144</ele>
        <time>2013-07-24T09:53:39Z</time>
      </trkpt>
      <trkpt lat="44.71033" lon="3.21282">
        <ele>1144</ele>
        <time>2013-07-24T09:53:42Z</time>
      </trkpt>
      <trkpt lat="44.71034" lon="3.21292">
        <ele>1146</ele>
        <time>2013-07-24T09:53:47Z</time>
      </trkpt>
      <trkpt lat="44.71036" lon="3.21308">
        <ele>1149</ele>
        <time>2013-07-24T09:53:55Z</time>
      </trkpt>
      <trkpt lat="44.71038" lon="3.21316">
        <ele>1149</ele>
        <time>2013-07-24T09:53:59Z</time>
      </trkpt>
      <trkpt lat="44.71038" lon="3.2133">
        <ele>1147</ele>
        <time>2013-07-24T09:54:06Z</time>
      </trkpt>
      <trkpt lat="44.71038" lon="3.2134">
        <ele>1145</ele>
        <time>2013-07-24T09:54:11Z</time>
      </trkpt>
      <trkpt lat="44.71043" lon="3.21352">
        <ele>1143</ele>
        <time>2013-07-24T09:54:20Z</time>
      </trkpt>
      <trkpt lat="44.71049" lon="3.21363">
        <ele>1142</ele>
        <time>2013-07-24T09:54:31Z</time>
      </trkpt>
      <trkpt lat="44.71055" lon="3.21379">
        <ele>1143</ele>
        <time>2013-07-24T09:54:41Z</time>
      </trkpt>
      <trkpt lat="44.7106" lon="3.21389">
        <ele>1143</ele>
        <time>2013-07-24T09:54:48Z</time>
      </trkpt>
      <trkpt lat="44.71065" lon="3.21401">
        <ele>1143</ele>
        <time>2013-07-24T09:54:55Z</time>
      </trkpt>
      <trkpt lat="44.71069" lon="3.21413">
        <ele>1144</ele>
        <time>2013-07-24T09:55:02Z</time>
      </trkpt>
      <trkpt lat="44.71074" lon="3.21425">
        <ele>1142</ele>
        <time>2013-07-24T09:55:07Z</time>
      </trkpt>
      <trkpt lat="44.71081" lon="3.21434">
        <ele>1138</ele>
        <time>2013-07-24T09:55:12Z</time>
      </trkpt>
      <trkpt lat="44.71087" lon="3.21444">
        <ele>1136</ele>
        <time>2013-07-24T09:55:18Z</time>
      </trkpt>
      <trkpt lat="44.71092" lon="3.21458">
        <ele>1136</ele>
        <time>2013-07-24T09:55:28Z</time>
      </trkpt>
      <trkpt lat="44.71102" lon="3.21466">
        <ele>1137</ele>
        <time>2013-07-24T09:55:35Z</time>
      </trkpt>
      <trkpt lat="44.71108" lon="3.21476">
        <ele>1140</ele>
        <time>2013-07-24T09:55:41Z</time>
      </trkpt>
      <trkpt lat="44.71114" lon="3.21486">
        <ele>1142</ele>
        <time>2013-07-24T09:55:47Z</time>
      </trkpt>
      <trkpt lat="44.71121" lon="3.21494">
        <ele>1146</ele>
        <time>2013-07-24T09:55:53Z</time>
      </trkpt>
      <trkpt lat="44.71126" lon="3.21505">
        <ele>1146</ele>
        <time>2013-07-24T09:56:01Z</time>
      </trkpt>
      <trkpt lat="44.71133" lon="3.21514">
        <ele>1146</ele>
        <time>2013-07-24T09:56:09Z</time>
      </trkpt>
      <trkpt lat="44.71137" lon="3.21528">
        <ele>1146</ele>
        <time>2013-07-24T09:56:17Z</time>
      </trkpt>
      <trkpt lat="44.71142" lon="3.21538">
        <ele>1146</ele>
        <time>2013-07-24T09:56:23Z</time>
      </trkpt>
      <trkpt lat="44.71147" lon="3.2155">
        <ele>1147</ele>
        <time>2013-07-24T09:56:30Z</time>
      </trkpt>
      <trkpt lat="44.71153" lon="3.21562">
        <ele>1143</ele>
        <time>2013-07-24T09:56:38Z</time>
      </trkpt>
      <trkpt lat="44.71161" lon="3.21575">
        <ele>1141</ele>
        <time>2013-07-24T09:56:48Z</time>
      </trkpt>
      <trkpt lat="44.71169" lon="3.21586">
        <ele>1142</ele>
        <time>2013-07-24T09:56:56Z</time>
      </trkpt>
      <trkpt lat="44.71177" lon="3.21602">
        <ele>1146</ele>
        <time>2013-07-24T09:57:08Z</time>
      </trkpt>
      <trkpt lat="44.71183" lon="3.21614">
        <ele>1145</ele>
        <time>2013-07-24T09:57:13Z</time>
      </trkpt>
      <trkpt lat="44.71187" lon="3.21621">
        <ele>1145</ele>
        <time>2013-07-24T09:57:17Z</time>
      </trkpt>
      <trkpt lat="44.71189" lon="3.21634">
        <ele>1143</ele>
        <time>2013-07-24T09:57:24Z</time>
      </trkpt>
      <trkpt lat="44.71191" lon="3.21648">
        <ele>1143</ele>
        <time>2013-07-24T09:57:30Z</time>
      </trkpt>
      <trkpt lat="44.71191" lon="3.21662">
        <ele>1141</ele>
        <time>2013-07-24T09:57:37Z</time>
      </trkpt>
      <trkpt lat="44.71191" lon="3.21676">
        <ele>1138</ele>
        <time>2013-07-24T09:57:43Z</time>
      </trkpt>
      <trkpt lat="44.7119" lon="3.21689">
        <ele>1136</ele>
        <time>2013-07-24T09:57:49Z</time>
      </trkpt>
      <trkpt lat="44.71188" lon="3.21703">
        <ele>1134</ele>
        <time>2013-07-24T09:57:55Z</time>
      </trkpt>
      <trkpt lat="44.71186" lon="3.21716">
        <ele>1132</ele>
        <time>2013-07-24T09:58:01Z</time>
      </trkpt>
      <trkpt lat="44.71186" lon="3.2173">
        <ele>1131</ele>
        <time>2013-07-24T09:58:06Z</time>
      </trkpt>
      <trkpt lat="44.71186" lon="3.21739">
        <ele>1131</ele>
        <time>2013-07-24T09:58:09Z</time>
      </trkpt>
      <trkpt lat="44.71187" lon="3.21757">
        <ele>1130</ele>
        <time>2013-07-24T09:58:16Z</time>
      </trkpt>
      <trkpt lat="44.71188" lon="3.21772">
        <ele>1130</ele>
        <time>2013-07-24T09:58:24Z</time>
      </trkpt>
      <trkpt lat="44.71187" lon="3.21786">
        <ele>1130</ele>
        <time>2013-07-24T09:58:34Z</time>
      </trkpt>
      <trkpt lat="44.71187" lon="3.21799">
        <ele>1128</ele>
        <time>2013-07-24T09:58:42Z</time>
      </trkpt>
      <trkpt lat="44.71188" lon="3.21813">
        <ele>1128</ele>
        <time>2013-07-24T09:58:46Z</time>
      </trkpt>
      <trkpt lat="44.71189" lon="3.21829">
        <ele>1129</ele>
        <time>2013-07-24T09:58:50Z</time>
      </trkpt>
      <trkpt lat="44.71193" lon="3.21844">
        <ele>1130</ele>
        <time>2013-07-24T09:58:55Z</time>
      </trkpt>
      <trkpt lat="44.71196" lon="3.2185">
        <ele>1131</ele>
        <time>2013-07-24T09:58:58Z</time>
      </trkpt>
      <trkpt lat="44.71203" lon="3.21861">
        <ele>1133</ele>
        <time>2013-07-24T09:59:04Z</time>
      </trkpt>
      <trkpt lat="44.71209" lon="3.21872">
        <ele>1133</ele>
        <time>2013-07-24T09:59:10Z</time>
      </trkpt>
      <trkpt lat="44.71214" lon="3.21883">
        <ele>1134</ele>
        <time>2013-07-24T09:59:15Z</time>
      </trkpt>
      <trkpt lat="44.7122" lon="3.21893">
        <ele>1135</ele>
        <time>2013-07-24T09:59:23Z</time>
      </trkpt>
      <trkpt lat="44.71224" lon="3.21904">
        <ele>1135</ele>
        <time>2013-07-24T09:59:29Z</time>
      </trkpt>
      <trkpt lat="44.71229" lon="3.21916">
        <ele>1134</ele>
        <time>2013-07-24T09:59:35Z</time>
      </trkpt>
      <trkpt lat="44.71235" lon="3.21927">
        <ele>1133</ele>
        <time>2013-07-24T09:59:42Z</time>
      </trkpt>
      <trkpt lat="44.71243" lon="3.21936">
        <ele>1132</ele>
        <time>2013-07-24T09:59:48Z</time>
      </trkpt>
      <trkpt lat="44.71252" lon="3.21942">
        <ele>1134</ele>
        <time>2013-07-24T09:59:57Z</time>
      </trkpt>
      <trkpt lat="44.71261" lon="3.21949">
        <ele>1134</ele>
        <time>2013-07-24T10:00:06Z</time>
      </trkpt>
      <trkpt lat="44.71269" lon="3.21954">
        <ele>1133</ele>
        <time>2013-07-24T10:00:11Z</time>
      </trkpt>
      <trkpt lat="44.71281" lon="3.21958">
        <ele>1133</ele>
        <time>2013-07-24T10:00:20Z</time>
      </trkpt>
      <trkpt lat="44.71289" lon="3.21966">
        <ele>1132</ele>
        <time>2013-07-24T10:00:26Z</time>
      </trkpt>
      <trkpt lat="44.71297" lon="3.21973">
        <ele>1131</ele>
        <time>2013-07-24T10:00:32Z</time>
      </trkpt>
      <trkpt lat="44.71305" lon="3.2198">
        <ele>1130</ele>
        <time>2013-07-24T10:00:37Z</time>
      </trkpt>
      <trkpt lat="44.71314" lon="3.21987">
        <ele>1130</ele>
        <time>2013-07-24T10:00:43Z</time>
      </trkpt>
      <trkpt lat="44.71323" lon="3.21992">
        <ele>1131</ele>
        <time>2013-07-24T10:00:49Z</time>
      </trkpt>
      <trkpt lat="44.71333" lon="3.21996">
        <ele>1131</ele>
        <time>2013-07-24T10:00:55Z</time>
      </trkpt>
      <trkpt lat="44.7134" lon="3.22004">
        <ele>1130</ele>
        <time>2013-07-24T10:01:00Z</time>
      </trkpt>
      <trkpt lat="44.71349" lon="3.22012">
        <ele>1130</ele>
        <time>2013-07-24T10:01:05Z</time>
      </trkpt>
      <trkpt lat="44.71358" lon="3.22019">
        <ele>1130</ele>
        <time>2013-07-24T10:01:10Z</time>
      </trkpt>
      <trkpt lat="44.71366" lon="3.22027">
        <ele>1131</ele>
        <time>2013-07-24T10:01:16Z</time>
      </trkpt>
      <trkpt lat="44.71373" lon="3.22038">
        <ele>1131</ele>
        <time>2013-07-24T10:01:22Z</time>
      </trkpt>
      <trkpt lat="44.71379" lon="3.22047">
        <ele>1130</ele>
        <time>2013-07-24T10:01:28Z</time>
      </trkpt>
      <trkpt lat="44.71386" lon="3.22056">
        <ele>1130</ele>
        <time>2013-07-24T10:01:35Z</time>
      </trkpt>
      <trkpt lat="44.71393" lon="3.22065">
        <ele>1127</ele>
        <time>2013-07-24T10:01:41Z</time>
      </trkpt>
      <trkpt lat="44.714" lon="3.22075">
        <ele>1126</ele>
        <time>2013-07-24T10:01:48Z</time>
      </trkpt>
      <trkpt lat="44.71405" lon="3.22088">
        <ele>1126</ele>
        <time>2013-07-24T10:01:54Z</time>
      </trkpt>
      <trkpt lat="44.7141" lon="3.22098">
        <ele>1127</ele>
        <time>2013-07-24T10:01:59Z</time>
      </trkpt>
      <trkpt lat="44.71415" lon="3.22108">
        <ele>1127</ele>
        <time>2013-07-24T10:02:03Z</time>
      </trkpt>
      <trkpt lat="44.71418" lon="3.22116">
        <ele>1127</ele>
        <time>2013-07-24T10:02:07Z</time>
      </trkpt>
      <trkpt lat="44.71421" lon="3.22121">
        <ele>1128</ele>
        <time>2013-07-24T10:02:10Z</time>
      </trkpt>
      <trkpt lat="44.71426" lon="3.2213">
        <ele>1126</ele>
        <time>2013-07-24T10:02:15Z</time>
      </trkpt>
      <trkpt lat="44.71429" lon="3.22136">
        <ele>1125</ele>
        <time>2013-07-24T10:02:19Z</time>
      </trkpt>
      <trkpt lat="44.71435" lon="3.22148">
        <ele>1124</ele>
        <time>2013-07-24T10:02:26Z</time>
      </trkpt>
      <trkpt lat="44.7144" lon="3.22161">
        <ele>1124</ele>
        <time>2013-07-24T10:02:32Z</time>
      </trkpt>
      <trkpt lat="44.71446" lon="3.22172">
        <ele>1123</ele>
        <time>2013-07-24T10:02:38Z</time>
      </trkpt>
      <trkpt lat="44.71454" lon="3.22181">
        <ele>1125</ele>
        <time>2013-07-24T10:02:44Z</time>
      </trkpt>
      <trkpt lat="44.71461" lon="3.22191">
        <ele>1124</ele>
        <time>2013-07-24T10:02:50Z</time>
      </trkpt>
      <trkpt lat="44.71465" lon="3.22198">
        <ele>1123</ele>
        <time>2013-07-24T10:02:54Z</time>
      </trkpt>
      <trkpt lat="44.71469" lon="3.22203">
        <ele>1122</ele>
        <time>2013-07-24T10:02:57Z</time>
      </trkpt>
      <trkpt lat="44.71473" lon="3.22208">
        <ele>1121</ele>
        <time>2013-07-24T10:03:00Z</time>
      </trkpt>
      <trkpt lat="44.71477" lon="3.22213">
        <ele>1121</ele>
        <time>2013-07-24T10:03:04Z</time>
      </trkpt>
      <trkpt lat="44.7148" lon="3.22219">
        <ele>1120</ele>
        <time>2013-07-24T10:03:08Z</time>
      </trkpt>
      <trkpt lat="44.71482" lon="3.22226">
        <ele>1119</ele>
        <time>2013-07-24T10:03:11Z</time>
      </trkpt>
      <trkpt lat="44.71485" lon="3.22233">
        <ele>1118</ele>
        <time>2013-07-24T10:03:15Z</time>
      </trkpt>
      <trkpt lat="44.71487" lon="3.2224">
        <ele>1118</ele>
        <time>2013-07-24T10:03:19Z</time>
      </trkpt>
      <trkpt lat="44.7149" lon="3.22245">
        <ele>1117</ele>
        <time>2013-07-24T10:03:22Z</time>
      </trkpt>
      <trkpt lat="44.71494" lon="3.22249">
        <ele>1116</ele>
        <time>2013-07-24T10:03:25Z</time>
      </trkpt>
      <trkpt lat="44.71498" lon="3.22252">
        <ele>1115</ele>
        <time>2013-07-24T10:03:28Z</time>
      </trkpt>
      <trkpt lat="44.71502" lon="3.22254">
        <ele>1114</ele>
        <time>2013-07-24T10:03:31Z</time>
      </trkpt>
      <trkpt lat="44.71508" lon="3.22257">
        <ele>1114</ele>
        <time>2013-07-24T10:03:35Z</time>
      </trkpt>
      <trkpt lat="44.71511" lon="3.22262">
        <ele>1114</ele>
        <time>2013-07-24T10:03:38Z</time>
      </trkpt>
      <trkpt lat="44.71512" lon="3.22268">
        <ele>1114</ele>
        <time>2013-07-24T10:03:41Z</time>
      </trkpt>
      <trkpt lat="44.71514" lon="3.22276">
        <ele>1114</ele>
        <time>2013-07-24T10:03:44Z</time>
      </trkpt>
      <trkpt lat="44.71517" lon="3.22283">
        <ele>1115</ele>
        <time>2013-07-24T10:03:48Z</time>
      </trkpt>
      <trkpt lat="44.71519" lon="3.22295">
        <ele>1116</ele>
        <time>2013-07-24T10:03:54Z</time>
      </trkpt>
      <trkpt lat="44.71521" lon="3.22302">
        <ele>1117</ele>
        <time>2013-07-24T10:03:58Z</time>
      </trkpt>
      <trkpt lat="44.71522" lon="3.22309">
        <ele>1116</ele>
        <time>2013-07-24T10:04:01Z</time>
      </trkpt>
      <trkpt lat="44.71524" lon="3.22322">
        <ele>1115</ele>
        <time>2013-07-24T10:04:07Z</time>
      </trkpt>
      <trkpt lat="44.71525" lon="3.22328">
        <ele>1116</ele>
        <time>2013-07-24T10:04:10Z</time>
      </trkpt>
      <trkpt lat="44.71526" lon="3.22343">
        <ele>1117</ele>
        <time>2013-07-24T10:04:17Z</time>
      </trkpt>
      <trkpt lat="44.71528" lon="3.22355">
        <ele>1118</ele>
        <time>2013-07-24T10:04:25Z</time>
      </trkpt>
      <trkpt lat="44.7153" lon="3.22368">
        <ele>1118</ele>
        <time>2013-07-24T10:04:31Z</time>
      </trkpt>
      <trkpt lat="44.71532" lon="3.22382">
        <ele>1117</ele>
        <time>2013-07-24T10:04:37Z</time>
      </trkpt>
      <trkpt lat="44.71533" lon="3.22389">
        <ele>1117</ele>
        <time>2013-07-24T10:04:41Z</time>
      </trkpt>
      <trkpt lat="44.71532" lon="3.22403">
        <ele>1117</ele>
        <time>2013-07-24T10:04:48Z</time>
      </trkpt>
      <trkpt lat="44.7153" lon="3.22417">
        <ele>1115</ele>
        <time>2013-07-24T10:04:54Z</time>
      </trkpt>
      <trkpt lat="44.71531" lon="3.22429">
        <ele>1115</ele>
        <time>2013-07-24T10:05:01Z</time>
      </trkpt>
      <trkpt lat="44.71534" lon="3.22442">
        <ele>1115</ele>
        <time>2013-07-24T10:05:07Z</time>
      </trkpt>
      <trkpt lat="44.71537" lon="3.22455">
        <ele>1115</ele>
        <time>2013-07-24T10:05:13Z</time>
      </trkpt>
      <trkpt lat="44.71539" lon="3.22462">
        <ele>1116</ele>
        <time>2013-07-24T10:05:16Z</time>
      </trkpt>
      <trkpt lat="44.71547" lon="3.22471">
        <ele>1117</ele>
        <time>2013-07-24T10:05:24Z</time>
      </trkpt>
      <trkpt lat="44.71558" lon="3.22472">
        <ele>1117</ele>
        <time>2013-07-24T10:05:30Z</time>
      </trkpt>
      <trkpt lat="44.71568" lon="3.22476">
        <ele>1118</ele>
        <time>2013-07-24T10:05:36Z</time>
      </trkpt>
      <trkpt lat="44.71577" lon="3.22477">
        <ele>1120</ele>
        <time>2013-07-24T10:05:44Z</time>
      </trkpt>
      <trkpt lat="44.71588" lon="3.22481">
        <ele>1122</ele>
        <time>2013-07-24T10:05:51Z</time>
      </trkpt>
      <trkpt lat="44.71597" lon="3.22483">
        <ele>1126</ele>
        <time>2013-07-24T10:05:58Z</time>
      </trkpt>
      <trkpt lat="44.71605" lon="3.22489">
        <ele>1126</ele>
        <time>2013-07-24T10:06:05Z</time>
      </trkpt>
      <trkpt lat="44.71612" lon="3.22498">
        <ele>1127</ele>
        <time>2013-07-24T10:06:13Z</time>
      </trkpt>
      <trkpt lat="44.71619" lon="3.2251">
        <ele>1127</ele>
        <time>2013-07-24T10:06:22Z</time>
      </trkpt>
      <trkpt lat="44.71628" lon="3.22518">
        <ele>1129</ele>
        <time>2013-07-24T10:06:30Z</time>
      </trkpt>
      <trkpt lat="44.71635" lon="3.2253">
        <ele>1129</ele>
        <time>2013-07-24T10:06:39Z</time>
      </trkpt>
      <trkpt lat="44.71642" lon="3.22539">
        <ele>1128</ele>
        <time>2013-07-24T10:06:49Z</time>
      </trkpt>
      <trkpt lat="44.71644" lon="3.22545">
        <ele>1128</ele>
        <time>2013-07-24T10:06:53Z</time>
      </trkpt>
      <trkpt lat="44.71645" lon="3.22555">
        <ele>1131</ele>
        <time>2013-07-24T10:06:59Z</time>
      </trkpt>
      <trkpt lat="44.71652" lon="3.22565">
        <ele>1133</ele>
        <time>2013-07-24T10:07:07Z</time>
      </trkpt>
      <trkpt lat="44.71658" lon="3.22574">
        <ele>1135</ele>
        <time>2013-07-24T10:07:14Z</time>
      </trkpt>
      <trkpt lat="44.71665" lon="3.22582">
        <ele>1137</ele>
        <time>2013-07-24T10:07:20Z</time>
      </trkpt>
      <trkpt lat="44.71672" lon="3.22592">
        <ele>1137</ele>
        <time>2013-07-24T10:07:26Z</time>
      </trkpt>
      <trkpt lat="44.71678" lon="3.22601">
        <ele>1139</ele>
        <time>2013-07-24T10:07:34Z</time>
      </trkpt>
      <trkpt lat="44.71685" lon="3.22609">
        <ele>1141</ele>
        <time>2013-07-24T10:07:40Z</time>
      </trkpt>
      <trkpt lat="44.71689" lon="3.22614">
        <ele>1144</ele>
        <time>2013-07-24T10:07:44Z</time>
      </trkpt>
      <trkpt lat="44.71693" lon="3.22619">
        <ele>1145</ele>
        <time>2013-07-24T10:07:49Z</time>
      </trkpt>
      <trkpt lat="44.71696" lon="3.22625">
        <ele>1146</ele>
        <time>2013-07-24T10:07:52Z</time>
      </trkpt>
      <trkpt lat="44.71699" lon="3.2263">
        <ele>1147</ele>
        <time>2013-07-24T10:07:56Z</time>
      </trkpt>
      <trkpt lat="44.71703" lon="3.22635">
        <ele>1147</ele>
        <time>2013-07-24T10:07:59Z</time>
      </trkpt>
      <trkpt lat="44.71707" lon="3.2264">
        <ele>1147</ele>
        <time>2013-07-24T10:08:03Z</time>
      </trkpt>
      <trkpt lat="44.71712" lon="3.22644">
        <ele>1148</ele>
        <time>2013-07-24T10:08:07Z</time>
      </trkpt>
      <trkpt lat="44.71716" lon="3.22648">
        <ele>1148</ele>
        <time>2013-07-24T10:08:11Z</time>
      </trkpt>
      <trkpt lat="44.71721" lon="3.22651">
        <ele>1148</ele>
        <time>2013-07-24T10:08:15Z</time>
      </trkpt>
      <trkpt lat="44.71725" lon="3.22656">
        <ele>1148</ele>
        <time>2013-07-24T10:08:20Z</time>
      </trkpt>
      <trkpt lat="44.71728" lon="3.22659">
        <ele>1148</ele>
        <time>2013-07-24T10:08:24Z</time>
      </trkpt>
      <trkpt lat="44.71732" lon="3.22663">
        <ele>1149</ele>
        <time>2013-07-24T10:08:27Z</time>
      </trkpt>
      <trkpt lat="44.71737" lon="3.22666">
        <ele>1149</ele>
        <time>2013-07-24T10:08:30Z</time>
      </trkpt>
      <trkpt lat="44.71742" lon="3.22669">
        <ele>1150</ele>
        <time>2013-07-24T10:08:34Z</time>
      </trkpt>
      <trkpt lat="44.71749" lon="3.22674">
        <ele>1150</ele>
        <time>2013-07-24T10:08:41Z</time>
      </trkpt>
      <trkpt lat="44.71753" lon="3.22676">
        <ele>1151</ele>
        <time>2013-07-24T10:08:44Z</time>
      </trkpt>
      <trkpt lat="44.71763" lon="3.22681">
        <ele>1152</ele>
        <time>2013-07-24T10:08:51Z</time>
      </trkpt>
      <trkpt lat="44.71769" lon="3.22684">
        <ele>1154</ele>
        <time>2013-07-24T10:08:54Z</time>
      </trkpt>
      <trkpt lat="44.71774" lon="3.22687">
        <ele>1154</ele>
        <time>2013-07-24T10:08:57Z</time>
      </trkpt>
      <trkpt lat="44.71778" lon="3.22689">
        <ele>1155</ele>
        <time>2013-07-24T10:09:00Z</time>
      </trkpt>
      <trkpt lat="44.71783" lon="3.22692">
        <ele>1154</ele>
        <time>2013-07-24T10:09:03Z</time>
      </trkpt>
      <trkpt lat="44.71788" lon="3.22694">
        <ele>1155</ele>
        <time>2013-07-24T10:09:08Z</time>
      </trkpt>
      <trkpt lat="44.71793" lon="3.22696">
        <ele>1155</ele>
        <time>2013-07-24T10:09:12Z</time>
      </trkpt>
      <trkpt lat="44.71799" lon="3.22698">
        <ele>1156</ele>
        <time>2013-07-24T10:09:16Z</time>
      </trkpt>
      <trkpt lat="44.71804" lon="3.227">
        <ele>1156</ele>
        <time>2013-07-24T10:09:20Z</time>
      </trkpt>
      <trkpt lat="44.71808" lon="3.227">
        <ele>1157</ele>
        <time>2013-07-24T10:09:24Z</time>
      </trkpt>
      <trkpt lat="44.71816" lon="3.22702">
        <ele>1158</ele>
        <time>2013-07-24T10:09:29Z</time>
      </trkpt>
      <trkpt lat="44.71823" lon="3.22705">
        <ele>1158</ele>
        <time>2013-07-24T10:09:34Z</time>
      </trkpt>
      <trkpt lat="44.71827" lon="3.22708">
        <ele>1158</ele>
        <time>2013-07-24T10:09:37Z</time>
      </trkpt>
      <trkpt lat="44.71831" lon="3.22711">
        <ele>1158</ele>
        <time>2013-07-24T10:09:40Z</time>
      </trkpt>
      <trkpt lat="44.71836" lon="3.22713">
        <ele>1158</ele>
        <time>2013-07-24T10:09:44Z</time>
      </trkpt>
      <trkpt lat="44.71841" lon="3.22717">
        <ele>1157</ele>
        <time>2013-07-24T10:09:48Z</time>
      </trkpt>
      <trkpt lat="44.71846" lon="3.22721">
        <ele>1157</ele>
        <time>2013-07-24T10:09:52Z</time>
      </trkpt>
      <trkpt lat="44.71851" lon="3.22725">
        <ele>1157</ele>
        <time>2013-07-24T10:09:57Z</time>
      </trkpt>
      <trkpt lat="44.71858" lon="3.22732">
        <ele>1156</ele>
        <time>2013-07-24T10:10:03Z</time>
      </trkpt>
      <trkpt lat="44.71862" lon="3.22735">
        <ele>1157</ele>
        <time>2013-07-24T10:10:06Z</time>
      </trkpt>
      <trkpt lat="44.71866" lon="3.22739">
        <ele>1156</ele>
        <time>2013-07-24T10:10:09Z</time>
      </trkpt>
      <trkpt lat="44.71873" lon="3.22746">
        <ele>1157</ele>
        <time>2013-07-24T10:10:14Z</time>
      </trkpt>
      <trkpt lat="44.71878" lon="3.22752">
        <ele>1156</ele>
        <time>2013-07-24T10:10:17Z</time>
      </trkpt>
      <trkpt lat="44.71882" lon="3.22755">
        <ele>1156</ele>
        <time>2013-07-24T10:10:20Z</time>
      </trkpt>
      <trkpt lat="44.71886" lon="3.22759">
        <ele>1156</ele>
        <time>2013-07-24T10:10:23Z</time>
      </trkpt>
      <trkpt lat="44.71891" lon="3.22763">
        <ele>1156</ele>
        <time>2013-07-24T10:10:27Z</time>
      </trkpt>
      <trkpt lat="44.71896" lon="3.22768">
        <ele>1155</ele>
        <time>2013-07-24T10:10:30Z</time>
      </trkpt>
      <trkpt lat="44.71902" lon="3.22779">
        <ele>1153</ele>
        <time>2013-07-24T10:10:36Z</time>
      </trkpt>
      <trkpt lat="44.71909" lon="3.22785">
        <ele>1152</ele>
        <time>2013-07-24T10:10:42Z</time>
      </trkpt>
      <trkpt lat="44.71918" lon="3.22793">
        <ele>1152</ele>
        <time>2013-07-24T10:10:48Z</time>
      </trkpt>
      <trkpt lat="44.71926" lon="3.22802">
        <ele>1151</ele>
        <time>2013-07-24T10:10:54Z</time>
      </trkpt>
      <trkpt lat="44.71929" lon="3.22807">
        <ele>1150</ele>
        <time>2013-07-24T10:10:58Z</time>
      </trkpt>
      <trkpt lat="44.71933" lon="3.22811">
        <ele>1150</ele>
        <time>2013-07-24T10:11:01Z</time>
      </trkpt>
      <trkpt lat="44.71936" lon="3.22815">
        <ele>1150</ele>
        <time>2013-07-24T10:11:04Z</time>
      </trkpt>
      <trkpt lat="44.71946" lon="3.22823">
        <ele>1149</ele>
        <time>2013-07-24T10:11:12Z</time>
      </trkpt>
      <trkpt lat="44.71952" lon="3.22831">
        <ele>1149</ele>
        <time>2013-07-24T10:11:17Z</time>
      </trkpt>
      <trkpt lat="44.71956" lon="3.22836">
        <ele>1148</ele>
        <time>2013-07-24T10:11:20Z</time>
      </trkpt>
      <trkpt lat="44.7196" lon="3.22841">
        <ele>1148</ele>
        <time>2013-07-24T10:11:23Z</time>
      </trkpt>
      <trkpt lat="44.71968" lon="3.22853">
        <ele>1148</ele>
        <time>2013-07-24T10:11:31Z</time>
      </trkpt>
      <trkpt lat="44.71974" lon="3.22847">
        <ele>1153</ele>
        <time>2013-07-24T10:12:29Z</time>
      </trkpt>
      <trkpt lat="44.7199" lon="3.22845">
        <ele>1153</ele>
        <time>2013-07-24T10:12:55Z</time>
      </trkpt>
      <trkpt lat="44.71994" lon="3.22849">
        <ele>1159</ele>
        <time>2013-07-24T10:13:29Z</time>
      </trkpt>
      <trkpt lat="44.7213" lon="3.23011">
        <ele>1137</ele>
        <time>2013-07-24T12:02:19Z</time>
      </trkpt>
      <trkpt lat="44.72133" lon="3.2301">
        <ele>1140</ele>
        <time>2013-07-24T12:02:38Z</time>
      </trkpt>
      <trkpt lat="44.72138" lon="3.23012">
        <ele>1144</ele>
        <time>2013-07-24T12:02:56Z</time>
      </trkpt>
      <trkpt lat="44.72144" lon="3.23012">
        <ele>1143</ele>
        <time>2013-07-24T12:03:03Z</time>
      </trkpt>
      <trkpt lat="44.7215" lon="3.23012">
        <ele>1142</ele>
        <time>2013-07-24T12:03:09Z</time>
      </trkpt>
      <trkpt lat="44.72154" lon="3.23015">
        <ele>1141</ele>
        <time>2013-07-24T12:03:17Z</time>
      </trkpt>
      <trkpt lat="44.72153" lon="3.23018">
        <ele>1135</ele>
        <time>2013-07-24T12:04:07Z</time>
      </trkpt>
      <trkpt lat="44.72151" lon="3.23022">
        <ele>1134</ele>
        <time>2013-07-24T12:04:19Z</time>
      </trkpt>
      <trkpt lat="44.72151" lon="3.23016">
        <ele>1136</ele>
        <time>2013-07-24T12:05:54Z</time>
      </trkpt>
      <trkpt lat="44.72159" lon="3.23031">
        <ele>1137</ele>
        <time>2013-07-24T12:07:21Z</time>
      </trkpt>
      <trkpt lat="44.72162" lon="3.23044">
        <ele>1137</ele>
        <time>2013-07-24T12:07:31Z</time>
      </trkpt>
      <trkpt lat="44.72166" lon="3.23055">
        <ele>1134</ele>
        <time>2013-07-24T12:07:40Z</time>
      </trkpt>
      <trkpt lat="44.72174" lon="3.23064">
        <ele>1129</ele>
        <time>2013-07-24T12:07:48Z</time>
      </trkpt>
      <trkpt lat="44.72182" lon="3.23073">
        <ele>1127</ele>
        <time>2013-07-24T12:07:53Z</time>
      </trkpt>
      <trkpt lat="44.72189" lon="3.23091">
        <ele>1124</ele>
        <time>2013-07-24T12:08:05Z</time>
      </trkpt>
      <trkpt lat="44.72196" lon="3.23102">
        <ele>1122</ele>
        <time>2013-07-24T12:08:09Z</time>
      </trkpt>
      <trkpt lat="44.72206" lon="3.23113">
        <ele>1124</ele>
        <time>2013-07-24T12:08:14Z</time>
      </trkpt>
      <trkpt lat="44.72214" lon="3.23123">
        <ele>1126</ele>
        <time>2013-07-24T12:08:19Z</time>
      </trkpt>
      <trkpt lat="44.72223" lon="3.23133">
        <ele>1129</ele>
        <time>2013-07-24T12:08:25Z</time>
      </trkpt>
      <trkpt lat="44.72229" lon="3.23141">
        <ele>1129</ele>
        <time>2013-07-24T12:08:31Z</time>
      </trkpt>
      <trkpt lat="44.72235" lon="3.23154">
        <ele>1127</ele>
        <time>2013-07-24T12:08:38Z</time>
      </trkpt>
      <trkpt lat="44.72242" lon="3.23163">
        <ele>1126</ele>
        <time>2013-07-24T12:08:44Z</time>
      </trkpt>
      <trkpt lat="44.72249" lon="3.23172">
        <ele>1125</ele>
        <time>2013-07-24T12:08:50Z</time>
      </trkpt>
      <trkpt lat="44.72257" lon="3.2318">
        <ele>1124</ele>
        <time>2013-07-24T12:08:57Z</time>
      </trkpt>
      <trkpt lat="44.72265" lon="3.23187">
        <ele>1125</ele>
        <time>2013-07-24T12:09:04Z</time>
      </trkpt>
      <trkpt lat="44.72276" lon="3.23195">
        <ele>1126</ele>
        <time>2013-07-24T12:09:16Z</time>
      </trkpt>
      <trkpt lat="44.72285" lon="3.23201">
        <ele>1125</ele>
        <time>2013-07-24T12:09:22Z</time>
      </trkpt>
      <trkpt lat="44.72294" lon="3.23208">
        <ele>1125</ele>
        <time>2013-07-24T12:09:27Z</time>
      </trkpt>
      <trkpt lat="44.72302" lon="3.23215">
        <ele>1124</ele>
        <time>2013-07-24T12:09:34Z</time>
      </trkpt>
      <trkpt lat="44.72311" lon="3.23223">
        <ele>1123</ele>
        <time>2013-07-24T12:09:40Z</time>
      </trkpt>
      <trkpt lat="44.72317" lon="3.2323">
        <ele>1124</ele>
        <time>2013-07-24T12:09:45Z</time>
      </trkpt>
      <trkpt lat="44.72324" lon="3.23239">
        <ele>1125</ele>
        <time>2013-07-24T12:09:50Z</time>
      </trkpt>
      <trkpt lat="44.72327" lon="3.23245">
        <ele>1125</ele>
        <time>2013-07-24T12:09:53Z</time>
      </trkpt>
      <trkpt lat="44.72332" lon="3.23252">
        <ele>1127</ele>
        <time>2013-07-24T12:09:57Z</time>
      </trkpt>
      <trkpt lat="44.72337" lon="3.23258">
        <ele>1127</ele>
        <time>2013-07-24T12:10:01Z</time>
      </trkpt>
      <trkpt lat="44.72343" lon="3.23266">
        <ele>1127</ele>
        <time>2013-07-24T12:10:06Z</time>
      </trkpt>
      <trkpt lat="44.72347" lon="3.23269">
        <ele>1128</ele>
        <time>2013-07-24T12:10:11Z</time>
      </trkpt>
      <trkpt lat="44.72351" lon="3.23275">
        <ele>1128</ele>
        <time>2013-07-24T12:10:17Z</time>
      </trkpt>
      <trkpt lat="44.72354" lon="3.23279">
        <ele>1128</ele>
        <time>2013-07-24T12:10:19Z</time>
      </trkpt>
      <trkpt lat="44.72359" lon="3.2329">
        <ele>1128</ele>
        <time>2013-07-24T12:10:25Z</time>
      </trkpt>
      <trkpt lat="44.72362" lon="3.23295">
        <ele>1129</ele>
        <time>2013-07-24T12:10:28Z</time>
      </trkpt>
      <trkpt lat="44.72369" lon="3.23305">
        <ele>1131</ele>
        <time>2013-07-24T12:10:35Z</time>
      </trkpt>
      <trkpt lat="44.72377" lon="3.23316">
        <ele>1132</ele>
        <time>2013-07-24T12:10:43Z</time>
      </trkpt>
      <trkpt lat="44.72383" lon="3.23328">
        <ele>1132</ele>
        <time>2013-07-24T12:10:54Z</time>
      </trkpt>
      <trkpt lat="44.72389" lon="3.23338">
        <ele>1134</ele>
        <time>2013-07-24T12:11:00Z</time>
      </trkpt>
      <trkpt lat="44.7239" lon="3.23351">
        <ele>1134</ele>
        <time>2013-07-24T12:11:08Z</time>
      </trkpt>
      <trkpt lat="44.72398" lon="3.23361">
        <ele>1134</ele>
        <time>2013-07-24T12:11:14Z</time>
      </trkpt>
      <trkpt lat="44.72405" lon="3.2337">
        <ele>1135</ele>
        <time>2013-07-24T12:11:21Z</time>
      </trkpt>
      <trkpt lat="44.72406" lon="3.23375">
        <ele>1136</ele>
        <time>2013-07-24T12:11:37Z</time>
      </trkpt>
      <trkpt lat="44.72414" lon="3.23387">
        <ele>1139</ele>
        <time>2013-07-24T12:12:02Z</time>
      </trkpt>
      <trkpt lat="44.72419" lon="3.23393">
        <ele>1139</ele>
        <time>2013-07-24T12:12:07Z</time>
      </trkpt>
      <trkpt lat="44.72422" lon="3.23398">
        <ele>1138</ele>
        <time>2013-07-24T12:12:11Z</time>
      </trkpt>
      <trkpt lat="44.72425" lon="3.23403">
        <ele>1137</ele>
        <time>2013-07-24T12:12:15Z</time>
      </trkpt>
      <trkpt lat="44.7243" lon="3.23411">
        <ele>1136</ele>
        <time>2013-07-24T12:12:20Z</time>
      </trkpt>
      <trkpt lat="44.72436" lon="3.23415">
        <ele>1136</ele>
        <time>2013-07-24T12:12:24Z</time>
      </trkpt>
      <trkpt lat="44.72441" lon="3.23419">
        <ele>1137</ele>
        <time>2013-07-24T12:12:28Z</time>
      </trkpt>
      <trkpt lat="44.72445" lon="3.23425">
        <ele>1137</ele>
        <time>2013-07-24T12:12:32Z</time>
      </trkpt>
      <trkpt lat="44.72448" lon="3.23431">
        <ele>1137</ele>
        <time>2013-07-24T12:12:37Z</time>
      </trkpt>
      <trkpt lat="44.72453" lon="3.23437">
        <ele>1137</ele>
        <time>2013-07-24T12:12:42Z</time>
      </trkpt>
      <trkpt lat="44.72457" lon="3.23441">
        <ele>1136</ele>
        <time>2013-07-24T12:12:46Z</time>
      </trkpt>
      <trkpt lat="44.7246" lon="3.23447">
        <ele>1135</ele>
        <time>2013-07-24T12:12:50Z</time>
      </trkpt>
      <trkpt lat="44.72468" lon="3.23456">
        <ele>1133</ele>
        <time>2013-07-24T12:12:58Z</time>
      </trkpt>
      <trkpt lat="44.72475" lon="3.23467">
        <ele>1131</ele>
        <time>2013-07-24T12:13:05Z</time>
      </trkpt>
      <trkpt lat="44.72482" lon="3.23475">
        <ele>1131</ele>
        <time>2013-07-24T12:13:11Z</time>
      </trkpt>
      <trkpt lat="44.72487" lon="3.2348">
        <ele>1131</ele>
        <time>2013-07-24T12:13:16Z</time>
      </trkpt>
      <trkpt lat="44.72495" lon="3.23486">
        <ele>1130</ele>
        <time>2013-07-24T12:13:23Z</time>
      </trkpt>
      <trkpt lat="44.72499" lon="3.2349">
        <ele>1130</ele>
        <time>2013-07-24T12:13:27Z</time>
      </trkpt>
      <trkpt lat="44.72504" lon="3.23494">
        <ele>1131</ele>
        <time>2013-07-24T12:13:30Z</time>
      </trkpt>
      <trkpt lat="44.72508" lon="3.23498">
        <ele>1131</ele>
        <time>2013-07-24T12:13:33Z</time>
      </trkpt>
      <trkpt lat="44.72512" lon="3.23501">
        <ele>1132</ele>
        <time>2013-07-24T12:13:36Z</time>
      </trkpt>
      <trkpt lat="44.72519" lon="3.23509">
        <ele>1133</ele>
        <time>2013-07-24T12:13:42Z</time>
      </trkpt>
      <trkpt lat="44.72528" lon="3.23517">
        <ele>1131</ele>
        <time>2013-07-24T12:13:49Z</time>
      </trkpt>
      <trkpt lat="44.72536" lon="3.23523">
        <ele>1130</ele>
        <time>2013-07-24T12:13:55Z</time>
      </trkpt>
      <trkpt lat="44.72544" lon="3.23532">
        <ele>1129</ele>
        <time>2013-07-24T12:14:01Z</time>
      </trkpt>
      <trkpt lat="44.72548" lon="3.23536">
        <ele>1129</ele>
        <time>2013-07-24T12:14:04Z</time>
      </trkpt>
      <trkpt lat="44.72552" lon="3.23539">
        <ele>1130</ele>
        <time>2013-07-24T12:14:08Z</time>
      </trkpt>
      <trkpt lat="44.72557" lon="3.23543">
        <ele>1131</ele>
        <time>2013-07-24T12:14:12Z</time>
      </trkpt>
      <trkpt lat="44.72561" lon="3.23548">
        <ele>1131</ele>
        <time>2013-07-24T12:14:16Z</time>
      </trkpt>
      <trkpt lat="44.72566" lon="3.23553">
        <ele>1131</ele>
        <time>2013-07-24T12:14:20Z</time>
      </trkpt>
      <trkpt lat="44.72572" lon="3.2356">
        <ele>1131</ele>
        <time>2013-07-24T12:14:26Z</time>
      </trkpt>
      <trkpt lat="44.72575" lon="3.23566">
        <ele>1130</ele>
        <time>2013-07-24T12:14:30Z</time>
      </trkpt>
      <trkpt lat="44.72578" lon="3.23571">
        <ele>1130</ele>
        <time>2013-07-24T12:14:33Z</time>
      </trkpt>
      <trkpt lat="44.72586" lon="3.2358">
        <ele>1132</ele>
        <time>2013-07-24T12:14:40Z</time>
      </trkpt>
      <trkpt lat="44.7259" lon="3.23585">
        <ele>1133</ele>
        <time>2013-07-24T12:14:44Z</time>
      </trkpt>
      <trkpt lat="44.72594" lon="3.23589">
        <ele>1135</ele>
        <time>2013-07-24T12:14:48Z</time>
      </trkpt>
      <trkpt lat="44.726" lon="3.23596">
        <ele>1137</ele>
        <time>2013-07-24T12:14:54Z</time>
      </trkpt>
      <trkpt lat="44.72607" lon="3.23604">
        <ele>1137</ele>
        <time>2013-07-24T12:15:02Z</time>
      </trkpt>
      <trkpt lat="44.72614" lon="3.23613">
        <ele>1137</ele>
        <time>2013-07-24T12:15:09Z</time>
      </trkpt>
      <trkpt lat="44.72621" lon="3.23621">
        <ele>1136</ele>
        <time>2013-07-24T12:15:17Z</time>
      </trkpt>
      <trkpt lat="44.7263" lon="3.23626">
        <ele>1135</ele>
        <time>2013-07-24T12:15:26Z</time>
      </trkpt>
      <trkpt lat="44.7264" lon="3.2363">
        <ele>1133</ele>
        <time>2013-07-24T12:15:34Z</time>
      </trkpt>
      <trkpt lat="44.72648" lon="3.23635">
        <ele>1131</ele>
        <time>2013-07-24T12:15:41Z</time>
      </trkpt>
      <trkpt lat="44.72657" lon="3.2364">
        <ele>1130</ele>
        <time>2013-07-24T12:15:48Z</time>
      </trkpt>
      <trkpt lat="44.72665" lon="3.23643">
        <ele>1130</ele>
        <time>2013-07-24T12:15:54Z</time>
      </trkpt>
      <trkpt lat="44.72669" lon="3.23647">
        <ele>1133</ele>
        <time>2013-07-24T12:16:15Z</time>
      </trkpt>
      <trkpt lat="44.72673" lon="3.23648">
        <ele>1132</ele>
        <time>2013-07-24T12:17:07Z</time>
      </trkpt>
      <trkpt lat="44.7268" lon="3.23638">
        <ele>1135</ele>
        <time>2013-07-24T12:17:54Z</time>
      </trkpt>
      <trkpt lat="44.72685" lon="3.23626">
        <ele>1133</ele>
        <time>2013-07-24T12:18:02Z</time>
      </trkpt>
      <trkpt lat="44.72689" lon="3.23614">
        <ele>1132</ele>
        <time>2013-07-24T12:18:10Z</time>
      </trkpt>
      <trkpt lat="44.72694" lon="3.23603">
        <ele>1130</ele>
        <time>2013-07-24T12:18:17Z</time>
      </trkpt>
      <trkpt lat="44.72698" lon="3.23589">
        <ele>1126</ele>
        <time>2013-07-24T12:18:26Z</time>
      </trkpt>
      <trkpt lat="44.72701" lon="3.23577">
        <ele>1124</ele>
        <time>2013-07-24T12:18:34Z</time>
      </trkpt>
      <trkpt lat="44.72705" lon="3.23565">
        <ele>1123</ele>
        <time>2013-07-24T12:18:42Z</time>
      </trkpt>
      <trkpt lat="44.72707" lon="3.2356">
        <ele>1123</ele>
        <time>2013-07-24T12:18:45Z</time>
      </trkpt>
      <trkpt lat="44.72711" lon="3.23554">
        <ele>1123</ele>
        <time>2013-07-24T12:18:49Z</time>
      </trkpt>
      <trkpt lat="44.72714" lon="3.23541">
        <ele>1124</ele>
        <time>2013-07-24T12:18:56Z</time>
      </trkpt>
      <trkpt lat="44.72717" lon="3.23532">
        <ele>1125</ele>
        <time>2013-07-24T12:19:01Z</time>
      </trkpt>
      <trkpt lat="44.7272" lon="3.23522">
        <ele>1127</ele>
        <time>2013-07-24T12:19:06Z</time>
      </trkpt>
      <trkpt lat="44.72721" lon="3.23515">
        <ele>1128</ele>
        <time>2013-07-24T12:19:09Z</time>
      </trkpt>
      <trkpt lat="44.72723" lon="3.23509">
        <ele>1129</ele>
        <time>2013-07-24T12:19:12Z</time>
      </trkpt>
      <trkpt lat="44.72725" lon="3.23502">
        <ele>1131</ele>
        <time>2013-07-24T12:19:16Z</time>
      </trkpt>
      <trkpt lat="44.72727" lon="3.23494">
        <ele>1132</ele>
        <time>2013-07-24T12:19:20Z</time>
      </trkpt>
      <trkpt lat="44.7273" lon="3.23482">
        <ele>1131</ele>
        <time>2013-07-24T12:19:26Z</time>
      </trkpt>
      <trkpt lat="44.72733" lon="3.23476">
        <ele>1131</ele>
        <time>2013-07-24T12:19:29Z</time>
      </trkpt>
      <trkpt lat="44.72735" lon="3.23469">
        <ele>1131</ele>
        <time>2013-07-24T12:19:33Z</time>
      </trkpt>
      <trkpt lat="44.72737" lon="3.23461">
        <ele>1132</ele>
        <time>2013-07-24T12:19:38Z</time>
      </trkpt>
      <trkpt lat="44.72739" lon="3.23451">
        <ele>1131</ele>
        <time>2013-07-24T12:19:43Z</time>
      </trkpt>
      <trkpt lat="44.72741" lon="3.23442">
        <ele>1129</ele>
        <time>2013-07-24T12:19:48Z</time>
      </trkpt>
      <trkpt lat="44.72743" lon="3.23436">
        <ele>1130</ele>
        <time>2013-07-24T12:19:53Z</time>
      </trkpt>
      <trkpt lat="44.72743" lon="3.23422">
        <ele>1130</ele>
        <time>2013-07-24T12:19:59Z</time>
      </trkpt>
      <trkpt lat="44.72745" lon="3.23414">
        <ele>1131</ele>
        <time>2013-07-24T12:20:03Z</time>
      </trkpt>
      <trkpt lat="44.72746" lon="3.23407">
        <ele>1131</ele>
        <time>2013-07-24T12:20:08Z</time>
      </trkpt>
      <trkpt lat="44.72748" lon="3.23397">
        <ele>1130</ele>
        <time>2013-07-24T12:20:14Z</time>
      </trkpt>
      <trkpt lat="44.7275" lon="3.23384">
        <ele>1125</ele>
        <time>2013-07-24T12:20:22Z</time>
      </trkpt>
      <trkpt lat="44.72751" lon="3.2337">
        <ele>1124</ele>
        <time>2013-07-24T12:20:35Z</time>
      </trkpt>
      <trkpt lat="44.72753" lon="3.23363">
        <ele>1124</ele>
        <time>2013-07-24T12:20:40Z</time>
      </trkpt>
      <trkpt lat="44.72753" lon="3.23355">
        <ele>1124</ele>
        <time>2013-07-24T12:20:44Z</time>
      </trkpt>
      <trkpt lat="44.72756" lon="3.2334">
        <ele>1126</ele>
        <time>2013-07-24T12:20:52Z</time>
      </trkpt>
      <trkpt lat="44.72756" lon="3.23333">
        <ele>1126</ele>
        <time>2013-07-24T12:20:56Z</time>
      </trkpt>
      <trkpt lat="44.72759" lon="3.23316">
        <ele>1123</ele>
        <time>2013-07-24T12:21:13Z</time>
      </trkpt>
      <trkpt lat="44.72759" lon="3.23301">
        <ele>1123</ele>
        <time>2013-07-24T12:21:20Z</time>
      </trkpt>
      <trkpt lat="44.72757" lon="3.23287">
        <ele>1123</ele>
        <time>2013-07-24T12:21:27Z</time>
      </trkpt>
      <trkpt lat="44.72754" lon="3.23274">
        <ele>1123</ele>
        <time>2013-07-24T12:21:36Z</time>
      </trkpt>
      <trkpt lat="44.72753" lon="3.23261">
        <ele>1124</ele>
        <time>2013-07-24T12:21:45Z</time>
      </trkpt>
      <trkpt lat="44.72754" lon="3.23248">
        <ele>1127</ele>
        <time>2013-07-24T12:21:53Z</time>
      </trkpt>
      <trkpt lat="44.72756" lon="3.23234">
        <ele>1128</ele>
        <time>2013-07-24T12:22:01Z</time>
      </trkpt>
      <trkpt lat="44.72759" lon="3.23221">
        <ele>1127</ele>
        <time>2013-07-24T12:22:09Z</time>
      </trkpt>
      <trkpt lat="44.72759" lon="3.23206">
        <ele>1126</ele>
        <time>2013-07-24T12:22:16Z</time>
      </trkpt>
      <trkpt lat="44.72758" lon="3.23187">
        <ele>1127</ele>
        <time>2013-07-24T12:22:29Z</time>
      </trkpt>
      <trkpt lat="44.72757" lon="3.23174">
        <ele>1128</ele>
        <time>2013-07-24T12:22:33Z</time>
      </trkpt>
      <trkpt lat="44.72758" lon="3.23159">
        <ele>1129</ele>
        <time>2013-07-24T12:22:38Z</time>
      </trkpt>
      <trkpt lat="44.72757" lon="3.23146">
        <ele>1128</ele>
        <time>2013-07-24T12:22:49Z</time>
      </trkpt>
      <trkpt lat="44.72754" lon="3.23132">
        <ele>1129</ele>
        <time>2013-07-24T12:22:55Z</time>
      </trkpt>
      <trkpt lat="44.72753" lon="3.23119">
        <ele>1126</ele>
        <time>2013-07-24T12:23:01Z</time>
      </trkpt>
      <trkpt lat="44.72747" lon="3.23113">
        <ele>1127</ele>
        <time>2013-07-24T12:24:22Z</time>
      </trkpt>
      <trkpt lat="44.72746" lon="3.231">
        <ele>1122</ele>
        <time>2013-07-24T12:24:59Z</time>
      </trkpt>
      <trkpt lat="44.72741" lon="3.23087">
        <ele>1124</ele>
        <time>2013-07-24T12:25:14Z</time>
      </trkpt>
      <trkpt lat="44.72739" lon="3.23074">
        <ele>1124</ele>
        <time>2013-07-24T12:25:22Z</time>
      </trkpt>
      <trkpt lat="44.72742" lon="3.23055">
        <ele>1127</ele>
        <time>2013-07-24T12:25:34Z</time>
      </trkpt>
      <trkpt lat="44.72738" lon="3.23042">
        <ele>1125</ele>
        <time>2013-07-24T12:25:42Z</time>
      </trkpt>
      <trkpt lat="44.72736" lon="3.23026">
        <ele>1117</ele>
        <time>2013-07-24T12:25:57Z</time>
      </trkpt>
      <trkpt lat="44.72734" lon="3.23013">
        <ele>1115</ele>
        <time>2013-07-24T12:26:06Z</time>
      </trkpt>
      <trkpt lat="44.72727" lon="3.23002">
        <ele>1116</ele>
        <time>2013-07-24T12:26:16Z</time>
      </trkpt>
      <trkpt lat="44.72721" lon="3.22991">
        <ele>1116</ele>
        <time>2013-07-24T12:26:23Z</time>
      </trkpt>
      <trkpt lat="44.7272" lon="3.22985">
        <ele>1114</ele>
        <time>2013-07-24T12:26:26Z</time>
      </trkpt>
      <trkpt lat="44.72714" lon="3.22973">
        <ele>1111</ele>
        <time>2013-07-24T12:26:35Z</time>
      </trkpt>
      <trkpt lat="44.72708" lon="3.22963">
        <ele>1109</ele>
        <time>2013-07-24T12:26:43Z</time>
      </trkpt>
      <trkpt lat="44.72699" lon="3.22958">
        <ele>1107</ele>
        <time>2013-07-24T12:26:52Z</time>
      </trkpt>
      <trkpt lat="44.72692" lon="3.22948">
        <ele>1105</ele>
        <time>2013-07-24T12:26:58Z</time>
      </trkpt>
      <trkpt lat="44.72686" lon="3.22934">
        <ele>1106</ele>
        <time>2013-07-24T12:27:09Z</time>
      </trkpt>
      <trkpt lat="44.72679" lon="3.22919">
        <ele>1107</ele>
        <time>2013-07-24T12:27:17Z</time>
      </trkpt>
      <trkpt lat="44.72674" lon="3.22908">
        <ele>1107</ele>
        <time>2013-07-24T12:27:23Z</time>
      </trkpt>
      <trkpt lat="44.72667" lon="3.22896">
        <ele>1102</ele>
        <time>2013-07-24T12:27:31Z</time>
      </trkpt>
      <trkpt lat="44.7266" lon="3.22886">
        <ele>1101</ele>
        <time>2013-07-24T12:27:38Z</time>
      </trkpt>
      <trkpt lat="44.72658" lon="3.22877">
        <ele>1101</ele>
        <time>2013-07-24T12:27:44Z</time>
      </trkpt>
      <trkpt lat="44.72655" lon="3.22863">
        <ele>1102</ele>
        <time>2013-07-24T12:27:51Z</time>
      </trkpt>
      <trkpt lat="44.72655" lon="3.22849">
        <ele>1103</ele>
        <time>2013-07-24T12:27:58Z</time>
      </trkpt>
      <trkpt lat="44.72657" lon="3.22842">
        <ele>1103</ele>
        <time>2013-07-24T12:28:03Z</time>
      </trkpt>
      <trkpt lat="44.7266" lon="3.22836">
        <ele>1103</ele>
        <time>2013-07-24T12:28:08Z</time>
      </trkpt>
      <trkpt lat="44.72666" lon="3.22826">
        <ele>1108</ele>
        <time>2013-07-24T12:28:33Z</time>
      </trkpt>
      <trkpt lat="44.72665" lon="3.22813">
        <ele>1109</ele>
        <time>2013-07-24T12:28:42Z</time>
      </trkpt>
      <trkpt lat="44.72664" lon="3.22805">
        <ele>1109</ele>
        <time>2013-07-24T12:28:48Z</time>
      </trkpt>
      <trkpt lat="44.72665" lon="3.22797">
        <ele>1107</ele>
        <time>2013-07-24T12:29:04Z</time>
      </trkpt>
      <trkpt lat="44.72664" lon="3.22782">
        <ele>1104</ele>
        <time>2013-07-24T12:29:10Z</time>
      </trkpt>
      <trkpt lat="44.72667" lon="3.22766">
        <ele>1099</ele>
        <time>2013-07-24T12:29:24Z</time>
      </trkpt>
      <trkpt lat="44.7267" lon="3.22753">
        <ele>1096</ele>
        <time>2013-07-24T12:29:31Z</time>
      </trkpt>
      <trkpt lat="44.7267" lon="3.22739">
        <ele>1095</ele>
        <time>2013-07-24T12:29:37Z</time>
      </trkpt>
      <trkpt lat="44.72663" lon="3.22729">
        <ele>1096</ele>
        <time>2013-07-24T12:29:46Z</time>
      </trkpt>
      <trkpt lat="44.72652" lon="3.22731">
        <ele>1095</ele>
        <time>2013-07-24T12:30:00Z</time>
      </trkpt>
      <trkpt lat="44.72645" lon="3.22738">
        <ele>1095</ele>
        <time>2013-07-24T12:30:07Z</time>
      </trkpt>
      <trkpt lat="44.72636" lon="3.22743">
        <ele>1093</ele>
        <time>2013-07-24T12:30:17Z</time>
      </trkpt>
      <trkpt lat="44.72642" lon="3.22725">
        <ele>1091</ele>
        <time>2013-07-24T12:30:47Z</time>
      </trkpt>
      <trkpt lat="44.72649" lon="3.22717">
        <ele>1090</ele>
        <time>2013-07-24T12:30:56Z</time>
      </trkpt>
      <trkpt lat="44.72656" lon="3.22707">
        <ele>1089</ele>
        <time>2013-07-24T12:31:03Z</time>
      </trkpt>
      <trkpt lat="44.72665" lon="3.22704">
        <ele>1086</ele>
        <time>2013-07-24T12:31:13Z</time>
      </trkpt>
      <trkpt lat="44.72674" lon="3.22699">
        <ele>1085</ele>
        <time>2013-07-24T12:31:19Z</time>
      </trkpt>
      <trkpt lat="44.72684" lon="3.22695">
        <ele>1085</ele>
        <time>2013-07-24T12:31:24Z</time>
      </trkpt>
      <trkpt lat="44.72691" lon="3.22686">
        <ele>1088</ele>
        <time>2013-07-24T12:31:30Z</time>
      </trkpt>
      <trkpt lat="44.727" lon="3.2268">
        <ele>1091</ele>
        <time>2013-07-24T12:31:37Z</time>
      </trkpt>
      <trkpt lat="44.72709" lon="3.22675">
        <ele>1091</ele>
        <time>2013-07-24T12:31:44Z</time>
      </trkpt>
      <trkpt lat="44.72718" lon="3.22671">
        <ele>1090</ele>
        <time>2013-07-24T12:31:51Z</time>
      </trkpt>
      <trkpt lat="44.72727" lon="3.22668">
        <ele>1089</ele>
        <time>2013-07-24T12:31:57Z</time>
      </trkpt>
      <trkpt lat="44.72737" lon="3.22668">
        <ele>1087</ele>
        <time>2013-07-24T12:32:05Z</time>
      </trkpt>
      <trkpt lat="44.72747" lon="3.22666">
        <ele>1086</ele>
        <time>2013-07-24T12:32:11Z</time>
      </trkpt>
      <trkpt lat="44.72756" lon="3.22667">
        <ele>1086</ele>
        <time>2013-07-24T12:32:19Z</time>
      </trkpt>
      <trkpt lat="44.72765" lon="3.22669">
        <ele>1086</ele>
        <time>2013-07-24T12:32:26Z</time>
      </trkpt>
      <trkpt lat="44.72774" lon="3.22663">
        <ele>1086</ele>
        <time>2013-07-24T12:32:34Z</time>
      </trkpt>
      <trkpt lat="44.7278" lon="3.22653">
        <ele>1086</ele>
        <time>2013-07-24T12:32:40Z</time>
      </trkpt>
      <trkpt lat="44.72786" lon="3.22643">
        <ele>1085</ele>
        <time>2013-07-24T12:32:47Z</time>
      </trkpt>
      <trkpt lat="44.72794" lon="3.22636">
        <ele>1085</ele>
        <time>2013-07-24T12:32:54Z</time>
      </trkpt>
      <trkpt lat="44.72803" lon="3.22638">
        <ele>1086</ele>
        <time>2013-07-24T12:33:01Z</time>
      </trkpt>
      <trkpt lat="44.72812" lon="3.22634">
        <ele>1086</ele>
        <time>2013-07-24T12:33:07Z</time>
      </trkpt>
      <trkpt lat="44.72821" lon="3.22637">
        <ele>1087</ele>
        <time>2013-07-24T12:33:15Z</time>
      </trkpt>
      <trkpt lat="44.72829" lon="3.22644">
        <ele>1087</ele>
        <time>2013-07-24T12:33:22Z</time>
      </trkpt>
      <trkpt lat="44.7284" lon="3.22644">
        <ele>1086</ele>
        <time>2013-07-24T12:33:30Z</time>
      </trkpt>
      <trkpt lat="44.72848" lon="3.22635">
        <ele>1087</ele>
        <time>2013-07-24T12:33:40Z</time>
      </trkpt>
      <trkpt lat="44.72856" lon="3.22628">
        <ele>1088</ele>
        <time>2013-07-24T12:33:48Z</time>
      </trkpt>
      <trkpt lat="44.72864" lon="3.2262">
        <ele>1089</ele>
        <time>2013-07-24T12:33:55Z</time>
      </trkpt>
      <trkpt lat="44.72873" lon="3.22615">
        <ele>1090</ele>
        <time>2013-07-24T12:34:00Z</time>
      </trkpt>
      <trkpt lat="44.72883" lon="3.22614">
        <ele>1089</ele>
        <time>2013-07-24T12:34:07Z</time>
      </trkpt>
      <trkpt lat="44.72893" lon="3.22611">
        <ele>1089</ele>
        <time>2013-07-24T12:34:14Z</time>
      </trkpt>
      <trkpt lat="44.72903" lon="3.22609">
        <ele>1090</ele>
        <time>2013-07-24T12:34:21Z</time>
      </trkpt>
      <trkpt lat="44.72912" lon="3.22605">
        <ele>1090</ele>
        <time>2013-07-24T12:34:29Z</time>
      </trkpt>
      <trkpt lat="44.72921" lon="3.22602">
        <ele>1090</ele>
        <time>2013-07-24T12:34:36Z</time>
      </trkpt>
      <trkpt lat="44.7293" lon="3.22599">
        <ele>1092</ele>
        <time>2013-07-24T12:34:43Z</time>
      </trkpt>
      <trkpt lat="44.72939" lon="3.22594">
        <ele>1093</ele>
        <time>2013-07-24T12:34:51Z</time>
      </trkpt>
      <trkpt lat="44.72946" lon="3.22585">
        <ele>1093</ele>
        <time>2013-07-24T12:34:57Z</time>
      </trkpt>
      <trkpt lat="44.72953" lon="3.22578">
        <ele>1095</ele>
        <time>2013-07-24T12:35:06Z</time>
      </trkpt>
      <trkpt lat="44.72961" lon="3.2257">
        <ele>1097</ele>
        <time>2013-07-24T12:35:16Z</time>
      </trkpt>
      <trkpt lat="44.72967" lon="3.22559">
        <ele>1096</ele>
        <time>2013-07-24T12:35:25Z</time>
      </trkpt>
      <trkpt lat="44.72973" lon="3.22548">
        <ele>1096</ele>
        <time>2013-07-24T12:35:34Z</time>
      </trkpt>
      <trkpt lat="44.72979" lon="3.22538">
        <ele>1096</ele>
        <time>2013-07-24T12:35:39Z</time>
      </trkpt>
      <trkpt lat="44.72985" lon="3.22528">
        <ele>1096</ele>
        <time>2013-07-24T12:35:45Z</time>
      </trkpt>
      <trkpt lat="44.7299" lon="3.22517">
        <ele>1097</ele>
        <time>2013-07-24T12:35:51Z</time>
      </trkpt>
      <trkpt lat="44.72998" lon="3.22511">
        <ele>1099</ele>
        <time>2013-07-24T12:35:59Z</time>
      </trkpt>
      <trkpt lat="44.73005" lon="3.22503">
        <ele>1102</ele>
        <time>2013-07-24T12:36:08Z</time>
      </trkpt>
      <trkpt lat="44.73003" lon="3.22497">
        <ele>1103</ele>
        <time>2013-07-24T12:36:11Z</time>
      </trkpt>
      <trkpt lat="44.73" lon="3.2249">
        <ele>1105</ele>
        <time>2013-07-24T12:36:19Z</time>
      </trkpt>
      <trkpt lat="44.72996" lon="3.22487">
        <ele>1106</ele>
        <time>2013-07-24T12:36:26Z</time>
      </trkpt>
      <trkpt lat="44.72994" lon="3.22488">
        <ele>1107</ele>
        <time>2013-07-24T12:36:37Z</time>
      </trkpt>
      <trkpt lat="44.72988" lon="3.22484">
        <ele>1107</ele>
        <time>2013-07-24T12:37:04Z</time>
      </trkpt>
      <trkpt lat="44.72984" lon="3.2248">
        <ele>1107</ele>
        <time>2013-07-24T12:37:08Z</time>
      </trkpt>
      <trkpt lat="44.72982" lon="3.2247">
        <ele>1107</ele>
        <time>2013-07-24T12:37:14Z</time>
      </trkpt>
      <trkpt lat="44.72981" lon="3.22467">
        <ele>1108</ele>
        <time>2013-07-24T12:37:19Z</time>
      </trkpt>
      <trkpt lat="44.72984" lon="3.22463">
        <ele>1110</ele>
        <time>2013-07-24T12:37:47Z</time>
      </trkpt>
      <trkpt lat="44.72987" lon="3.2246">
        <ele>1111</ele>
        <time>2013-07-24T12:37:52Z</time>
      </trkpt>
      <trkpt lat="44.72992" lon="3.22456">
        <ele>1113</ele>
        <time>2013-07-24T12:37:57Z</time>
      </trkpt>
      <trkpt lat="44.72996" lon="3.22452">
        <ele>1114</ele>
        <time>2013-07-24T12:38:01Z</time>
      </trkpt>
      <trkpt lat="44.73001" lon="3.22445">
        <ele>1114</ele>
        <time>2013-07-24T12:38:08Z</time>
      </trkpt>
      <trkpt lat="44.73004" lon="3.2244">
        <ele>1113</ele>
        <time>2013-07-24T12:38:12Z</time>
      </trkpt>
      <trkpt lat="44.73007" lon="3.22435">
        <ele>1113</ele>
        <time>2013-07-24T12:38:17Z</time>
      </trkpt>
      <trkpt lat="44.7301" lon="3.2243">
        <ele>1113</ele>
        <time>2013-07-24T12:38:22Z</time>
      </trkpt>
      <trkpt lat="44.73018" lon="3.22423">
        <ele>1115</ele>
        <time>2013-07-24T12:38:32Z</time>
      </trkpt>
      <trkpt lat="44.73027" lon="3.2242">
        <ele>1116</ele>
        <time>2013-07-24T12:38:39Z</time>
      </trkpt>
      <trkpt lat="44.73031" lon="3.22418">
        <ele>1118</ele>
        <time>2013-07-24T12:38:42Z</time>
      </trkpt>
      <trkpt lat="44.73037" lon="3.22416">
        <ele>1120</ele>
        <time>2013-07-24T12:38:49Z</time>
      </trkpt>
      <trkpt lat="44.73041" lon="3.22414">
        <ele>1120</ele>
        <time>2013-07-24T12:38:53Z</time>
      </trkpt>
      <trkpt lat="44.73046" lon="3.2241">
        <ele>1121</ele>
        <time>2013-07-24T12:38:58Z</time>
      </trkpt>
      <trkpt lat="44.7305" lon="3.22407">
        <ele>1123</ele>
        <time>2013-07-24T12:39:03Z</time>
      </trkpt>
      <trkpt lat="44.73055" lon="3.22405">
        <ele>1125</ele>
        <time>2013-07-24T12:39:07Z</time>
      </trkpt>
      <trkpt lat="44.7306" lon="3.22403">
        <ele>1126</ele>
        <time>2013-07-24T12:39:11Z</time>
      </trkpt>
      <trkpt lat="44.73065" lon="3.22401">
        <ele>1125</ele>
        <time>2013-07-24T12:39:15Z</time>
      </trkpt>
      <trkpt lat="44.7307" lon="3.22399">
        <ele>1125</ele>
        <time>2013-07-24T12:39:21Z</time>
      </trkpt>
      <trkpt lat="44.73074" lon="3.22396">
        <ele>1127</ele>
        <time>2013-07-24T12:39:26Z</time>
      </trkpt>
      <trkpt lat="44.73079" lon="3.22395">
        <ele>1127</ele>
        <time>2013-07-24T12:39:31Z</time>
      </trkpt>
      <trkpt lat="44.73083" lon="3.22391">
        <ele>1127</ele>
        <time>2013-07-24T12:39:36Z</time>
      </trkpt>
      <trkpt lat="44.73087" lon="3.22386">
        <ele>1128</ele>
        <time>2013-07-24T12:39:42Z</time>
      </trkpt>
      <trkpt lat="44.73091" lon="3.2238">
        <ele>1129</ele>
        <time>2013-07-24T12:39:47Z</time>
      </trkpt>
      <trkpt lat="44.73093" lon="3.22373">
        <ele>1130</ele>
        <time>2013-07-24T12:39:52Z</time>
      </trkpt>
      <trkpt lat="44.73093" lon="3.22366">
        <ele>1130</ele>
        <time>2013-07-24T12:39:58Z</time>
      </trkpt>
      <trkpt lat="44.73093" lon="3.22359">
        <ele>1131</ele>
        <time>2013-07-24T12:40:03Z</time>
      </trkpt>
      <trkpt lat="44.73092" lon="3.22352">
        <ele>1133</ele>
        <time>2013-07-24T12:40:08Z</time>
      </trkpt>
      <trkpt lat="44.73091" lon="3.22346">
        <ele>1133</ele>
        <time>2013-07-24T12:40:13Z</time>
      </trkpt>
      <trkpt lat="44.7309" lon="3.22338">
        <ele>1134</ele>
        <time>2013-07-24T12:40:19Z</time>
      </trkpt>
      <trkpt lat="44.73088" lon="3.22332">
        <ele>1135</ele>
        <time>2013-07-24T12:40:24Z</time>
      </trkpt>
      <trkpt lat="44.73087" lon="3.22323">
        <ele>1136</ele>
        <time>2013-07-24T12:40:29Z</time>
      </trkpt>
      <trkpt lat="44.73086" lon="3.22317">
        <ele>1138</ele>
        <time>2013-07-24T12:40:34Z</time>
      </trkpt>
      <trkpt lat="44.73085" lon="3.22309">
        <ele>1139</ele>
        <time>2013-07-24T12:40:39Z</time>
      </trkpt>
      <trkpt lat="44.73084" lon="3.22302">
        <ele>1140</ele>
        <time>2013-07-24T12:40:44Z</time>
      </trkpt>
      <trkpt lat="44.73084" lon="3.22295">
        <ele>1141</ele>
        <time>2013-07-24T12:40:49Z</time>
      </trkpt>
      <trkpt lat="44.73083" lon="3.22288">
        <ele>1141</ele>
        <time>2013-07-24T12:40:55Z</time>
      </trkpt>
      <trkpt lat="44.73081" lon="3.22282">
        <ele>1141</ele>
        <time>2013-07-24T12:41:00Z</time>
      </trkpt>
      <trkpt lat="44.73081" lon="3.22276">
        <ele>1142</ele>
        <time>2013-07-24T12:41:04Z</time>
      </trkpt>
      <trkpt lat="44.7308" lon="3.22269">
        <ele>1143</ele>
        <time>2013-07-24T12:41:09Z</time>
      </trkpt>
      <trkpt lat="44.73079" lon="3.22262">
        <ele>1144</ele>
        <time>2013-07-24T12:41:14Z</time>
      </trkpt>
      <trkpt lat="44.73079" lon="3.22256">
        <ele>1145</ele>
        <time>2013-07-24T12:41:19Z</time>
      </trkpt>
      <trkpt lat="44.73079" lon="3.22249">
        <ele>1145</ele>
        <time>2013-07-24T12:41:23Z</time>
      </trkpt>
      <trkpt lat="44.7308" lon="3.22236">
        <ele>1145</ele>
        <time>2013-07-24T12:41:31Z</time>
      </trkpt>
      <trkpt lat="44.73081" lon="3.22228">
        <ele>1145</ele>
        <time>2013-07-24T12:41:36Z</time>
      </trkpt>
      <trkpt lat="44.73081" lon="3.22221">
        <ele>1145</ele>
        <time>2013-07-24T12:41:41Z</time>
      </trkpt>
      <trkpt lat="44.73083" lon="3.22212">
        <ele>1146</ele>
        <time>2013-07-24T12:41:46Z</time>
      </trkpt>
      <trkpt lat="44.73083" lon="3.22204">
        <ele>1146</ele>
        <time>2013-07-24T12:41:51Z</time>
      </trkpt>
      <trkpt lat="44.73084" lon="3.22196">
        <ele>1146</ele>
        <time>2013-07-24T12:41:55Z</time>
      </trkpt>
      <trkpt lat="44.73083" lon="3.22189">
        <ele>1146</ele>
        <time>2013-07-24T12:42:02Z</time>
      </trkpt>
      <trkpt lat="44.73084" lon="3.22182">
        <ele>1146</ele>
        <time>2013-07-24T12:42:11Z</time>
      </trkpt>
      <trkpt lat="44.73088" lon="3.22186">
        <ele>1144</ele>
        <time>2013-07-24T12:45:33Z</time>
      </trkpt>
      <trkpt lat="44.73092" lon="3.22189">
        <ele>1144</ele>
        <time>2013-07-24T12:45:36Z</time>
      </trkpt>
      <trkpt lat="44.73098" lon="3.22192">
        <ele>1143</ele>
        <time>2013-07-24T12:45:41Z</time>
      </trkpt>
      <trkpt lat="44.73103" lon="3.22196">
        <ele>1143</ele>
        <time>2013-07-24T12:45:46Z</time>
      </trkpt>
      <trkpt lat="44.73108" lon="3.22198">
        <ele>1142</ele>
        <time>2013-07-24T12:45:50Z</time>
      </trkpt>
      <trkpt lat="44.73114" lon="3.22202">
        <ele>1142</ele>
        <time>2013-07-24T12:45:55Z</time>
      </trkpt>
      <trkpt lat="44.73119" lon="3.22205">
        <ele>1141</ele>
        <time>2013-07-24T12:45:59Z</time>
      </trkpt>
      <trkpt lat="44.73124" lon="3.22209">
        <ele>1140</ele>
        <time>2013-07-24T12:46:03Z</time>
      </trkpt>
      <trkpt lat="44.73131" lon="3.22217">
        <ele>1138</ele>
        <time>2013-07-24T12:46:11Z</time>
      </trkpt>
      <trkpt lat="44.73139" lon="3.22227">
        <ele>1136</ele>
        <time>2013-07-24T12:46:20Z</time>
      </trkpt>
      <trkpt lat="44.73145" lon="3.22232">
        <ele>1135</ele>
        <time>2013-07-24T12:46:25Z</time>
      </trkpt>
      <trkpt lat="44.73148" lon="3.22236">
        <ele>1135</ele>
        <time>2013-07-24T12:46:29Z</time>
      </trkpt>
      <trkpt lat="44.73153" lon="3.2224">
        <ele>1134</ele>
        <time>2013-07-24T12:46:33Z</time>
      </trkpt>
      <trkpt lat="44.7316" lon="3.22247">
        <ele>1133</ele>
        <time>2013-07-24T12:46:40Z</time>
      </trkpt>
      <trkpt lat="44.73165" lon="3.22251">
        <ele>1134</ele>
        <time>2013-07-24T12:46:44Z</time>
      </trkpt>
      <trkpt lat="44.73173" lon="3.2226">
        <ele>1135</ele>
        <time>2013-07-24T12:46:51Z</time>
      </trkpt>
      <trkpt lat="44.73182" lon="3.22267">
        <ele>1134</ele>
        <time>2013-07-24T12:46:58Z</time>
      </trkpt>
      <trkpt lat="44.73187" lon="3.22275">
        <ele>1133</ele>
        <time>2013-07-24T12:47:09Z</time>
      </trkpt>
      <trkpt lat="44.73191" lon="3.22281">
        <ele>1133</ele>
        <time>2013-07-24T12:47:13Z</time>
      </trkpt>
      <trkpt lat="44.73198" lon="3.2229">
        <ele>1132</ele>
        <time>2013-07-24T12:47:21Z</time>
      </trkpt>
      <trkpt lat="44.73202" lon="3.22294">
        <ele>1132</ele>
        <time>2013-07-24T12:47:24Z</time>
      </trkpt>
      <trkpt lat="44.73206" lon="3.22298">
        <ele>1131</ele>
        <time>2013-07-24T12:47:27Z</time>
      </trkpt>
      <trkpt lat="44.73212" lon="3.22303">
        <ele>1131</ele>
        <time>2013-07-24T12:47:32Z</time>
      </trkpt>
      <trkpt lat="44.73217" lon="3.22306">
        <ele>1130</ele>
        <time>2013-07-24T12:47:37Z</time>
      </trkpt>
      <trkpt lat="44.73223" lon="3.22309">
        <ele>1129</ele>
        <time>2013-07-24T12:47:41Z</time>
      </trkpt>
      <trkpt lat="44.73232" lon="3.22315">
        <ele>1129</ele>
        <time>2013-07-24T12:47:48Z</time>
      </trkpt>
      <trkpt lat="44.73241" lon="3.2232">
        <ele>1128</ele>
        <time>2013-07-24T12:47:55Z</time>
      </trkpt>
      <trkpt lat="44.73249" lon="3.22325">
        <ele>1129</ele>
        <time>2013-07-24T12:48:04Z</time>
      </trkpt>
      <trkpt lat="44.73255" lon="3.22329">
        <ele>1129</ele>
        <time>2013-07-24T12:48:08Z</time>
      </trkpt>
      <trkpt lat="44.73263" lon="3.22336">
        <ele>1128</ele>
        <time>2013-07-24T12:48:16Z</time>
      </trkpt>
      <trkpt lat="44.73269" lon="3.22343">
        <ele>1128</ele>
        <time>2013-07-24T12:48:22Z</time>
      </trkpt>
      <trkpt lat="44.73274" lon="3.2235">
        <ele>1127</ele>
        <time>2013-07-24T12:48:27Z</time>
      </trkpt>
      <trkpt lat="44.73278" lon="3.22359">
        <ele>1127</ele>
        <time>2013-07-24T12:48:33Z</time>
      </trkpt>
      <trkpt lat="44.73283" lon="3.22364">
        <ele>1127</ele>
        <time>2013-07-24T12:48:39Z</time>
      </trkpt>
      <trkpt lat="44.73286" lon="3.22369">
        <ele>1127</ele>
        <time>2013-07-24T12:48:43Z</time>
      </trkpt>
      <trkpt lat="44.73291" lon="3.22372">
        <ele>1126</ele>
        <time>2013-07-24T12:48:47Z</time>
      </trkpt>
      <trkpt lat="44.73295" lon="3.22375">
        <ele>1126</ele>
        <time>2013-07-24T12:48:50Z</time>
      </trkpt>
      <trkpt lat="44.73299" lon="3.22378">
        <ele>1126</ele>
        <time>2013-07-24T12:48:53Z</time>
      </trkpt>
      <trkpt lat="44.73305" lon="3.22386">
        <ele>1126</ele>
        <time>2013-07-24T12:49:00Z</time>
      </trkpt>
      <trkpt lat="44.73309" lon="3.22391">
        <ele>1125</ele>
        <time>2013-07-24T12:49:04Z</time>
      </trkpt>
      <trkpt lat="44.73314" lon="3.22395">
        <ele>1124</ele>
        <time>2013-07-24T12:49:08Z</time>
      </trkpt>
      <trkpt lat="44.73321" lon="3.22402">
        <ele>1124</ele>
        <time>2013-07-24T12:49:15Z</time>
      </trkpt>
      <trkpt lat="44.73326" lon="3.22406">
        <ele>1125</ele>
        <time>2013-07-24T12:49:19Z</time>
      </trkpt>
      <trkpt lat="44.73336" lon="3.22412">
        <ele>1125</ele>
        <time>2013-07-24T12:49:27Z</time>
      </trkpt>
      <trkpt lat="44.73345" lon="3.22416">
        <ele>1125</ele>
        <time>2013-07-24T12:49:33Z</time>
      </trkpt>
      <trkpt lat="44.73354" lon="3.22419">
        <ele>1124</ele>
        <time>2013-07-24T12:49:40Z</time>
      </trkpt>
      <trkpt lat="44.73363" lon="3.22426">
        <ele>1121</ele>
        <time>2013-07-24T12:49:48Z</time>
      </trkpt>
      <trkpt lat="44.73371" lon="3.2243">
        <ele>1121</ele>
        <time>2013-07-24T12:49:54Z</time>
      </trkpt>
      <trkpt lat="44.73379" lon="3.22437">
        <ele>1120</ele>
        <time>2013-07-24T12:50:02Z</time>
      </trkpt>
      <trkpt lat="44.73387" lon="3.22445">
        <ele>1118</ele>
        <time>2013-07-24T12:50:09Z</time>
      </trkpt>
      <trkpt lat="44.73397" lon="3.22448">
        <ele>1117</ele>
        <time>2013-07-24T12:50:16Z</time>
      </trkpt>
      <trkpt lat="44.73404" lon="3.22454">
        <ele>1117</ele>
        <time>2013-07-24T12:50:22Z</time>
      </trkpt>
      <trkpt lat="44.73409" lon="3.22456">
        <ele>1116</ele>
        <time>2013-07-24T12:50:27Z</time>
      </trkpt>
      <trkpt lat="44.73418" lon="3.22461">
        <ele>1116</ele>
        <time>2013-07-24T12:50:33Z</time>
      </trkpt>
      <trkpt lat="44.73423" lon="3.22461">
        <ele>1116</ele>
        <time>2013-07-24T12:50:38Z</time>
      </trkpt>
      <trkpt lat="44.73428" lon="3.22462">
        <ele>1117</ele>
        <time>2013-07-24T12:50:42Z</time>
      </trkpt>
      <trkpt lat="44.73434" lon="3.22462">
        <ele>1117</ele>
        <time>2013-07-24T12:50:46Z</time>
      </trkpt>
      <trkpt lat="44.73438" lon="3.22461">
        <ele>1116</ele>
        <time>2013-07-24T12:50:50Z</time>
      </trkpt>
      <trkpt lat="44.73444" lon="3.22457">
        <ele>1115</ele>
        <time>2013-07-24T12:50:55Z</time>
      </trkpt>
      <trkpt lat="44.73451" lon="3.22449">
        <ele>1114</ele>
        <time>2013-07-24T12:51:01Z</time>
      </trkpt>
      <trkpt lat="44.73457" lon="3.22442">
        <ele>1114</ele>
        <time>2013-07-24T12:51:06Z</time>
      </trkpt>
      <trkpt lat="44.73461" lon="3.22437">
        <ele>1114</ele>
        <time>2013-07-24T12:51:10Z</time>
      </trkpt>
      <trkpt lat="44.73466" lon="3.22433">
        <ele>1114</ele>
        <time>2013-07-24T12:51:15Z</time>
      </trkpt>
      <trkpt lat="44.7347" lon="3.2243">
        <ele>1114</ele>
        <time>2013-07-24T12:51:18Z</time>
      </trkpt>
      <trkpt lat="44.73475" lon="3.22424">
        <ele>1114</ele>
        <time>2013-07-24T12:51:24Z</time>
      </trkpt>
      <trkpt lat="44.73479" lon="3.22418">
        <ele>1113</ele>
        <time>2013-07-24T12:51:29Z</time>
      </trkpt>
      <trkpt lat="44.73482" lon="3.22413">
        <ele>1112</ele>
        <time>2013-07-24T12:51:35Z</time>
      </trkpt>
      <trkpt lat="44.73486" lon="3.22407">
        <ele>1111</ele>
        <time>2013-07-24T12:51:39Z</time>
      </trkpt>
      <trkpt lat="44.7349" lon="3.22402">
        <ele>1112</ele>
        <time>2013-07-24T12:51:42Z</time>
      </trkpt>
      <trkpt lat="44.73493" lon="3.22398">
        <ele>1112</ele>
        <time>2013-07-24T12:51:45Z</time>
      </trkpt>
      <trkpt lat="44.73499" lon="3.22386">
        <ele>1111</ele>
        <time>2013-07-24T12:51:53Z</time>
      </trkpt>
      <trkpt lat="44.73507" lon="3.22377">
        <ele>1110</ele>
        <time>2013-07-24T12:52:02Z</time>
      </trkpt>
      <trkpt lat="44.73514" lon="3.22369">
        <ele>1107</ele>
        <time>2013-07-24T12:52:11Z</time>
      </trkpt>
      <trkpt lat="44.73522" lon="3.2236">
        <ele>1104</ele>
        <time>2013-07-24T12:52:19Z</time>
      </trkpt>
      <trkpt lat="44.73529" lon="3.22353">
        <ele>1102</ele>
        <time>2013-07-24T12:52:27Z</time>
      </trkpt>
      <trkpt lat="44.73536" lon="3.22344">
        <ele>1099</ele>
        <time>2013-07-24T12:52:38Z</time>
      </trkpt>
      <trkpt lat="44.73543" lon="3.22335">
        <ele>1098</ele>
        <time>2013-07-24T12:52:43Z</time>
      </trkpt>
      <trkpt lat="44.7355" lon="3.22327">
        <ele>1096</ele>
        <time>2013-07-24T12:52:52Z</time>
      </trkpt>
      <trkpt lat="44.73559" lon="3.22322">
        <ele>1097</ele>
        <time>2013-07-24T12:52:59Z</time>
      </trkpt>
      <trkpt lat="44.73568" lon="3.2231">
        <ele>1096</ele>
        <time>2013-07-24T12:53:10Z</time>
      </trkpt>
      <trkpt lat="44.73578" lon="3.22307">
        <ele>1099</ele>
        <time>2013-07-24T12:53:21Z</time>
      </trkpt>
      <trkpt lat="44.73588" lon="3.22308">
        <ele>1099</ele>
        <time>2013-07-24T12:53:29Z</time>
      </trkpt>
      <trkpt lat="44.73597" lon="3.22304">
        <ele>1099</ele>
        <time>2013-07-24T12:53:42Z</time>
      </trkpt>
      <trkpt lat="44.73607" lon="3.22301">
        <ele>1096</ele>
        <time>2013-07-24T12:53:49Z</time>
      </trkpt>
      <trkpt lat="44.73616" lon="3.22298">
        <ele>1096</ele>
        <time>2013-07-24T12:53:58Z</time>
      </trkpt>
      <trkpt lat="44.73626" lon="3.22295">
        <ele>1099</ele>
        <time>2013-07-24T12:54:04Z</time>
      </trkpt>
      <trkpt lat="44.73635" lon="3.22294">
        <ele>1099</ele>
        <time>2013-07-24T12:54:10Z</time>
      </trkpt>
      <trkpt lat="44.73645" lon="3.22292">
        <ele>1097</ele>
        <time>2013-07-24T12:54:18Z</time>
      </trkpt>
      <trkpt lat="44.73655" lon="3.22295">
        <ele>1096</ele>
        <time>2013-07-24T12:54:28Z</time>
      </trkpt>
      <trkpt lat="44.73665" lon="3.22301">
        <ele>1094</ele>
        <time>2013-07-24T12:54:36Z</time>
      </trkpt>
      <trkpt lat="44.73673" lon="3.22309">
        <ele>1091</ele>
        <time>2013-07-24T12:54:47Z</time>
      </trkpt>
      <trkpt lat="44.73681" lon="3.22318">
        <ele>1088</ele>
        <time>2013-07-24T12:54:56Z</time>
      </trkpt>
      <trkpt lat="44.7369" lon="3.22322">
        <ele>1085</ele>
        <time>2013-07-24T12:55:05Z</time>
      </trkpt>
      <trkpt lat="44.73697" lon="3.22333">
        <ele>1081</ele>
        <time>2013-07-24T12:55:13Z</time>
      </trkpt>
      <trkpt lat="44.73704" lon="3.2234">
        <ele>1078</ele>
        <time>2013-07-24T12:55:20Z</time>
      </trkpt>
      <trkpt lat="44.73713" lon="3.22346">
        <ele>1074</ele>
        <time>2013-07-24T12:55:25Z</time>
      </trkpt>
      <trkpt lat="44.73721" lon="3.22356">
        <ele>1070</ele>
        <time>2013-07-24T12:55:31Z</time>
      </trkpt>
      <trkpt lat="44.73726" lon="3.22367">
        <ele>1067</ele>
        <time>2013-07-24T12:55:40Z</time>
      </trkpt>
      <trkpt lat="44.73734" lon="3.22374">
        <ele>1067</ele>
        <time>2013-07-24T12:55:46Z</time>
      </trkpt>
      <trkpt lat="44.7374" lon="3.22384">
        <ele>1066</ele>
        <time>2013-07-24T12:55:54Z</time>
      </trkpt>
      <trkpt lat="44.73747" lon="3.22393">
        <ele>1065</ele>
        <time>2013-07-24T12:56:02Z</time>
      </trkpt>
      <trkpt lat="44.73755" lon="3.22401">
        <ele>1066</ele>
        <time>2013-07-24T12:56:09Z</time>
      </trkpt>
      <trkpt lat="44.73762" lon="3.22413">
        <ele>1068</ele>
        <time>2013-07-24T12:56:15Z</time>
      </trkpt>
      <trkpt lat="44.73768" lon="3.22422">
        <ele>1070</ele>
        <time>2013-07-24T12:56:21Z</time>
      </trkpt>
      <trkpt lat="44.73775" lon="3.22432">
        <ele>1073</ele>
        <time>2013-07-24T12:56:26Z</time>
      </trkpt>
      <trkpt lat="44.73779" lon="3.22444">
        <ele>1074</ele>
        <time>2013-07-24T12:56:34Z</time>
      </trkpt>
      <trkpt lat="44.73783" lon="3.22457">
        <ele>1072</ele>
        <time>2013-07-24T12:56:42Z</time>
      </trkpt>
      <trkpt lat="44.73789" lon="3.22468">
        <ele>1071</ele>
        <time>2013-07-24T12:56:51Z</time>
      </trkpt>
      <trkpt lat="44.73793" lon="3.2248">
        <ele>1069</ele>
        <time>2013-07-24T12:57:07Z</time>
      </trkpt>
      <trkpt lat="44.73801" lon="3.22488">
        <ele>1066</ele>
        <time>2013-07-24T12:57:17Z</time>
      </trkpt>
      <trkpt lat="44.73808" lon="3.22497">
        <ele>1064</ele>
        <time>2013-07-24T12:57:23Z</time>
      </trkpt>
      <trkpt lat="44.73814" lon="3.22507">
        <ele>1063</ele>
        <time>2013-07-24T12:57:31Z</time>
      </trkpt>
      <trkpt lat="44.73825" lon="3.22507">
        <ele>1063</ele>
        <time>2013-07-24T12:57:39Z</time>
      </trkpt>
      <trkpt lat="44.73833" lon="3.22501">
        <ele>1062</ele>
        <time>2013-07-24T12:57:46Z</time>
      </trkpt>
      <trkpt lat="44.7384" lon="3.22493">
        <ele>1061</ele>
        <time>2013-07-24T12:57:57Z</time>
      </trkpt>
      <trkpt lat="44.73847" lon="3.22482">
        <ele>1060</ele>
        <time>2013-07-24T12:58:07Z</time>
      </trkpt>
      <trkpt lat="44.73854" lon="3.22471">
        <ele>1059</ele>
        <time>2013-07-24T12:58:15Z</time>
      </trkpt>
      <trkpt lat="44.73862" lon="3.22464">
        <ele>1060</ele>
        <time>2013-07-24T12:58:24Z</time>
      </trkpt>
      <trkpt lat="44.73871" lon="3.2246">
        <ele>1059</ele>
        <time>2013-07-24T12:58:31Z</time>
      </trkpt>
      <trkpt lat="44.73875" lon="3.22462">
        <ele>1058</ele>
        <time>2013-07-24T12:58:42Z</time>
      </trkpt>
      <trkpt lat="44.7388" lon="3.22452">
        <ele>1065</ele>
        <time>2013-07-24T13:00:24Z</time>
      </trkpt>
      <trkpt lat="44.73884" lon="3.22447">
        <ele>1066</ele>
        <time>2013-07-24T13:00:28Z</time>
      </trkpt>
      <trkpt lat="44.73887" lon="3.22442">
        <ele>1068</ele>
        <time>2013-07-24T13:00:31Z</time>
      </trkpt>
      <trkpt lat="44.73891" lon="3.22437">
        <ele>1068</ele>
        <time>2013-07-24T13:00:34Z</time>
      </trkpt>
      <trkpt lat="44.73895" lon="3.22432">
        <ele>1068</ele>
        <time>2013-07-24T13:00:38Z</time>
      </trkpt>
      <trkpt lat="44.73898" lon="3.22426">
        <ele>1068</ele>
        <time>2013-07-24T13:00:42Z</time>
      </trkpt>
      <trkpt lat="44.73901" lon="3.22421">
        <ele>1068</ele>
        <time>2013-07-24T13:00:46Z</time>
      </trkpt>
      <trkpt lat="44.73905" lon="3.22416">
        <ele>1068</ele>
        <time>2013-07-24T13:00:50Z</time>
      </trkpt>
      <trkpt lat="44.73908" lon="3.2241">
        <ele>1069</ele>
        <time>2013-07-24T13:00:54Z</time>
      </trkpt>
      <trkpt lat="44.73913" lon="3.22405">
        <ele>1069</ele>
        <time>2013-07-24T13:00:58Z</time>
      </trkpt>
      <trkpt lat="44.73917" lon="3.22399">
        <ele>1070</ele>
        <time>2013-07-24T13:01:01Z</time>
      </trkpt>
      <trkpt lat="44.73922" lon="3.22395">
        <ele>1070</ele>
        <time>2013-07-24T13:01:05Z</time>
      </trkpt>
      <trkpt lat="44.7393" lon="3.22387">
        <ele>1069</ele>
        <time>2013-07-24T13:01:12Z</time>
      </trkpt>
      <trkpt lat="44.73934" lon="3.22383">
        <ele>1070</ele>
        <time>2013-07-24T13:01:15Z</time>
      </trkpt>
      <trkpt lat="44.73938" lon="3.22379">
        <ele>1069</ele>
        <time>2013-07-24T13:01:19Z</time>
      </trkpt>
      <trkpt lat="44.73941" lon="3.22375">
        <ele>1068</ele>
        <time>2013-07-24T13:01:23Z</time>
      </trkpt>
      <trkpt lat="44.73945" lon="3.2237">
        <ele>1068</ele>
        <time>2013-07-24T13:01:27Z</time>
      </trkpt>
      <trkpt lat="44.7395" lon="3.22366">
        <ele>1069</ele>
        <time>2013-07-24T13:01:31Z</time>
      </trkpt>
      <trkpt lat="44.73958" lon="3.22359">
        <ele>1068</ele>
        <time>2013-07-24T13:01:38Z</time>
      </trkpt>
      <trkpt lat="44.73966" lon="3.22352">
        <ele>1069</ele>
        <time>2013-07-24T13:01:45Z</time>
      </trkpt>
      <trkpt lat="44.73975" lon="3.22348">
        <ele>1070</ele>
        <time>2013-07-24T13:01:51Z</time>
      </trkpt>
      <trkpt lat="44.73983" lon="3.22343">
        <ele>1071</ele>
        <time>2013-07-24T13:01:56Z</time>
      </trkpt>
      <trkpt lat="44.73993" lon="3.2234">
        <ele>1072</ele>
        <time>2013-07-24T13:02:02Z</time>
      </trkpt>
      <trkpt lat="44.73999" lon="3.22339">
        <ele>1073</ele>
        <time>2013-07-24T13:02:07Z</time>
      </trkpt>
      <trkpt lat="44.74006" lon="3.22337">
        <ele>1075</ele>
        <time>2013-07-24T13:02:13Z</time>
      </trkpt>
      <trkpt lat="44.74011" lon="3.22335">
        <ele>1076</ele>
        <time>2013-07-24T13:02:17Z</time>
      </trkpt>
      <trkpt lat="44.74021" lon="3.2233">
        <ele>1076</ele>
        <time>2013-07-24T13:02:24Z</time>
      </trkpt>
      <trkpt lat="44.74027" lon="3.22327">
        <ele>1076</ele>
        <time>2013-07-24T13:02:30Z</time>
      </trkpt>
      <trkpt lat="44.74032" lon="3.22324">
        <ele>1076</ele>
        <time>2013-07-24T13:02:34Z</time>
      </trkpt>
      <trkpt lat="44.74042" lon="3.2232">
        <ele>1078</ele>
        <time>2013-07-24T13:02:41Z</time>
      </trkpt>
      <trkpt lat="44.74052" lon="3.22319">
        <ele>1079</ele>
        <time>2013-07-24T13:02:48Z</time>
      </trkpt>
      <trkpt lat="44.74061" lon="3.22317">
        <ele>1078</ele>
        <time>2013-07-24T13:02:56Z</time>
      </trkpt>
      <trkpt lat="44.74071" lon="3.22315">
        <ele>1079</ele>
        <time>2013-07-24T13:03:03Z</time>
      </trkpt>
      <trkpt lat="44.7408" lon="3.22312">
        <ele>1081</ele>
        <time>2013-07-24T13:03:10Z</time>
      </trkpt>
      <trkpt lat="44.74089" lon="3.22308">
        <ele>1082</ele>
        <time>2013-07-24T13:03:17Z</time>
      </trkpt>
      <trkpt lat="44.741" lon="3.22308">
        <ele>1083</ele>
        <time>2013-07-24T13:03:26Z</time>
      </trkpt>
      <trkpt lat="44.74109" lon="3.22309">
        <ele>1081</ele>
        <time>2013-07-24T13:03:32Z</time>
      </trkpt>
      <trkpt lat="44.74119" lon="3.22308">
        <ele>1082</ele>
        <time>2013-07-24T13:03:40Z</time>
      </trkpt>
      <trkpt lat="44.74128" lon="3.22311">
        <ele>1083</ele>
        <time>2013-07-24T13:03:46Z</time>
      </trkpt>
      <trkpt lat="44.74136" lon="3.22317">
        <ele>1084</ele>
        <time>2013-07-24T13:03:53Z</time>
      </trkpt>
      <trkpt lat="44.74144" lon="3.22323">
        <ele>1085</ele>
        <time>2013-07-24T13:03:59Z</time>
      </trkpt>
      <trkpt lat="44.74148" lon="3.22328">
        <ele>1086</ele>
        <time>2013-07-24T13:04:02Z</time>
      </trkpt>
      <trkpt lat="44.74152" lon="3.22332">
        <ele>1087</ele>
        <time>2013-07-24T13:04:06Z</time>
      </trkpt>
      <trkpt lat="44.74155" lon="3.22338">
        <ele>1086</ele>
        <time>2013-07-24T13:04:10Z</time>
      </trkpt>
      <trkpt lat="44.74161" lon="3.22346">
        <ele>1086</ele>
        <time>2013-07-24T13:04:17Z</time>
      </trkpt>
      <trkpt lat="44.74168" lon="3.22356">
        <ele>1087</ele>
        <time>2013-07-24T13:04:25Z</time>
      </trkpt>
      <trkpt lat="44.74173" lon="3.22359">
        <ele>1086</ele>
        <time>2013-07-24T13:04:29Z</time>
      </trkpt>
      <trkpt lat="44.74178" lon="3.22363">
        <ele>1086</ele>
        <time>2013-07-24T13:04:33Z</time>
      </trkpt>
      <trkpt lat="44.74183" lon="3.22374">
        <ele>1085</ele>
        <time>2013-07-24T13:04:41Z</time>
      </trkpt>
      <trkpt lat="44.7419" lon="3.22385">
        <ele>1086</ele>
        <time>2013-07-24T13:04:49Z</time>
      </trkpt>
      <trkpt lat="44.74197" lon="3.22393">
        <ele>1087</ele>
        <time>2013-07-24T13:04:57Z</time>
      </trkpt>
      <trkpt lat="44.74201" lon="3.22397">
        <ele>1088</ele>
        <time>2013-07-24T13:05:00Z</time>
      </trkpt>
      <trkpt lat="44.74205" lon="3.22401">
        <ele>1089</ele>
        <time>2013-07-24T13:05:04Z</time>
      </trkpt>
      <trkpt lat="44.74214" lon="3.22406">
        <ele>1090</ele>
        <time>2013-07-24T13:05:11Z</time>
      </trkpt>
      <trkpt lat="44.74219" lon="3.22407">
        <ele>1091</ele>
        <time>2013-07-24T13:05:15Z</time>
      </trkpt>
      <trkpt lat="44.74224" lon="3.22409">
        <ele>1090</ele>
        <time>2013-07-24T13:05:18Z</time>
      </trkpt>
      <trkpt lat="44.7423" lon="3.2241">
        <ele>1088</ele>
        <time>2013-07-24T13:05:22Z</time>
      </trkpt>
      <trkpt lat="44.74234" lon="3.22411">
        <ele>1087</ele>
        <time>2013-07-24T13:05:25Z</time>
      </trkpt>
      <trkpt lat="44.74241" lon="3.22411">
        <ele>1085</ele>
        <time>2013-07-24T13:05:30Z</time>
      </trkpt>
      <trkpt lat="44.74246" lon="3.22411">
        <ele>1085</ele>
        <time>2013-07-24T13:05:34Z</time>
      </trkpt>
      <trkpt lat="44.74251" lon="3.22408">
        <ele>1085</ele>
        <time>2013-07-24T13:05:39Z</time>
      </trkpt>
      <trkpt lat="44.7426" lon="3.22407">
        <ele>1085</ele>
        <time>2013-07-24T13:05:46Z</time>
      </trkpt>
      <trkpt lat="44.7427" lon="3.22407">
        <ele>1083</ele>
        <time>2013-07-24T13:05:54Z</time>
      </trkpt>
      <trkpt lat="44.74278" lon="3.22413">
        <ele>1082</ele>
        <time>2013-07-24T13:06:00Z</time>
      </trkpt>
      <trkpt lat="44.74284" lon="3.22425">
        <ele>1081</ele>
        <time>2013-07-24T13:06:08Z</time>
      </trkpt>
      <trkpt lat="44.74292" lon="3.22433">
        <ele>1081</ele>
        <time>2013-07-24T13:06:12Z</time>
      </trkpt>
      <trkpt lat="44.74301" lon="3.22441">
        <ele>1083</ele>
        <time>2013-07-24T13:06:18Z</time>
      </trkpt>
      <trkpt lat="44.74308" lon="3.22449">
        <ele>1083</ele>
        <time>2013-07-24T13:06:25Z</time>
      </trkpt>
      <trkpt lat="44.7431" lon="3.22457">
        <ele>1083</ele>
        <time>2013-07-24T13:06:30Z</time>
      </trkpt>
      <trkpt lat="44.74313" lon="3.22471">
        <ele>1083</ele>
        <time>2013-07-24T13:06:37Z</time>
      </trkpt>
      <trkpt lat="44.74314" lon="3.22484">
        <ele>1084</ele>
        <time>2013-07-24T13:06:47Z</time>
      </trkpt>
      <trkpt lat="44.74312" lon="3.22491">
        <ele>1084</ele>
        <time>2013-07-24T13:06:49Z</time>
      </trkpt>
      <trkpt lat="44.7431" lon="3.225">
        <ele>1084</ele>
        <time>2013-07-24T13:06:52Z</time>
      </trkpt>
      <trkpt lat="44.74308" lon="3.22506">
        <ele>1084</ele>
        <time>2013-07-24T13:06:54Z</time>
      </trkpt>
      <trkpt lat="44.74305" lon="3.22511">
        <ele>1084</ele>
        <time>2013-07-24T13:06:57Z</time>
      </trkpt>
      <trkpt lat="44.74304" lon="3.22518">
        <ele>1084</ele>
        <time>2013-07-24T13:07:00Z</time>
      </trkpt>
      <trkpt lat="44.74302" lon="3.22528">
        <ele>1085</ele>
        <time>2013-07-24T13:07:06Z</time>
      </trkpt>
      <trkpt lat="44.74298" lon="3.22539">
        <ele>1084</ele>
        <time>2013-07-24T13:07:13Z</time>
      </trkpt>
      <trkpt lat="44.74296" lon="3.22545">
        <ele>1084</ele>
        <time>2013-07-24T13:07:16Z</time>
      </trkpt>
      <trkpt lat="44.7429" lon="3.22557">
        <ele>1083</ele>
        <time>2013-07-24T13:07:23Z</time>
      </trkpt>
      <trkpt lat="44.74287" lon="3.22562">
        <ele>1081</ele>
        <time>2013-07-24T13:07:27Z</time>
      </trkpt>
      <trkpt lat="44.74279" lon="3.22571">
        <ele>1079</ele>
        <time>2013-07-24T13:07:35Z</time>
      </trkpt>
      <trkpt lat="44.74275" lon="3.22574">
        <ele>1078</ele>
        <time>2013-07-24T13:07:38Z</time>
      </trkpt>
      <trkpt lat="44.74271" lon="3.2258">
        <ele>1076</ele>
        <time>2013-07-24T13:07:42Z</time>
      </trkpt>
      <trkpt lat="44.74265" lon="3.22581">
        <ele>1076</ele>
        <time>2013-07-24T13:07:46Z</time>
      </trkpt>
      <trkpt lat="44.74259" lon="3.22584">
        <ele>1075</ele>
        <time>2013-07-24T13:07:50Z</time>
      </trkpt>
      <trkpt lat="44.74249" lon="3.22588">
        <ele>1074</ele>
        <time>2013-07-24T13:07:57Z</time>
      </trkpt>
      <trkpt lat="44.74239" lon="3.22593">
        <ele>1074</ele>
        <time>2013-07-24T13:08:04Z</time>
      </trkpt>
      <trkpt lat="44.7423" lon="3.22597">
        <ele>1074</ele>
        <time>2013-07-24T13:08:09Z</time>
      </trkpt>
      <trkpt lat="44.74221" lon="3.22603">
        <ele>1073</ele>
        <time>2013-07-24T13:08:15Z</time>
      </trkpt>
      <trkpt lat="44.74213" lon="3.22609">
        <ele>1072</ele>
        <time>2013-07-24T13:08:23Z</time>
      </trkpt>
      <trkpt lat="44.74209" lon="3.22613">
        <ele>1072</ele>
        <time>2013-07-24T13:08:26Z</time>
      </trkpt>
      <trkpt lat="44.74205" lon="3.22617">
        <ele>1073</ele>
        <time>2013-07-24T13:08:29Z</time>
      </trkpt>
      <trkpt lat="44.74201" lon="3.22626">
        <ele>1073</ele>
        <time>2013-07-24T13:08:34Z</time>
      </trkpt>
      <trkpt lat="44.74199" lon="3.22633">
        <ele>1073</ele>
        <time>2013-07-24T13:08:38Z</time>
      </trkpt>
      <trkpt lat="44.74199" lon="3.2264">
        <ele>1073</ele>
        <time>2013-07-24T13:08:41Z</time>
      </trkpt>
      <trkpt lat="44.74197" lon="3.22649">
        <ele>1072</ele>
        <time>2013-07-24T13:08:45Z</time>
      </trkpt>
      <trkpt lat="44.74196" lon="3.22655">
        <ele>1071</ele>
        <time>2013-07-24T13:08:48Z</time>
      </trkpt>
      <trkpt lat="44.74195" lon="3.22662">
        <ele>1071</ele>
        <time>2013-07-24T13:08:52Z</time>
      </trkpt>
      <trkpt lat="44.74195" lon="3.22669">
        <ele>1071</ele>
        <time>2013-07-24T13:08:56Z</time>
      </trkpt>
      <trkpt lat="44.74195" lon="3.22677">
        <ele>1070</ele>
        <time>2013-07-24T13:09:01Z</time>
      </trkpt>
      <trkpt lat="44.74195" lon="3.22685">
        <ele>1070</ele>
        <time>2013-07-24T13:09:05Z</time>
      </trkpt>
      <trkpt lat="44.74193" lon="3.22691">
        <ele>1068</ele>
        <time>2013-07-24T13:09:08Z</time>
      </trkpt>
      <trkpt lat="44.74191" lon="3.22699">
        <ele>1067</ele>
        <time>2013-07-24T13:09:12Z</time>
      </trkpt>
      <trkpt lat="44.7419" lon="3.22706">
        <ele>1066</ele>
        <time>2013-07-24T13:09:16Z</time>
      </trkpt>
      <trkpt lat="44.74188" lon="3.22713">
        <ele>1066</ele>
        <time>2013-07-24T13:09:21Z</time>
      </trkpt>
      <trkpt lat="44.74186" lon="3.2272">
        <ele>1067</ele>
        <time>2013-07-24T13:09:25Z</time>
      </trkpt>
      <trkpt lat="44.74182" lon="3.22732">
        <ele>1067</ele>
        <time>2013-07-24T13:09:32Z</time>
      </trkpt>
      <trkpt lat="44.74178" lon="3.22741">
        <ele>1066</ele>
        <time>2013-07-24T13:09:38Z</time>
      </trkpt>
      <trkpt lat="44.74175" lon="3.22747">
        <ele>1065</ele>
        <time>2013-07-24T13:09:41Z</time>
      </trkpt>
      <trkpt lat="44.74173" lon="3.22753">
        <ele>1065</ele>
        <time>2013-07-24T13:09:44Z</time>
      </trkpt>
      <trkpt lat="44.74168" lon="3.22764">
        <ele>1063</ele>
        <time>2013-07-24T13:09:50Z</time>
      </trkpt>
      <trkpt lat="44.74165" lon="3.22769">
        <ele>1062</ele>
        <time>2013-07-24T13:09:53Z</time>
      </trkpt>
      <trkpt lat="44.74162" lon="3.22776">
        <ele>1061</ele>
        <time>2013-07-24T13:09:57Z</time>
      </trkpt>
      <trkpt lat="44.74158" lon="3.22782">
        <ele>1060</ele>
        <time>2013-07-24T13:10:00Z</time>
      </trkpt>
      <trkpt lat="44.74156" lon="3.22788">
        <ele>1059</ele>
        <time>2013-07-24T13:10:04Z</time>
      </trkpt>
      <trkpt lat="44.74158" lon="3.22795">
        <ele>1059</ele>
        <time>2013-07-24T13:10:08Z</time>
      </trkpt>
      <trkpt lat="44.74162" lon="3.22803">
        <ele>1058</ele>
        <time>2013-07-24T13:10:14Z</time>
      </trkpt>
      <trkpt lat="44.74171" lon="3.22803">
        <ele>1060</ele>
        <time>2013-07-24T13:10:23Z</time>
      </trkpt>
      <trkpt lat="44.7418" lon="3.22805">
        <ele>1060</ele>
        <time>2013-07-24T13:10:30Z</time>
      </trkpt>
      <trkpt lat="44.74188" lon="3.2281">
        <ele>1059</ele>
        <time>2013-07-24T13:10:35Z</time>
      </trkpt>
      <trkpt lat="44.74191" lon="3.22814">
        <ele>1059</ele>
        <time>2013-07-24T13:10:38Z</time>
      </trkpt>
      <trkpt lat="44.74196" lon="3.22817">
        <ele>1060</ele>
        <time>2013-07-24T13:10:42Z</time>
      </trkpt>
      <trkpt lat="44.74203" lon="3.22819">
        <ele>1058</ele>
        <time>2013-07-24T13:10:49Z</time>
      </trkpt>
      <trkpt lat="44.74208" lon="3.2282">
        <ele>1058</ele>
        <time>2013-07-24T13:10:54Z</time>
      </trkpt>
      <trkpt lat="44.74218" lon="3.22822">
        <ele>1058</ele>
        <time>2013-07-24T13:11:00Z</time>
      </trkpt>
      <trkpt lat="44.74227" lon="3.22827">
        <ele>1057</ele>
        <time>2013-07-24T13:11:06Z</time>
      </trkpt>
      <trkpt lat="44.74235" lon="3.22833">
        <ele>1058</ele>
        <time>2013-07-24T13:11:14Z</time>
      </trkpt>
      <trkpt lat="44.74244" lon="3.22838">
        <ele>1056</ele>
        <time>2013-07-24T13:11:25Z</time>
      </trkpt>
      <trkpt lat="44.74252" lon="3.22844">
        <ele>1056</ele>
        <time>2013-07-24T13:11:30Z</time>
      </trkpt>
      <trkpt lat="44.7426" lon="3.22854">
        <ele>1056</ele>
        <time>2013-07-24T13:11:36Z</time>
      </trkpt>
      <trkpt lat="44.74268" lon="3.22863">
        <ele>1055</ele>
        <time>2013-07-24T13:11:43Z</time>
      </trkpt>
      <trkpt lat="44.74274" lon="3.22873">
        <ele>1056</ele>
        <time>2013-07-24T13:11:50Z</time>
      </trkpt>
      <trkpt lat="44.74282" lon="3.22881">
        <ele>1057</ele>
        <time>2013-07-24T13:11:56Z</time>
      </trkpt>
      <trkpt lat="44.74291" lon="3.22892">
        <ele>1057</ele>
        <time>2013-07-24T13:12:04Z</time>
      </trkpt>
      <trkpt lat="44.74296" lon="3.22903">
        <ele>1056</ele>
        <time>2013-07-24T13:12:13Z</time>
      </trkpt>
      <trkpt lat="44.74303" lon="3.22915">
        <ele>1055</ele>
        <time>2013-07-24T13:12:22Z</time>
      </trkpt>
      <trkpt lat="44.74309" lon="3.22926">
        <ele>1054</ele>
        <time>2013-07-24T13:12:29Z</time>
      </trkpt>
      <trkpt lat="44.74313" lon="3.22937">
        <ele>1054</ele>
        <time>2013-07-24T13:12:34Z</time>
      </trkpt>
      <trkpt lat="44.74315" lon="3.22951">
        <ele>1054</ele>
        <time>2013-07-24T13:12:42Z</time>
      </trkpt>
      <trkpt lat="44.74322" lon="3.22962">
        <ele>1053</ele>
        <time>2013-07-24T13:12:48Z</time>
      </trkpt>
      <trkpt lat="44.74327" lon="3.22973">
        <ele>1052</ele>
        <time>2013-07-24T13:12:54Z</time>
      </trkpt>
      <trkpt lat="44.74331" lon="3.22986">
        <ele>1052</ele>
        <time>2013-07-24T13:13:01Z</time>
      </trkpt>
      <trkpt lat="44.74335" lon="3.22993">
        <ele>1050</ele>
        <time>2013-07-24T13:13:04Z</time>
      </trkpt>
      <trkpt lat="44.74338" lon="3.22998">
        <ele>1048</ele>
        <time>2013-07-24T13:13:07Z</time>
      </trkpt>
      <trkpt lat="44.74344" lon="3.23007">
        <ele>1047</ele>
        <time>2013-07-24T13:13:13Z</time>
      </trkpt>
      <trkpt lat="44.74349" lon="3.23018">
        <ele>1047</ele>
        <time>2013-07-24T13:13:20Z</time>
      </trkpt>
      <trkpt lat="44.74355" lon="3.23029">
        <ele>1047</ele>
        <time>2013-07-24T13:13:27Z</time>
      </trkpt>
      <trkpt lat="44.74361" lon="3.23041">
        <ele>1047</ele>
        <time>2013-07-24T13:13:33Z</time>
      </trkpt>
      <trkpt lat="44.74365" lon="3.23054">
        <ele>1048</ele>
        <time>2013-07-24T13:13:41Z</time>
      </trkpt>
      <trkpt lat="44.7437" lon="3.23065">
        <ele>1051</ele>
        <time>2013-07-24T13:13:48Z</time>
      </trkpt>
      <trkpt lat="44.74374" lon="3.23079">
        <ele>1055</ele>
        <time>2013-07-24T13:13:56Z</time>
      </trkpt>
      <trkpt lat="44.74378" lon="3.23091">
        <ele>1054</ele>
        <time>2013-07-24T13:14:03Z</time>
      </trkpt>
      <trkpt lat="44.74386" lon="3.23101">
        <ele>1053</ele>
        <time>2013-07-24T13:14:13Z</time>
      </trkpt>
      <trkpt lat="44.74394" lon="3.23108">
        <ele>1052</ele>
        <time>2013-07-24T13:14:18Z</time>
      </trkpt>
      <trkpt lat="44.74403" lon="3.23115">
        <ele>1051</ele>
        <time>2013-07-24T13:14:25Z</time>
      </trkpt>
      <trkpt lat="44.74411" lon="3.23122">
        <ele>1048</ele>
        <time>2013-07-24T13:14:36Z</time>
      </trkpt>
      <trkpt lat="44.7442" lon="3.23132">
        <ele>1048</ele>
        <time>2013-07-24T13:14:46Z</time>
      </trkpt>
      <trkpt lat="44.74428" lon="3.23145">
        <ele>1047</ele>
        <time>2013-07-24T13:14:58Z</time>
      </trkpt>
      <trkpt lat="44.74436" lon="3.23152">
        <ele>1046</ele>
        <time>2013-07-24T13:15:06Z</time>
      </trkpt>
      <trkpt lat="44.74443" lon="3.23164">
        <ele>1044</ele>
        <time>2013-07-24T13:15:15Z</time>
      </trkpt>
      <trkpt lat="44.74451" lon="3.23174">
        <ele>1047</ele>
        <time>2013-07-24T13:15:20Z</time>
      </trkpt>
      <trkpt lat="44.74462" lon="3.23187">
        <ele>1047</ele>
        <time>2013-07-24T13:15:25Z</time>
      </trkpt>
      <trkpt lat="44.74471" lon="3.23194">
        <ele>1048</ele>
        <time>2013-07-24T13:15:31Z</time>
      </trkpt>
      <trkpt lat="44.7448" lon="3.23199">
        <ele>1048</ele>
        <time>2013-07-24T13:15:37Z</time>
      </trkpt>
      <trkpt lat="44.74489" lon="3.23206">
        <ele>1049</ele>
        <time>2013-07-24T13:15:47Z</time>
      </trkpt>
      <trkpt lat="44.74498" lon="3.23207">
        <ele>1050</ele>
        <time>2013-07-24T13:15:52Z</time>
      </trkpt>
      <trkpt lat="44.74508" lon="3.23212">
        <ele>1050</ele>
        <time>2013-07-24T13:16:01Z</time>
      </trkpt>
      <trkpt lat="44.74519" lon="3.23219">
        <ele>1049</ele>
        <time>2013-07-24T13:16:08Z</time>
      </trkpt>
      <trkpt lat="44.74528" lon="3.23215">
        <ele>1051</ele>
        <time>2013-07-24T13:16:16Z</time>
      </trkpt>
      <trkpt lat="44.74538" lon="3.23214">
        <ele>1051</ele>
        <time>2013-07-24T13:16:24Z</time>
      </trkpt>
      <trkpt lat="44.74547" lon="3.23207">
        <ele>1053</ele>
        <time>2013-07-24T13:16:30Z</time>
      </trkpt>
      <trkpt lat="44.74555" lon="3.232">
        <ele>1055</ele>
        <time>2013-07-24T13:16:37Z</time>
      </trkpt>
      <trkpt lat="44.74563" lon="3.23192">
        <ele>1055</ele>
        <time>2013-07-24T13:16:43Z</time>
      </trkpt>
      <trkpt lat="44.74572" lon="3.23183">
        <ele>1055</ele>
        <time>2013-07-24T13:16:51Z</time>
      </trkpt>
      <trkpt lat="44.7458" lon="3.23175">
        <ele>1055</ele>
        <time>2013-07-24T13:16:58Z</time>
      </trkpt>
      <trkpt lat="44.74587" lon="3.23166">
        <ele>1054</ele>
        <time>2013-07-24T13:17:05Z</time>
      </trkpt>
      <trkpt lat="44.74595" lon="3.23157">
        <ele>1057</ele>
        <time>2013-07-24T13:17:12Z</time>
      </trkpt>
      <trkpt lat="44.74604" lon="3.2315">
        <ele>1058</ele>
        <time>2013-07-24T13:17:20Z</time>
      </trkpt>
      <trkpt lat="44.7461" lon="3.2314">
        <ele>1059</ele>
        <time>2013-07-24T13:17:27Z</time>
      </trkpt>
      <trkpt lat="44.74618" lon="3.23133">
        <ele>1060</ele>
        <time>2013-07-24T13:17:33Z</time>
      </trkpt>
      <trkpt lat="44.74626" lon="3.23126">
        <ele>1059</ele>
        <time>2013-07-24T13:17:40Z</time>
      </trkpt>
      <trkpt lat="44.74632" lon="3.23117">
        <ele>1059</ele>
        <time>2013-07-24T13:17:48Z</time>
      </trkpt>
      <trkpt lat="44.74638" lon="3.23106">
        <ele>1060</ele>
        <time>2013-07-24T13:17:56Z</time>
      </trkpt>
      <trkpt lat="44.74642" lon="3.23092">
        <ele>1058</ele>
        <time>2013-07-24T13:18:03Z</time>
      </trkpt>
      <trkpt lat="44.74645" lon="3.23078">
        <ele>1057</ele>
        <time>2013-07-24T13:18:11Z</time>
      </trkpt>
      <trkpt lat="44.74652" lon="3.23065">
        <ele>1060</ele>
        <time>2013-07-24T13:18:19Z</time>
      </trkpt>
      <trkpt lat="44.74656" lon="3.23053">
        <ele>1064</ele>
        <time>2013-07-24T13:18:24Z</time>
      </trkpt>
      <trkpt lat="44.74667" lon="3.23013">
        <ele>1078</ele>
        <time>2013-07-24T13:18:45Z</time>
      </trkpt>
      <trkpt lat="44.74671" lon="3.22998">
        <ele>1079</ele>
        <time>2013-07-24T13:18:53Z</time>
      </trkpt>
      <trkpt lat="44.74674" lon="3.22983">
        <ele>1081</ele>
        <time>2013-07-24T13:18:59Z</time>
      </trkpt>
      <trkpt lat="44.74681" lon="3.22974">
        <ele>1083</ele>
        <time>2013-07-24T13:19:06Z</time>
      </trkpt>
      <trkpt lat="44.74686" lon="3.22961">
        <ele>1082</ele>
        <time>2013-07-24T13:19:15Z</time>
      </trkpt>
      <trkpt lat="44.74692" lon="3.22946">
        <ele>1080</ele>
        <time>2013-07-24T13:19:28Z</time>
      </trkpt>
      <trkpt lat="44.74693" lon="3.22934">
        <ele>1078</ele>
        <time>2013-07-24T13:19:34Z</time>
      </trkpt>
      <trkpt lat="44.74693" lon="3.2292">
        <ele>1077</ele>
        <time>2013-07-24T13:19:39Z</time>
      </trkpt>
      <trkpt lat="44.74693" lon="3.22907">
        <ele>1078</ele>
        <time>2013-07-24T13:19:45Z</time>
      </trkpt>
      <trkpt lat="44.74696" lon="3.22895">
        <ele>1078</ele>
        <time>2013-07-24T13:19:50Z</time>
      </trkpt>
      <trkpt lat="44.74702" lon="3.22885">
        <ele>1078</ele>
        <time>2013-07-24T13:19:56Z</time>
      </trkpt>
      <trkpt lat="44.74705" lon="3.22869">
        <ele>1080</ele>
        <time>2013-07-24T13:20:06Z</time>
      </trkpt>
      <trkpt lat="44.74711" lon="3.22858">
        <ele>1082</ele>
        <time>2013-07-24T13:20:12Z</time>
      </trkpt>
      <trkpt lat="44.74714" lon="3.22852">
        <ele>1083</ele>
        <time>2013-07-24T13:20:15Z</time>
      </trkpt>
      <trkpt lat="44.74719" lon="3.22845">
        <ele>1086</ele>
        <time>2013-07-24T13:20:22Z</time>
      </trkpt>
      <trkpt lat="44.74723" lon="3.22841">
        <ele>1087</ele>
        <time>2013-07-24T13:20:25Z</time>
      </trkpt>
      <trkpt lat="44.74728" lon="3.22835">
        <ele>1089</ele>
        <time>2013-07-24T13:20:29Z</time>
      </trkpt>
      <trkpt lat="44.74733" lon="3.22824">
        <ele>1090</ele>
        <time>2013-07-24T13:20:35Z</time>
      </trkpt>
      <trkpt lat="44.74735" lon="3.22817">
        <ele>1090</ele>
        <time>2013-07-24T13:20:38Z</time>
      </trkpt>
      <trkpt lat="44.74737" lon="3.2281">
        <ele>1090</ele>
        <time>2013-07-24T13:20:42Z</time>
      </trkpt>
      <trkpt lat="44.74741" lon="3.22796">
        <ele>1089</ele>
        <time>2013-07-24T13:20:49Z</time>
      </trkpt>
      <trkpt lat="44.74742" lon="3.22784">
        <ele>1090</ele>
        <time>2013-07-24T13:20:55Z</time>
      </trkpt>
      <trkpt lat="44.74743" lon="3.22777">
        <ele>1091</ele>
        <time>2013-07-24T13:20:58Z</time>
      </trkpt>
      <trkpt lat="44.74744" lon="3.22769">
        <ele>1091</ele>
        <time>2013-07-24T13:21:01Z</time>
      </trkpt>
      <trkpt lat="44.74744" lon="3.22763">
        <ele>1092</ele>
        <time>2013-07-24T13:21:04Z</time>
      </trkpt>
      <trkpt lat="44.74743" lon="3.22749">
        <ele>1093</ele>
        <time>2013-07-24T13:21:11Z</time>
      </trkpt>
      <trkpt lat="44.74743" lon="3.22736">
        <ele>1093</ele>
        <time>2013-07-24T13:21:17Z</time>
      </trkpt>
      <trkpt lat="44.74742" lon="3.22722">
        <ele>1093</ele>
        <time>2013-07-24T13:21:23Z</time>
      </trkpt>
      <trkpt lat="44.74741" lon="3.22707">
        <ele>1093</ele>
        <time>2013-07-24T13:21:30Z</time>
      </trkpt>
      <trkpt lat="44.74741" lon="3.22693">
        <ele>1093</ele>
        <time>2013-07-24T13:21:37Z</time>
      </trkpt>
      <trkpt lat="44.74742" lon="3.22683">
        <ele>1093</ele>
        <time>2013-07-24T13:21:41Z</time>
      </trkpt>
      <trkpt lat="44.74743" lon="3.22676">
        <ele>1093</ele>
        <time>2013-07-24T13:21:44Z</time>
      </trkpt>
      <trkpt lat="44.74745" lon="3.22668">
        <ele>1094</ele>
        <time>2013-07-24T13:21:49Z</time>
      </trkpt>
      <trkpt lat="44.74747" lon="3.22662">
        <ele>1093</ele>
        <time>2013-07-24T13:21:53Z</time>
      </trkpt>
      <trkpt lat="44.74751" lon="3.2265">
        <ele>1093</ele>
        <time>2013-07-24T13:22:01Z</time>
      </trkpt>
      <trkpt lat="44.74757" lon="3.22636">
        <ele>1091</ele>
        <time>2013-07-24T13:22:08Z</time>
      </trkpt>
      <trkpt lat="44.7476" lon="3.22624">
        <ele>1091</ele>
        <time>2013-07-24T13:22:14Z</time>
      </trkpt>
      <trkpt lat="44.74764" lon="3.22612">
        <ele>1093</ele>
        <time>2013-07-24T13:22:22Z</time>
      </trkpt>
      <trkpt lat="44.74769" lon="3.22598">
        <ele>1095</ele>
        <time>2013-07-24T13:22:31Z</time>
      </trkpt>
      <trkpt lat="44.7477" lon="3.22585">
        <ele>1095</ele>
        <time>2013-07-24T13:22:37Z</time>
      </trkpt>
      <trkpt lat="44.74773" lon="3.22572">
        <ele>1095</ele>
        <time>2013-07-24T13:22:43Z</time>
      </trkpt>
      <trkpt lat="44.74776" lon="3.22559">
        <ele>1096</ele>
        <time>2013-07-24T13:22:51Z</time>
      </trkpt>
      <trkpt lat="44.74778" lon="3.22545">
        <ele>1095</ele>
        <time>2013-07-24T13:22:58Z</time>
      </trkpt>
      <trkpt lat="44.7478" lon="3.22533">
        <ele>1095</ele>
        <time>2013-07-24T13:23:05Z</time>
      </trkpt>
      <trkpt lat="44.74781" lon="3.22525">
        <ele>1095</ele>
        <time>2013-07-24T13:23:09Z</time>
      </trkpt>
      <trkpt lat="44.74783" lon="3.22517">
        <ele>1095</ele>
        <time>2013-07-24T13:23:13Z</time>
      </trkpt>
      <trkpt lat="44.74783" lon="3.22507">
        <ele>1096</ele>
        <time>2013-07-24T13:23:17Z</time>
      </trkpt>
      <trkpt lat="44.74782" lon="3.22501">
        <ele>1096</ele>
        <time>2013-07-24T13:23:21Z</time>
      </trkpt>
      <trkpt lat="44.74787" lon="3.22489">
        <ele>1097</ele>
        <time>2013-07-24T13:23:29Z</time>
      </trkpt>
      <trkpt lat="44.7479" lon="3.22482">
        <ele>1098</ele>
        <time>2013-07-24T13:23:34Z</time>
      </trkpt>
      <trkpt lat="44.74793" lon="3.22476">
        <ele>1098</ele>
        <time>2013-07-24T13:23:37Z</time>
      </trkpt>
      <trkpt lat="44.74797" lon="3.22471">
        <ele>1099</ele>
        <time>2013-07-24T13:23:41Z</time>
      </trkpt>
      <trkpt lat="44.748" lon="3.22465">
        <ele>1099</ele>
        <time>2013-07-24T13:23:45Z</time>
      </trkpt>
      <trkpt lat="44.74803" lon="3.2246">
        <ele>1100</ele>
        <time>2013-07-24T13:23:49Z</time>
      </trkpt>
      <trkpt lat="44.74807" lon="3.22456">
        <ele>1101</ele>
        <time>2013-07-24T13:23:54Z</time>
      </trkpt>
      <trkpt lat="44.74815" lon="3.22451">
        <ele>1104</ele>
        <time>2013-07-24T13:24:05Z</time>
      </trkpt>
      <trkpt lat="44.7482" lon="3.22457">
        <ele>1104</ele>
        <time>2013-07-24T13:24:08Z</time>
      </trkpt>
      <trkpt lat="44.74824" lon="3.22465">
        <ele>1104</ele>
        <time>2013-07-24T13:24:12Z</time>
      </trkpt>
      <trkpt lat="44.74827" lon="3.22474">
        <ele>1102</ele>
        <time>2013-07-24T13:24:18Z</time>
      </trkpt>
      <trkpt lat="44.74825" lon="3.22486">
        <ele>1100</ele>
        <time>2013-07-24T13:24:29Z</time>
      </trkpt>
      <trkpt lat="44.74822" lon="3.22499">
        <ele>1100</ele>
        <time>2013-07-24T13:24:37Z</time>
      </trkpt>
      <trkpt lat="44.74822" lon="3.22502">
        <ele>1099</ele>
        <time>2013-07-24T13:30:09Z</time>
      </trkpt>
      <trkpt lat="44.74826" lon="3.22484">
        <ele>1099</ele>
        <time>2013-07-24T13:30:26Z</time>
      </trkpt>
      <trkpt lat="44.7483" lon="3.22477">
        <ele>1099</ele>
        <time>2013-07-24T13:31:09Z</time>
      </trkpt>
      <trkpt lat="44.74839" lon="3.22478">
        <ele>1098</ele>
        <time>2013-07-24T13:31:18Z</time>
      </trkpt>
      <trkpt lat="44.74848" lon="3.22474">
        <ele>1097</ele>
        <time>2013-07-24T13:31:28Z</time>
      </trkpt>
      <trkpt lat="44.74858" lon="3.22478">
        <ele>1097</ele>
        <time>2013-07-24T13:31:36Z</time>
      </trkpt>
      <trkpt lat="44.74864" lon="3.22478">
        <ele>1094</ele>
        <time>2013-07-24T13:32:39Z</time>
      </trkpt>
      <trkpt lat="44.74874" lon="3.22481">
        <ele>1093</ele>
        <time>2013-07-24T13:32:48Z</time>
      </trkpt>
      <trkpt lat="44.74874" lon="3.2248">
        <ele>1087</ele>
        <time>2013-07-24T13:34:06Z</time>
      </trkpt>
      <trkpt lat="44.74864" lon="3.22476">
        <ele>1089</ele>
        <time>2013-07-24T13:34:44Z</time>
      </trkpt>
    </trkseg>
  </trk>
</gpx>